[[{"header":{"parameterUnit":"m.s-1","parameterCategory":1,"la1":31.0,"la2":29.5877,"lo1":-88.7671,"lo2":-86.6584,"dy":0.0162,"dx":0.0185,"nx":115,"ny":88,"refTime":"2024-05-28T06:00:00:Z","depth":0,"parameterNumber":2,"parameterNumberName":"U-component_of_WINDS"},"data":[0.0,0.0,0.0,0.0,0.0,0.0,0.0,0.0,0.0,0.0,0.0,0.0,0.0,0.0,0.0,0.0,0.0,0.0,0.0,0.0,0.0,0.0,0.0,0.0,0.0,0.0,0.0,0.0,0.0,0.0,0.0,0.0,0.0,0.0,0.0,0.0,0.0,0.0,0.0,0.0,0.0,0.0,0.0,0.0,0.0,0.0,0.0,0.0,0.0,0.0,0.0,0.0,0.0,0.0,0.0,0.0,0.0,0.0,0.0,0.0,0.0,0.0,0.0,0.0,0.0,0.0,0.0,0.0,0.0,0.0,0.0,0.0,0.0,0.0,0.0,0.0,0.0,0.0,0.0,0.0,0.0,0.0,0.0,0.0,0.0,0.0,0.0,0.0,0.0,0.0,0.0,0.0,0.0,0.0,0.0,0.0,0.0,0.0,0.0,0.0,0.0,0.0,0.0,0.0,0.0,0.0,0.0,0.0,0.0,0.0,0.0,0.0,0.0,0.0,0.0,0.0,0.0,0.0,0.0,0.0,0.0,0.0,0.0,0.0,0.0,0.0,0.0,0.0,0.0,0.0,0.0,0.0,0.0,0.0,0.0,0.0,0.0,0.0,0.0,0.0,0.0,0.0,0.0,0.0,0.0,0.0,0.0,0.0,0.0,0.0,0.0,0.0,0.0,0.0,0.0,0.0,0.0,0.0,0.0,0.0,0.0,0.0,0.0,0.0,0.0,0.0,0.0,0.0,0.0,0.0,0.0,0.0,0.0,0.0,0.0,0.0,0.0,0.0,0.0,0.0,0.0,0.0,0.0,0.0,0.0,0.0,0.0,0.0,0.0,0.0,0.0,0.0,0.0,0.0,0.0,0.0,0.0,0.0,0.0,0.0,0.0,0.0,0.0,0.0,0.0,0.0,0.0,0.0,0.0,0.0,0.0,0.0,0.0,0.0,0.0,0.0,0.0,0.0,0.0,0.0,0.0,0.0,0.0,0.0,0.0,0.0,0.0,0.0,0.0,0.0,0.0,0.0,0.0,0.0,0.0,0.0,0.0,0.0,0.0,0.0,0.0,0.0,0.0,0.0,0.0,0.0,0.0,0.0,0.0,0.0,0.0,0.0,0.0,0.0,0.0,0.0,0.0,0.0,0.0,0.0,0.0,0.0,0.0,0.0,0.0,0.0,0.0,0.0,0.0,0.0,0.0,0.0,0.0,0.0,0.0,0.0,0.0,0.0,0.0,0.0,0.0,0.0,0.0,0.0,0.0,0.0,0.0,0.0,0.0,0.0,0.0,0.0,0.0,0.0,0.0,0.0,0.0,0.0,0.0,0.0,0.0,0.0,0.0,0.0,0.0,0.0,0.0,0.0,0.0,0.0,0.0,0.0,0.0,0.0,0.0,0.0,0.0,0.0,0.0,0.0,0.0,0.0,0.0,0.0,0.0,0.0,0.0,0.0,0.0,0.0,0.0,0.0,0.0,0.0,0.0,0.0,0.0,0.0,0.0,0.0,0.0,0.0,0.0,0.0,0.0,0.0,0.0,0.0,0.0,0.0,0.0,0.0,0.0,0.0,0.0,0.0,0.0,0.0,0.0,0.0,0.0,0.0,0.0,0.0,0.0,0.0,0.0,0.0,0.0,0.0,0.0,0.0,0.0,0.0,0.0,0.0,0.0,0.0,0.0,0.0,0.0,0.0,0.0,0.0,0.0,0.0,0.0,0.0,0.0,0.0,0.0,0.0,0.0,0.0,0.0,0.0,0.0,0.0,0.0,0.0,0.0,0.0,0.0,0.0,0.0,0.0,0.0,0.0,0.0,0.0,0.0,0.0,0.0,0.0,0.0,0.0,0.0,0.0,0.0,0.0,0.0,0.0,0.0,0.0,0.0,0.0,0.0,0.0,0.0,0.0,0.0,0.0,0.0,0.0,0.0,0.0,0.0,0.0,0.0,0.0,0.0,0.0,0.0,0.0,0.0,0.0,0.0,0.0,0.0,0.0,0.0,0.0,0.0,0.0,0.0,0.0,0.0,0.0,0.0,0.0,0.0,0.0,0.0,0.0,0.0,0.0,0.0,0.0,0.0,0.0,0.0,0.0,0.0,0.0,0.0,0.0,0.0,0.0,0.0,0.0,0.0,0.0,0.0,0.0,0.0,0.0,0.0,0.0,0.0,0.0,0.0,0.0,0.0,0.0,0.0,0.0,0.0,0.0,0.0,0.0,0.0,0.0,0.0,0.0,0.0,0.0,0.0,0.0,0.0,0.0,0.0,0.0,0.0,0.0,0.0,0.0,0.0,0.0,0.0,0.0,0.0,0.0,0.0,0.0,0.0,0.0,0.0,0.0,0.0,0.0,0.0,0.0,0.0,0.0,0.0,0.0,0.0,0.0,0.0,0.0,0.0,0.0,0.0,0.0,0.0,0.0,0.0,0.0,0.0,0.0,0.0,0.0,0.0,0.0,0.0,0.0,0.0,0.0,0.0,0.0,0.0,0.0,0.0,0.0,0.0,0.0,0.0,0.0,0.0,0.0,0.0,0.0,0.0,0.0,0.0,0.0,0.0,0.0,0.0,0.0,0.0,0.0,0.0,0.0,0.0,0.0,0.0,0.0,0.0,0.0,0.0,0.0,0.0,0.0,0.0,0.0,0.0,0.0,0.0,0.0,0.0,0.0,0.0,0.0,0.0,0.0,0.0,0.0,0.0,0.0,0.0,0.0,0.0,0.0,0.0,0.0,0.0,0.0,0.0,0.0,0.0,0.0,0.0,0.0,0.0,0.0,0.0,0.0,0.0,0.0,0.0,0.0,0.0,0.0,0.0,0.0,0.0,0.0,0.0,0.0,0.0,0.0,0.0,0.0,0.0,0.0,0.0,0.0,0.0,0.0,0.0,0.0,0.0,0.0,0.0,0.0,0.0,0.0,0.0,0.0,0.0,0.0,0.0,0.0,0.0,0.0,0.0,0.0,0.0,0.0,0.0,0.0,0.0,0.0,0.0,0.0,0.0,0.0,0.0,0.0,0.0,0.0,0.0,0.0,0.0,0.0,0.0,0.0,0.0,0.0,0.0,0.0,0.0,0.0,0.0,0.0,0.0,0.0,0.0,0.0,0.0,0.0,0.0,0.0,0.0,0.0,0.0,0.0,0.0,0.0,0.0,0.0,0.0,0.0,0.0,0.0,0.0,0.0,0.0,0.0,0.0,0.0,0.0,0.0,0.0,0.0,0.0,0.0,0.0,0.0,0.0,0.0,0.0,0.0,0.0,0.0,0.0,0.0,0.0,0.0,0.0,0.0,0.0,0.0,0.0,0.0,0.0,0.0,0.0,0.0,0.0,0.0,0.0,0.0,0.0,0.0,0.0,0.0,0.0,0.0,0.0,0.0,0.0,0.0,0.0,0.0,0.0,0.0,0.0,0.0,0.0,0.0,0.0,0.0,0.0,0.0,0.0,0.0,0.0,0.0,0.0,0.0,0.0,0.0,0.0,0.0,0.0,0.0,0.0,0.0,0.0,0.0,0.0,0.0,0.0,0.0,0.0,0.0,0.0,0.0,0.0,0.0,0.0,0.0,0.0,0.0,0.0,0.0,0.0,0.0,0.0,0.0,0.0,0.0,0.0,0.0,0.0,0.0,0.0,0.0,0.0,0.0,0.0,0.0,0.0,0.0,0.0,0.0,0.0,0.0,0.0,0.0,0.0,0.0,0.0,0.0,0.0,0.0,0.0,0.0,0.0,0.0,0.0,0.0,0.0,0.0,0.0,0.0,0.0,0.0,0.0,0.0,0.0,0.0,0.0,0.0,0.0,0.0,0.0,0.0,0.0,0.0,0.0,0.0,0.0,0.0,0.0,0.0,0.0,0.0,0.0,0.0,0.0,0.0,0.0,0.0,0.0,0.0,0.0,0.0,0.0,0.0,0.0,0.0,0.0,0.0,0.0,0.0,0.0,0.0,0.0,0.0,0.0,0.0,0.0,0.0,0.0,0.0,0.0,0.0,0.0,0.0,0.0,0.0,0.0,0.0,0.0,0.0,0.0,0.0,0.0,0.0,0.0,0.0,0.0,0.0,0.0,0.0,0.0,0.0,0.0,0.0,0.0,0.0,0.0,0.0,0.0,0.0,0.0,0.0,0.0,0.0,0.0,0.0,0.0,0.0,0.0,0.0,0.0,0.0,0.0,0.0,0.0,0.0,0.0,0.0,0.0,0.0,0.0,0.0,0.0,0.0,0.0,0.0,0.0,0.0,0.0,0.0,0.0,0.0,0.0,0.0,0.0,0.0,0.0,0.0,1.4488,0.0,0.0,0.0,0.0,0.0,0.0,0.0,0.0,0.0,0.0,0.0,0.0,0.0,0.0,0.0,0.0,0.0,0.0,0.0,0.0,0.0,0.0,0.0,0.0,0.0,0.0,0.0,0.0,0.0,0.0,0.0,0.0,0.0,0.0,0.0,0.0,0.0,0.0,0.0,0.0,0.0,0.0,0.0,0.0,0.0,0.0,0.0,0.0,0.0,0.0,0.0,0.0,0.0,0.0,0.0,0.0,0.0,0.0,0.0,0.0,0.0,0.0,0.0,0.0,0.0,0.0,0.0,0.0,0.0,0.0,0.0,0.0,0.0,0.0,0.0,0.0,0.0,0.0,0.0,0.0,0.0,0.0,0.0,0.0,0.0,0.0,0.0,0.0,0.0,0.0,0.0,0.0,0.0,0.0,0.0,0.0,0.0,0.0,0.0,0.0,0.0,0.0,0.0,0.0,0.0,0.0,0.0,0.0,0.0,0.0,1.4488,1.4488,1.4488,1.4488,1.4488,0.0,0.0,0.0,0.0,0.0,0.0,0.0,0.0,0.0,0.0,0.0,0.0,0.0,0.0,0.0,0.0,0.0,0.0,0.0,0.0,0.0,0.0,0.0,0.0,0.0,0.0,0.0,0.0,0.0,0.0,0.0,0.0,0.0,0.0,0.0,0.0,0.0,0.0,0.0,0.0,0.0,0.0,0.0,0.0,0.0,0.0,0.0,0.0,0.0,0.0,0.0,0.0,0.0,0.0,0.0,0.0,0.0,0.0,0.0,0.0,0.0,0.0,0.0,0.0,0.0,0.0,0.0,0.0,0.0,0.0,0.0,0.0,0.0,0.0,0.0,0.0,0.0,0.0,0.0,0.0,0.0,0.0,0.0,0.0,0.0,0.0,0.0,0.0,0.0,0.0,0.0,0.0,0.0,0.0,0.0,0.0,0.0,0.0,0.0,0.0,0.0,0.0,0.0,0.0,0.0,0.0,0.0,0.0,0.0,0.0,0.0,0.0,1.4763,1.4774,1.4763,0.0,0.0,0.0,0.0,0.0,0.0,0.0,0.0,0.0,0.0,0.0,0.0,0.0,0.0,0.0,0.0,0.0,0.0,0.0,0.0,0.0,0.0,0.0,0.0,0.0,0.0,0.0,0.0,0.0,0.0,0.0,0.0,0.0,0.0,0.0,0.0,0.0,0.0,0.0,0.0,0.0,0.0,0.0,0.0,0.0,0.0,0.0,0.0,0.0,0.0,0.0,0.0,0.0,0.0,0.0,0.0,0.0,0.0,0.0,0.0,0.0,0.0,0.0,0.0,0.0,0.0,0.0,0.0,0.0,0.0,0.0,0.0,0.0,0.0,0.0,0.0,0.0,0.0,0.0,0.0,0.0,0.0,0.0,0.0,0.0,0.0,0.0,0.0,0.0,0.0,0.0,0.0,0.0,0.0,0.0,0.0,0.0,0.0,0.0,0.0,0.0,0.0,0.0,0.0,0.0,0.0,0.0,0.0,0.0,0.0,1.4848,1.5564,1.5582,0.0,1.5594,0.0,0.0,0.0,0.0,0.0,0.0,0.0,0.0,0.0,0.0,0.0,0.0,0.0,0.0,0.0,0.0,0.0,0.0,0.0,0.0,0.0,0.0,0.0,0.0,0.0,0.0,0.0,0.0,0.0,0.0,0.0,0.0,0.0,0.0,0.0,0.0,0.0,0.0,0.0,0.0,0.0,0.0,0.0,0.0,0.0,0.0,0.0,0.0,0.0,0.0,0.0,0.0,0.0,0.0,0.0,0.0,0.0,0.0,0.0,0.0,0.0,0.0,0.0,0.0,0.0,0.0,0.0,0.0,0.0,0.0,0.0,0.0,0.0,0.0,0.0,0.0,0.0,0.0,0.0,0.0,0.0,0.0,0.0,0.0,0.0,0.0,0.0,0.0,0.0,0.0,0.0,0.0,0.0,0.0,0.0,0.0,0.0,0.0,0.0,0.0,0.0,0.0,0.0,0.0,0.0,0.0,0.0,0.0,0.0,0.0,1.5362,1.5674,1.5684,1.5684,0.0,0.0,0.0,0.0,0.0,0.0,0.0,0.0,0.0,0.0,0.0,0.0,0.0,0.0,0.0,0.0,0.0,0.0,0.0,0.0,0.0,0.0,0.0,0.0,0.0,0.0,0.0,0.0,0.0,0.0,0.0,0.0,0.0,0.0,0.0,0.0,0.0,0.0,0.0,0.0,0.0,0.0,0.0,0.0,0.0,0.0,0.0,0.0,0.0,0.0,0.0,0.0,0.0,0.0,0.0,0.0,0.0,0.0,0.0,0.0,0.0,0.0,0.0,0.0,0.0,0.0,0.0,0.0,0.0,0.0,0.0,0.0,0.0,0.0,0.0,0.0,0.0,0.0,0.0,0.0,0.0,0.0,0.0,0.0,0.0,0.0,0.0,0.0,0.0,0.0,0.0,0.0,0.0,0.0,0.0,0.0,0.0,0.0,0.0,0.0,0.0,0.0,0.0,0.0,0.0,0.0,0.0,0.0,0.0,0.0,1.5527,0.0,1.6022,1.6018,1.5835,1.538,0.0,0.0,0.0,0.0,0.0,0.0,0.0,0.0,0.0,0.0,0.0,0.0,0.0,0.0,0.0,0.0,0.0,0.0,0.0,0.0,0.0,0.0,0.0,0.0,0.0,0.0,0.0,0.0,0.0,0.0,0.0,0.0,0.0,0.0,0.0,0.0,0.0,0.0,0.0,0.0,0.0,0.0,0.0,0.0,0.0,0.0,0.0,0.0,0.0,0.0,0.0,0.0,0.0,0.0,0.0,0.0,0.0,0.0,0.0,0.0,0.0,0.0,0.0,0.0,0.0,0.0,0.0,0.0,0.0,0.0,0.0,0.0,0.0,0.0,0.0,0.0,0.0,0.0,0.0,0.0,0.0,0.0,0.0,0.0,0.0,0.0,0.0,0.0,0.0,0.0,0.0,0.0,0.0,0.0,0.0,0.0,0.0,0.0,0.0,0.0,0.0,0.0,0.0,0.0,0.0,0.0,0.0,0.0,0.0,1.6059,1.6078,1.6817,1.684,1.6125,0.0,0.0,0.0,0.0,0.0,0.0,0.0,0.0,0.0,0.0,0.0,0.0,0.0,0.0,0.0,0.0,0.0,0.0,0.0,0.0,0.0,0.0,0.0,0.0,0.0,0.0,0.0,0.0,0.0,0.0,0.0,0.0,0.0,0.0,0.0,0.0,0.0,0.0,0.0,0.0,0.0,0.0,0.0,0.0,0.0,0.0,0.0,0.0,0.0,0.0,0.0,0.0,0.0,0.0,0.0,0.0,0.0,0.0,0.0,0.0,0.0,0.0,0.0,0.0,0.0,0.0,0.0,0.0,0.0,0.0,0.0,0.0,0.0,0.0,0.0,0.0,0.0,0.0,0.0,0.0,0.0,0.0,0.0,0.0,0.0,0.0,0.0,0.0,0.0,0.0,0.0,0.0,0.0,0.0,0.0,0.0,0.0,0.0,0.0,0.0,0.0,0.0,0.0,0.0,0.0,0.0,0.0,0.0,0.0,1.5294,1.5582,1.6334,1.755,1.6183,1.5332,0.0,0.0,0.0,0.0,0.0,0.0,0.0,0.0,0.0,0.0,0.0,0.0,0.0,0.0,0.0,0.0,0.0,0.0,0.0,0.0,0.0,0.0,0.0,0.0,0.0,0.0,0.0,0.0,0.0,0.0,0.0,0.0,0.0,0.0,0.0,0.0,0.0,0.0,0.0,0.0,0.0,0.0,0.0,0.0,0.0,0.0,0.0,0.0,0.0,0.0,0.0,0.0,0.0,0.0,0.0,0.0,0.0,0.0,0.0,0.0,0.0,0.0,0.0,0.0,0.0,0.0,0.0,0.0,0.0,0.0,0.0,0.0,0.0,0.0,0.0,0.0,0.0,0.0,0.0,0.0,0.0,0.0,0.0,0.0,0.0,0.0,0.0,0.0,0.0,0.0,0.0,0.0,0.0,0.0,0.0,0.0,0.0,0.0,0.0,0.0,0.0,0.0,0.0,0.0,0.0,0.0,0.0,0.0,0.0,1.5252,0.0,1.6885,0.0,1.5887,1.479,0.0,0.0,0.0,0.0,0.0,0.0,0.0,0.0,0.0,0.0,0.0,0.0,0.0,0.0,0.0,0.0,0.0,0.0,0.0,0.0,0.0,0.0,0.0,0.0,0.0,0.0,0.0,0.0,0.0,0.0,0.0,0.0,0.0,0.0,0.0,0.0,0.0,0.0,0.0,0.0,0.0,0.0,0.0,0.0,0.0,0.0,0.0,0.0,0.0,0.0,0.0,0.0,0.0,0.0,0.0,0.0,0.0,0.0,0.0,0.0,0.0,0.0,0.0,0.0,0.0,0.0,0.0,0.0,0.0,0.0,0.0,0.0,0.0,0.0,0.0,0.0,0.0,0.0,0.0,0.0,0.0,0.0,0.0,0.0,0.0,0.0,0.0,0.0,0.0,0.0,0.0,0.0,0.0,0.0,0.0,0.0,0.0,0.0,0.0,0.0,0.0,0.0,0.0,0.0,0.0,0.0,0.0,0.0,1.5276,1.678,1.7582,1.7638,1.6927,1.6082,1.4575,0.0,0.0,0.0,0.0,0.0,0.0,0.0,0.0,0.0,0.0,0.0,0.0,0.0,0.0,0.0,0.0,0.0,0.0,0.0,0.0,0.0,0.0,0.0,0.0,0.0,0.0,0.0,0.0,0.0,0.0,0.0,0.0,0.0,0.0,0.0,0.0,0.0,0.0,0.0,0.0,0.0,0.0,0.0,0.0,0.0,0.0,0.0,0.0,0.0,0.0,0.0,0.0,0.0,0.0,0.0,0.0,0.0,0.0,0.0,0.0,0.0,0.0,0.0,0.0,0.0,0.0,0.0,0.0,0.0,0.0,0.0,0.0,0.0,0.0,0.0,0.0,0.0,0.0,0.0,0.0,0.0,0.0,0.0,0.0,0.0,0.0,0.0,0.0,0.0,0.0,0.0,0.0,0.0,0.0,0.0,0.0,0.0,0.0,0.0,0.0,0.0,0.0,0.0,0.0,0.0,0.0,0.0,0.0,0.0,1.5276,1.656,1.7422,1.7642,1.5874,1.4794,0.0,0.0,0.0,0.0,0.0,0.0,0.0,0.0,0.0,0.0,0.0,0.0,0.0,0.0,0.0,0.0,0.0,0.0,0.0,0.0,0.0,0.0,0.0,0.0,0.0,0.0,0.0,0.0,0.0,0.0,0.0,0.0,0.0,0.0,0.0,0.0,0.0,0.0,0.0,0.0,0.0,0.0,0.0,0.0,0.0,0.0,0.0,0.0,0.0,0.0,0.0,0.0,0.0,0.0,0.0,0.0,0.0,0.0,0.0,0.0,0.0,0.0,0.0,0.0,0.0,0.0,0.0,0.0,0.0,0.0,0.0,0.0,0.0,0.0,0.0,0.0,0.0,0.0,0.0,0.0,0.0,0.0,0.0,0.0,0.0,0.0,0.0,0.0,0.0,0.0,0.0,0.0,0.0,0.0,0.0,0.0,0.0,0.0,0.0,0.0,0.0,0.0,0.0,0.0,0.0,0.0,0.0,0.0,0.0,1.6467,1.7311,1.788,1.8096,1.6064,1.503,1.5184,0.0,0.0,0.0,0.0,0.0,0.0,0.0,0.0,0.0,0.0,0.0,0.0,0.0,0.0,0.0,0.0,0.0,0.0,0.0,0.0,0.0,0.0,0.0,0.0,0.0,0.0,0.0,0.0,0.0,0.0,0.0,0.0,0.0,0.0,0.0,0.0,0.0,0.0,0.0,0.0,0.0,0.0,0.0,0.0,0.0,0.0,0.0,0.0,0.0,0.0,0.0,0.0,0.0,0.0,0.0,0.0,0.0,0.0,0.0,0.0,0.0,0.0,0.0,0.0,0.0,0.0,0.0,0.0,0.0,0.0,0.0,0.0,0.0,0.0,0.0,0.0,0.0,0.0,0.0,0.0,0.0,0.0,0.0,0.0,0.0,0.0,0.0,0.0,0.0,0.0,0.0,0.0,0.0,0.0,0.0,0.0,0.0,0.0,0.0,0.0,0.0,0.0,0.0,0.0,0.0,0.0,0.0,0.0,1.958,1.9497,1.9062,1.8294,1.6757,1.5504,0.0,0.0,0.0,0.0,0.0,0.0,0.0,0.0,0.0,0.0,0.0,0.0,0.0,0.0,0.0,0.0,0.0,0.0,0.0,0.0,0.0,0.0,0.0,0.0,0.0,0.0,0.0,0.0,0.0,0.0,0.0,0.0,0.0,0.0,0.0,0.0,0.0,0.0,0.0,0.0,0.0,0.0,0.0,0.0,0.0,0.0,0.0,0.0,0.0,0.0,0.0,0.0,0.0,0.0,0.0,0.0,0.0,0.0,0.0,0.0,0.0,0.0,0.0,0.0,0.0,0.0,0.0,0.0,0.0,0.0,0.0,0.0,0.0,0.0,0.0,0.0,0.0,0.0,0.0,0.0,0.0,0.0,0.0,0.0,0.0,0.0,0.0,0.0,0.0,0.0,0.0,0.0,0.0,0.0,0.0,0.0,0.0,0.0,0.0,0.0,0.0,0.0,0.0,0.0,0.0,0.0,0.0,0.0,0.0,1.9599,2.0699,2.0912,2.0113,1.8971,1.7713,0.0,0.0,0.0,0.0,0.0,0.0,0.0,0.0,0.0,0.0,0.0,0.0,0.0,0.0,0.0,0.0,0.0,0.0,0.0,0.0,0.0,0.0,0.0,0.0,0.0,0.0,0.0,0.0,0.0,0.0,0.0,0.0,0.0,0.0,0.0,0.0,0.0,0.0,0.0,0.0,0.0,0.0,0.0,0.0,0.0,0.0,0.0,0.0,0.0,0.0,0.0,0.0,0.0,0.0,0.0,0.0,0.0,0.0,0.0,0.0,0.0,0.0,0.0,0.0,0.0,0.0,0.0,0.0,0.0,0.0,0.0,0.0,0.0,0.0,0.0,0.0,0.0,0.0,0.0,0.0,0.0,0.0,0.0,0.0,0.0,0.0,0.0,0.0,0.0,0.0,0.0,0.0,0.0,0.0,0.0,0.0,0.0,0.0,0.0,0.0,0.0,0.0,0.0,0.0,0.0,0.0,0.0,0.0,1.9637,2.0727,2.226,2.2738,2.2067,2.0755,1.9099,0.0,0.0,0.0,0.0,0.0,0.0,0.0,0.0,0.0,0.0,0.0,0.0,0.0,0.0,0.0,0.0,0.0,0.0,0.0,0.0,0.0,0.0,0.0,0.0,0.0,0.0,0.0,0.0,0.0,0.0,0.0,0.0,0.0,0.0,0.0,0.0,0.0,0.0,0.0,0.0,0.0,0.0,0.0,0.0,0.0,0.0,0.0,0.0,0.0,0.0,0.0,0.0,0.0,0.0,0.0,0.0,0.0,0.0,0.0,0.0,0.0,0.0,0.0,0.0,0.0,0.0,0.0,0.0,0.0,0.0,0.0,0.0,0.0,0.0,0.0,0.0,0.0,0.0,0.0,0.0,0.0,0.0,0.0,0.0,0.0,0.0,0.0,0.0,0.0,0.0,0.0,0.0,0.0,0.0,0.0,0.0,0.0,0.0,0.0,0.0,0.0,0.0,0.0,0.0,0.0,0.0,0.0,0.0,2.1127,2.2401,2.3798,2.4298,2.3812,2.2144,2.0052,0.0,0.0,0.0,0.0,0.0,0.0,0.0,0.0,0.0,0.0,0.0,0.0,0.0,0.0,0.0,0.0,0.0,0.0,0.0,0.0,0.0,0.0,0.0,0.0,0.0,0.0,0.0,0.0,0.0,0.0,0.0,0.0,0.0,0.0,0.0,0.0,0.0,0.0,0.0,0.0,0.0,0.0,0.0,0.0,0.0,0.0,0.0,0.0,0.0,0.0,0.0,0.0,0.0,0.0,0.0,0.0,0.0,0.0,0.0,0.0,0.0,0.0,0.0,0.0,0.0,0.0,0.0,0.0,0.0,0.0,0.0,0.0,0.0,0.0,0.0,0.0,0.0,0.0,0.0,0.0,0.0,0.0,0.0,0.0,0.0,0.0,0.0,0.0,0.0,0.0,0.0,0.0,0.0,0.0,0.0,0.0,0.0,0.0,0.0,0.0,0.0,0.0,0.0,0.0,0.0,0.0,0.0,0.0,2.1387,2.3199,2.4214,2.4517,2.4044,2.2741,2.1119,0.0,0.0,0.0,0.0,0.0,0.0,0.0,0.0,0.0,0.0,0.0,0.0,0.0,0.0,0.0,0.0,0.0,0.0,0.0,0.0,0.0,0.0,0.0,0.0,0.0,0.0,0.0,0.0,0.0,0.0,0.0,0.0,0.0,0.0,0.0,0.0,0.0,0.0,0.0,0.0,0.0,0.0,0.0,0.0,0.0,0.0,0.0,0.0,1.6328,0.0,0.0,0.0,0.0,0.0,0.0,0.0,0.0,0.0,0.0,0.0,0.0,0.0,0.0,0.0,0.0,0.0,0.0,0.0,0.0,0.0,0.0,0.0,0.0,0.0,0.0,0.0,0.0,0.0,0.0,0.0,0.0,0.0,0.0,0.0,0.0,0.0,0.0,0.0,0.0,0.0,0.0,0.0,0.0,0.0,0.0,0.0,0.0,0.0,0.0,0.0,0.0,0.0,0.0,0.0,0.0,0.0,0.0,0.0,2.1888,2.3464,2.4351,2.474,2.4639,2.367,2.2076,0.0,0.0,0.0,0.0,0.0,0.0,0.0,0.0,0.0,0.0,0.0,0.0,0.0,0.0,0.0,0.0,0.0,0.0,0.0,0.0,0.0,0.0,0.0,0.0,0.0,0.0,0.0,0.0,0.0,0.0,0.0,0.0,0.0,0.0,0.0,0.0,0.0,0.0,0.0,0.0,0.0,0.0,0.0,0.0,0.0,0.0,0.0,0.0,0.0,0.0,0.0,0.0,0.0,0.0,0.0,0.0,0.0,0.0,0.0,0.0,0.0,0.0,0.0,0.0,0.0,0.0,0.0,0.0,0.0,0.0,0.0,0.0,0.0,0.0,0.0,0.0,0.0,0.0,0.0,0.0,0.0,0.0,0.0,0.0,0.0,0.0,0.0,0.0,0.0,0.0,0.0,0.0,0.0,0.0,0.0,0.0,0.0,0.0,0.0,0.0,0.0,0.0,0.0,0.0,0.0,0.0,0.0,2.0537,2.2296,2.3658,2.4408,2.4949,2.5274,2.4514,2.2901,2.0384,0.0,0.0,0.0,0.0,0.0,0.0,0.0,0.0,0.0,0.0,0.0,0.0,0.0,0.0,0.0,0.0,0.0,0.0,0.0,0.0,0.0,0.0,0.0,0.0,0.0,0.0,0.0,0.0,0.0,0.0,0.0,0.0,0.0,0.0,0.0,0.0,0.0,0.0,1.5664,1.7187,0.0,0.0,0.0,0.0,0.0,0.0,0.0,0.0,1.707,0.0,0.0,0.0,0.0,0.0,0.0,0.0,0.0,0.0,0.0,0.0,0.0,0.0,0.0,0.0,0.0,0.0,0.0,0.0,0.0,0.0,0.0,0.0,0.0,0.0,0.0,0.0,0.0,0.0,0.0,0.0,0.0,0.0,0.0,0.0,0.0,0.0,0.0,0.0,0.0,0.0,0.0,0.0,0.0,0.0,0.0,0.0,0.0,0.0,0.0,0.0,0.0,0.0,0.0,0.0,0.0,2.006,2.0503,2.1962,2.4507,2.4728,2.4949,2.5274,2.4514,2.34,2.1924,0.0,0.0,0.0,0.0,0.0,0.0,0.0,0.0,0.0,0.0,0.0,0.0,0.0,0.0,0.0,0.0,0.0,0.0,0.0,0.0,0.0,0.0,0.0,0.0,0.0,0.0,0.0,0.0,0.0,0.0,0.0,0.0,0.0,0.0,0.0,0.0,0.0,0.0,0.0,1.8457,1.9414,0.0,0.0,0.0,0.0,0.0,0.0,0.0,0.0,1.832,0.0,0.0,0.0,0.0,0.0,0.0,0.0,0.0,0.0,0.0,0.0,0.0,0.0,0.0,0.0,0.0,0.0,0.0,0.0,0.0,0.0,0.0,0.0,0.0,0.0,0.0,0.0,0.0,0.0,0.0,0.0,0.0,0.0,0.0,0.0,0.0,0.0,0.0,0.0,0.0,0.0,0.0,0.0,0.0,0.0,0.0,0.0,0.0,0.0,0.0,0.0,0.0,0.0,0.0,0.0,1.9711,2.0739,2.2333,2.4714,2.4804,2.4968,2.5254,2.4534,2.3535,0.0,0.0,0.0,0.0,0.0,0.0,0.0,0.0,0.0,0.0,0.0,0.0,0.0,0.0,0.0,0.0,0.0,0.0,0.0,0.0,0.0,0.0,0.0,0.0,0.0,0.0,0.0,0.0,0.0,0.0,0.0,0.0,0.0,0.0,0.0,0.0,0.0,0.0,0.0,0.0,1.9141,2.0137,2.0547,0.0,0.0,0.0,0.0,0.0,0.0,1.9238,1.8965,0.0,0.0,0.0,0.0,0.0,0.0,0.0,0.0,0.0,0.0,0.0,0.0,0.0,0.0,0.0,0.0,0.0,0.0,0.0,0.0,0.0,0.0,0.0,0.0,0.0,0.0,0.0,0.0,0.0,0.0,0.0,0.0,0.0,0.0,0.0,0.0,0.0,0.0,0.0,0.0,0.0,0.0,0.0,0.0,0.0,0.0,0.0,0.0,0.0,0.0,0.0,0.0,0.0,0.0,0.0,1.925,2.0776,2.2609,2.4695,2.4804,2.4968,2.5274,2.4524,2.3467,0.0,0.0,0.0,0.0,0.0,0.0,0.0,0.0,0.0,0.0,0.0,0.0,0.0,0.0,0.0,0.0,0.0,0.0,0.0,0.0,0.0,0.0,0.0,0.0,0.0,0.0,0.0,0.0,0.0,0.0,0.0,0.0,0.0,0.0,0.0,0.0,0.0,0.0,0.0,0.0,0.0,2.1035,2.0879,2.0723,0.0,0.0,0.0,0.0,2.0254,2.0195,0.0,0.0,0.0,0.0,0.0,0.0,0.0,0.0,0.0,0.0,0.0,0.0,0.0,0.0,0.0,0.0,0.0,0.0,0.0,0.0,0.0,0.0,0.0,0.0,0.0,0.0,0.0,0.0,0.0,0.0,0.0,0.0,0.0,0.0,0.0,0.0,0.0,0.0,0.0,0.0,0.0,0.0,0.0,0.0,0.0,0.0,0.0,0.0,0.0,0.0,0.0,0.0,0.0,0.0,0.0,0.0,1.9179,2.0189,2.198,2.4657,2.4804,2.4968,2.5274,2.4524,2.3188,0.0,0.0,0.0,0.0,0.0,0.0,0.0,0.0,0.0,0.0,0.0,0.0,0.0,0.0,0.0,0.0,0.0,0.0,0.0,0.0,0.0,0.0,0.0,0.0,0.0,0.0,0.0,0.0,0.0,0.0,0.0,0.0,0.0,0.0,0.0,0.0,0.0,0.0,0.0,0.0,0.0,2.2559,2.1836,2.1074,2.1094,0.0,0.0,2.123,2.3457,2.3223,0.0,0.0,0.0,0.0,0.0,0.0,0.0,0.0,0.0,0.0,0.0,0.0,0.0,0.0,0.0,0.0,0.0,0.0,0.0,0.0,0.0,0.0,0.0,0.0,0.0,0.0,0.0,0.0,0.0,0.0,0.0,0.0,0.0,0.0,0.0,0.0,0.0,0.0,0.0,0.0,0.0,0.0,0.0,0.0,0.0,0.0,0.0,0.0,0.0,0.0,0.0,0.0,0.0,0.0,0.0,1.6536,1.9231,2.0574,2.2388,2.4714,2.4804,2.4949,2.5303,2.4043,2.2688,0.0,0.0,0.0,0.0,0.0,0.0,0.0,0.0,0.0,0.0,0.0,0.0,0.0,0.0,0.0,0.0,0.0,0.0,0.0,0.0,0.0,0.0,0.0,0.0,0.0,0.0,0.0,0.0,0.0,0.0,0.0,0.0,0.0,0.0,0.0,0.0,0.0,0.0,0.0,0.0,0.0,0.0,2.2676,2.2695,0.0,0.0,0.0,2.2969,2.3613,0.0,0.0,0.0,0.0,0.0,0.0,0.0,0.0,0.0,0.0,0.0,0.0,0.0,0.0,0.0,0.0,0.0,0.0,0.0,0.0,0.0,0.0,0.0,0.0,0.0,0.0,0.0,0.0,0.0,0.0,0.0,0.0,0.0,0.0,0.0,0.0,0.0,0.0,0.0,0.0,0.0,0.0,0.0,0.0,0.0,0.0,0.0,0.0,0.0,0.0,0.0,0.0,0.0,0.0,0.0,0.0,0.0,1.9286,2.0958,2.2761,2.464,2.4775,2.4828,2.4907,2.3525,0.0,0.0,0.0,0.0,0.0,0.0,0.0,0.0,0.0,0.0,0.0,0.0,0.0,0.0,0.0,0.0,0.0,0.0,0.0,0.0,0.0,0.0,0.0,0.0,0.0,0.0,0.0,1.0094,0.0,0.0,0.0,0.0,0.0,0.0,0.0,0.0,0.0,0.0,0.0,0.0,0.0,0.0,2.3437,2.3496,2.4023,2.4238,0.0,0.0,2.4277,2.3887,2.3789,2.3398,0.0,0.0,0.0,0.0,0.0,0.0,0.0,0.0,0.0,0.0,0.0,0.0,0.0,0.0,0.0,0.0,0.0,0.0,0.0,0.0,0.0,0.0,0.0,0.0,0.0,0.0,0.0,0.0,0.0,0.0,0.0,0.0,0.0,0.0,0.0,0.0,0.0,0.0,0.0,0.0,0.0,0.0,0.0,0.0,0.0,0.0,0.0,0.0,0.0,0.0,0.0,0.0,0.0,0.0,0.0,1.9268,2.0958,2.2696,2.4454,2.47,2.4509,2.3923,2.3189,2.1605,0.0,0.0,0.0,0.0,0.0,0.0,0.0,0.0,0.0,0.0,0.0,0.0,0.0,0.0,0.0,0.0,0.0,0.0,0.0,0.0,0.0,0.0,0.0,0.0,0.0,0.0,0.0,0.0,0.0,0.0,0.0,0.0,0.0,0.0,0.0,0.0,0.0,0.0,0.0,0.0,0.0,2.4316,2.4336,2.4355,2.4668,0.0,0.0,2.4668,2.541,2.5508,2.498,2.3379,0.0,0.0,0.0,0.0,0.0,0.0,0.0,0.0,0.0,0.0,0.0,0.0,0.0,0.0,0.0,0.0,0.0,0.0,0.0,0.0,0.0,0.0,0.0,0.0,0.0,0.0,0.0,0.0,0.0,0.0,0.0,0.0,0.0,0.0,0.0,0.0,0.0,0.0,0.0,0.0,0.0,0.0,0.0,0.0,0.0,0.0,0.0,0.0,0.0,0.0,0.0,0.0,0.0,1.6898,1.9271,2.1437,2.3177,2.4439,2.47,2.4718,2.4541,2.3419,2.1825,0.0,0.0,0.0,0.0,0.0,0.0,0.0,0.0,0.0,0.0,0.0,0.0,0.0,0.0,0.0,0.0,0.0,0.0,0.0,0.0,0.0,0.0,0.0,0.0,0.0,0.0,0.0,0.0,1.2181,1.2978,1.4224,0.0,0.0,0.0,0.0,0.0,0.0,0.0,0.0,0.0,0.0,2.459,2.5117,2.5195,0.0,0.0,2.541,2.5312,2.5644,2.4824,2.392,2.3236,2.2671,0.0,0.0,0.0,0.0,0.0,0.0,0.0,0.0,0.0,0.0,0.0,0.0,0.0,0.0,0.0,0.0,0.0,0.0,0.0,0.0,0.0,0.0,0.0,0.0,0.0,0.0,0.0,0.0,0.0,0.0,0.0,0.0,0.0,0.0,0.0,0.0,0.0,0.0,0.0,0.0,0.0,0.0,0.0,0.0,0.0,0.0,0.0,0.0,0.0,0.0,0.0,0.0,1.7124,1.9286,2.1749,2.3456,2.4392,2.467,2.4709,2.4525,2.3419,2.2006,0.0,0.0,0.0,0.0,0.0,0.0,0.0,0.0,0.0,0.0,0.0,0.0,0.0,0.0,0.0,0.0,0.0,0.0,0.0,0.0,0.0,0.0,0.0,0.0,0.0,0.0,0.0,0.0,1.3477,1.4163,1.4593,0.0,0.0,0.0,0.0,0.0,0.0,0.0,0.0,0.0,0.0,2.4687,2.5527,2.5703,2.5703,2.5703,2.5691,2.5668,2.5668,2.4661,2.3802,2.3505,0.0,0.0,0.0,0.0,0.0,0.0,0.0,0.0,0.0,0.0,0.0,0.0,0.0,0.0,0.0,0.0,0.0,0.0,0.0,0.0,0.0,0.0,0.0,0.0,0.0,0.0,0.0,0.8936,0.0,0.0,0.8953,0.0,0.0,0.0,0.0,0.0,0.0,0.0,0.0,0.0,0.0,0.0,0.0,0.0,0.0,0.0,0.0,0.0,0.0,0.0,0.0,0.0,0.0,1.7679,1.9308,2.1767,2.34,2.4172,2.4591,2.4393,2.362,2.3051,2.2023,2.0285,0.0,0.0,0.0,0.0,0.0,0.0,0.0,0.0,0.0,0.0,0.0,0.0,0.0,0.0,0.0,0.0,0.0,0.0,0.0,0.0,0.0,0.0,0.0,0.0,0.0,0.0,1.2738,1.3477,1.3712,0.0,0.0,0.0,0.0,0.0,0.0,0.0,0.0,0.0,0.0,2.3794,2.4629,2.5469,2.5664,2.5703,2.5703,2.5643,2.5611,2.5601,2.555,2.5254,0.0,0.0,0.0,0.0,0.0,0.0,0.0,0.0,0.0,0.0,0.0,0.0,0.0,0.0,0.0,0.0,0.0,0.0,0.0,0.0,0.0,0.0,0.0,0.0,0.0,0.0,0.0,1.1326,1.1147,0.0,0.0,0.0,0.0,0.0,0.0,0.0,0.0,0.0,0.0,0.0,1.8429,1.9166,0.0,0.0,0.0,0.0,0.0,0.0,0.0,0.0,0.0,0.0,0.0,0.0,1.85,2.0134,2.2556,2.3914,2.4209,2.4591,2.4672,2.4356,2.3348,2.1449,1.8597,0.0,0.0,0.0,0.0,0.0,0.0,0.0,0.0,0.0,0.0,0.0,0.0,0.0,0.0,0.0,0.0,0.0,0.0,0.0,0.0,0.0,0.0,0.0,0.0,0.0,1.3511,0.0,0.0,0.0,0.0,0.0,0.0,0.0,0.0,0.0,0.0,0.0,2.1929,2.3602,2.4598,2.527,2.5565,2.5664,2.5703,0.0,0.0,0.0,0.0,0.0,0.0,0.0,0.0,0.0,0.0,0.0,0.0,0.0,0.0,2.3381,2.0839,2.0118,2.0004,2.0275,0.0,0.0,0.0,0.0,0.0,0.0,0.0,0.0,0.0,0.0,0.0,0.0,0.0,0.0,1.2992,0.0,1.3075,0.0,0.0,0.0,0.0,0.0,0.0,0.0,0.0,1.983,2.0515,2.0207,2.0996,2.096,0.0,1.978,1.8299,0.0,0.0,0.0,0.0,0.0,0.0,0.0,0.0,1.9394,2.0558,2.2942,2.419,2.4209,2.451,2.4731,2.4766,2.3509,2.146,1.8636,1.72,1.5766,0.0,0.0,0.0,0.0,0.0,0.0,0.0,0.0,0.0,0.0,0.0,0.0,0.0,0.0,0.0,0.0,0.0,0.0,0.0,0.0,0.0,0.0,0.0,1.4415,0.0,0.0,0.0,0.0,0.0,0.0,0.0,0.0,0.0,2.0843,2.186,2.3052,2.4438,2.513,2.553,2.5562,0.0,0.0,0.0,0.0,0.0,0.0,0.0,2.462,2.462,2.4851,2.5014,2.4966,2.5698,2.5996,2.5168,0.0,0.0,2.2601,2.1833,2.1673,2.1885,2.2221,2.2475,2.2672,2.2603,2.2658,0.0,0.0,0.0,0.0,0.0,0.0,0.0,0.0,1.4308,1.4441,0.0,1.468,0.0,0.0,0.0,0.0,0.0,1.7841,0.0,0.0,2.264,2.3042,2.1969,2.2666,2.263,2.1932,2.2593,2.1843,1.9763,1.6888,0.0,0.0,0.0,0.0,0.0,0.0,2.0335,2.0668,2.2997,2.419,2.4209,2.4409,2.4588,2.4724,2.3537,2.2055,2.04,1.9454,1.7879,1.5459,1.5209,0.0,0.0,0.0,0.0,0.0,0.0,0.0,0.0,0.0,0.0,0.0,0.0,0.0,0.0,0.0,0.0,0.0,0.0,0.0,0.0,1.4316,0.0,0.0,0.0,0.0,0.0,0.0,0.0,0.0,0.0,0.0,2.1797,2.3103,2.4438,2.5264,0.0,0.0,0.0,0.0,2.5603,2.5608,2.5575,2.5525,2.5466,2.5486,2.5486,2.5505,0.0,0.0,2.664,2.7332,2.7582,2.6794,2.7274,2.7371,2.5726,2.4716,2.436,2.4817,2.435,2.4106,2.4615,2.4539,2.4617,1.6435,0.0,0.0,0.0,0.0,1.5912,1.6629,1.7947,1.7646,1.7563,1.7642,1.7642,0.0,0.0,0.0,0.0,0.0,0.0,2.0325,2.2006,2.2829,2.3307,2.3511,2.3749,2.3731,2.3492,2.3143,2.2574,2.1758,2.0536,1.8539,1.588,0.0,0.0,0.0,0.0,2.1406,2.2318,2.3547,2.4284,2.441,2.4607,2.459,2.4307,2.3937,2.2939,2.1207,2.0381,1.9304,1.7972,1.6176,0.0,0.0,0.0,0.0,0.0,0.0,0.0,0.0,0.0,0.0,0.0,0.0,0.0,0.0,0.0,0.0,0.0,0.0,0.0,1.4451,1.5066,1.563,0.0,0.0,0.0,0.0,0.0,0.0,0.0,0.0,0.0,2.3342,2.3803,2.4418,0.0,0.0,2.5495,2.5567,2.5632,2.5642,2.5599,2.6073,0.0,2.6351,2.6813,2.7178,2.7178,2.739,2.7544,2.7525,2.7727,2.7824,2.7563,2.7725,2.7662,2.7077,2.6708,2.639,2.6028,2.562,2.5225,2.4898,2.4712,2.4613,1.903,1.753,1.704,1.7272,1.7982,1.7915,1.8569,1.9677,1.9445,1.9502,1.979,1.9807,1.9384,1.8657,1.8733,0.0,0.0,0.0,2.174,2.3246,2.3399,2.3731,2.4171,2.419,2.419,2.4171,2.3694,2.3324,2.303,2.283,2.1457,1.8944,0.0,0.0,1.9811,2.1128,2.2205,2.2997,2.3861,2.4375,2.4495,2.4756,2.474,2.4483,2.4235,2.3592,2.2562,2.1397,2.0377,1.955,1.7715,1.6022,0.0,0.0,0.0,0.0,0.0,0.0,0.0,0.0,0.0,0.0,0.0,1.1713,0.0,0.0,0.0,0.0,1.2935,1.4429,1.6187,1.6681,0.0,0.0,0.0,0.0,0.0,0.0,0.0,2.2537,2.3391,2.4024,2.4505,2.4601,2.4812,2.5332,2.5428,2.5505,2.5582,0.0,2.6161,2.6131,2.6801,2.7292,2.7234,2.7591,2.7986,2.8343,2.8371,2.8525,2.8852,2.889,2.8901,2.8879,2.8809,2.8683,2.8526,2.8381,2.7859,2.6779,2.6443,2.616,2.5624,2.5169,2.4855,2.1085,2.0221,1.9115,1.8812,1.9113,1.9492,1.985,2.017,2.0187,2.0619,2.1288,2.1305,2.0899,2.0213,1.9809,0.0,2.2566,2.261,2.317,2.4151,2.4208,2.419,2.419,2.419,2.419,2.419,2.419,2.4036,2.3756,2.4036,2.3533,2.2278,2.1848,2.1586,2.1549,2.2291,2.2824,2.3088,2.4022,2.451,2.4543,2.4858,2.5022,2.5003,2.4434,2.4053,2.3956,2.2367,2.1136,2.0331,1.9473,1.7914,1.5541,0.0,0.0,0.0,0.0,0.0,0.0,0.0,0.0,0.0,0.0,0.0,0.0,0.0,0.0,0.0,1.4961,0.0,1.7849,1.8792,0.0,0.0,0.0,2.1074,2.2012,2.2684,2.3415,2.4214,0.0,0.0,2.5313,2.537,2.5409,2.5428,2.5428,2.5495,2.5677,2.6397,2.6928,2.6972,2.7692,2.8172,2.811,2.8168,2.8467,2.9083,2.9198,2.9467,3.014,3.0302,3.0359,3.0283,3.0161,2.9946,2.995,2.9548,2.8908,2.7381,2.7046,2.6876,2.6549,2.5901,2.5332,2.1082,2.0348,2.0685,2.0703,2.0557,2.0923,2.1383,2.1742,2.1769,2.187,2.204,2.2057,2.2051,2.2031,2.1729,2.2115,2.3038,2.3066,2.334,2.3816,2.4074,2.419,2.419,2.419,2.419,2.419,2.419,2.4152,2.4094,2.417,2.404,2.3704,2.3599,2.3121,2.2381,2.3066,2.3603,2.3914,2.43,2.462,2.4885,2.5118,2.5243,2.5224,2.4495,2.3784,2.312,2.2064,2.1131,2.0323,1.9465,1.8414,1.7157,1.5074,0.0,0.0,0.0,0.0,0.0,0.0,0.0,0.0,0.0,1.4135,1.287,0.0,1.413,0.0,1.6447,1.7786,1.878,1.9711,0.0,0.0,2.1953,2.2441,2.4512,2.4314,2.4307,2.509,2.5351,2.5428,2.539,2.5447,2.5505,2.5543,2.5543,2.5812,2.6559,2.6815,2.7205,2.7826,2.8526,2.8985,2.8972,2.9429,2.9833,3.0063,3.0083,3.0179,3.0359,3.0398,3.0398,3.0386,3.017,2.9967,2.9801,2.957,2.9219,2.8599,2.8021,2.7395,2.6741,2.597,2.5404,2.151,2.0942,2.1633,2.1664,2.1306,2.1735,2.2077,2.231,2.2327,2.2327,2.2327,2.2327,2.2388,2.2527,2.2493,2.2643,2.2979,2.327,2.3512,2.3714,2.4054,2.419,2.419,2.419,2.419,2.419,2.419,2.419,2.419,2.419,2.419,2.419,2.419,2.3912,2.3356,2.3719,2.4016,2.419,2.4478,2.4752,2.4998,2.5203,2.512,2.4774,2.4341,2.3688,2.2831,2.1985,2.1304,2.085,2.0042,1.9203,1.8337,1.6625,1.5276,0.0,0.0,0.0,0.0,0.0,0.0,0.0,0.0,0.0,0.0,0.0,1.5209,1.6444,1.8486,2.0065,2.0867,2.175,2.2812,2.4102,2.3867,2.4141,2.5547,2.5215,2.505,2.5503,2.5514,2.5485,2.5453,2.5513,2.5563,2.5611,2.5948,2.6401,2.6914,2.7324,2.7883,2.871,2.9427,2.9841,2.9743,3.0102,3.0398,3.0398,3.0398,3.0398,3.0398,3.0398,3.0367,3.0241,3.0019,2.981,2.9589,2.9375,2.9178,2.9007,2.8668,2.8209,2.775,2.6741,2.5991,2.2032,2.1631,2.2112,2.2013,2.1628,2.2106,2.2327,2.2327,2.2327,2.2327,2.2327,2.2327,2.2327,2.2321,2.2548,2.2626,2.2686,2.3283,2.3562,2.3606,2.3976,2.4151,2.4133,2.417,2.419,2.419,2.419,2.419,2.419,2.419,2.419,2.419,2.419,2.419,2.419,2.419,2.4209,2.4247,2.4626,2.4869,2.4979,2.5184,2.4966,2.4302,2.4044,2.3573,2.2812,2.1867,2.1328,2.1331,2.0677,1.9965,1.9261,1.8326,1.7495,0.0,1.5909,0.0,0.0,0.0,0.0,0.0,0.0,0.0,0.0,1.7006,1.6984,1.8379,2.0762,2.25,2.3203,2.4043,2.4863,2.5605,2.5703,2.5703,2.5703,2.5644,2.5605,2.5605,2.5561,2.5526,2.5531,2.5573,2.5616,2.5851,2.6464,2.707,2.7402,2.8027,2.8782,2.9649,3.0231,3.0466,3.037,3.0359,3.0398,3.0398,3.0398,3.0398,3.0398,3.0398,3.0311,3.0061,2.9855,2.9664,2.9451,2.92,2.8998,2.8998,2.8938,2.892,2.8755,2.7769,2.7037,2.2032,2.1628,2.2107,2.2045,2.1658,2.2106,2.2327,2.2327,2.2327,2.2327,2.2327,2.2327,2.2327,2.231,2.236,2.2371,2.2388,2.2723,2.2885,2.2923,2.3522,2.3795,2.3834,2.4074,2.419,2.419,2.419,2.419,2.419,2.419,2.419,2.419,2.419,2.419,2.419,0.0,0.0,0.0,2.4704,2.485,2.4998,2.5203,2.5226,2.5043,2.3755,0.0,2.2754,2.1331,2.0523,2.0523,2.0389,0.0,0.0,0.0,0.0,0.0,0.0,0.0,0.0,0.0,0.0,0.0,1.9342,1.9215,1.9088,2.0678,2.1559,2.125,2.2852,2.3984,2.416,2.4941,2.5527,2.5664,2.5703,2.5703,2.5703,2.5703,2.5664,2.5605,2.5644,2.5644,2.5584,2.562,2.5948,2.6586,2.6884,2.7586,2.8906,2.918,2.9668,3.0472,3.0602,3.0565,3.041,3.0398,3.0398,3.0398,3.0398,3.0398,3.0398,3.0398,3.0311,3.0047,2.9852,2.9638,2.9446,2.92,2.8975,2.8975,2.8975,2.8975,2.898,2.8246,2.7607,2.218,2.1969,2.2346,2.2373,0.0,2.2573,2.2764,2.2738,2.2581,2.25,2.2535,2.2928,2.3005,2.2835,2.2852,2.2937,2.31,2.3006,2.3038,2.3212,2.3714,2.3937,2.3937,2.4113,2.419,2.419,2.419,2.419,2.419,2.419,2.419,2.419,2.419,2.419,2.419,2.4303,2.441,2.4512,2.47,2.485,2.501,2.5184,2.512,2.4716,2.3899,0.0,0.0,0.0,0.0,0.0,0.0,0.0,0.0,0.0,0.0,2.0504,1.9698,1.9389,1.9838,2.0273,2.088,2.1731,2.2171,2.1898,2.0683,2.2559,2.3613,2.3203,2.4297,2.5039,2.5059,2.5449,2.5703,2.5703,2.5703,2.5703,2.5703,2.5703,2.5703,2.5644,2.5664,2.5676,2.5658,2.6091,2.6498,2.6981,2.7773,2.8574,2.9375,2.9608,2.9887,3.0613,3.0646,3.0525,3.0417,3.0398,3.0398,3.0398,3.0398,3.0398,3.0398,3.0398,3.0267,2.9946,2.9752,2.9591,2.9289,2.9089,2.8975,2.8975,2.8975,2.8975,2.8938,2.8356,2.7938,2.2434,2.2381,2.2663,2.2786,2.2822,2.3076,2.3324,2.3472,0.0,0.0,0.0,2.3613,2.3812,2.3704,2.371,2.3784,2.3884,2.3713,2.3616,2.361,2.4101,2.424,2.4113,2.417,2.419,2.419,2.419,2.419,2.419,2.419,2.419,2.419,2.419,2.419,2.4227,2.441,2.4528,2.4561,2.4746,2.491,2.4998,2.5203,2.4986,2.4341,2.4169,2.3765,2.3062,2.288,2.2476,2.1793,2.2502,2.2622,2.2006,2.2671,2.313,2.3184,2.3125,2.3125,2.3184,2.3338,2.3481,2.3613,2.4245,2.3991,2.245,2.3749,2.4629,2.4629,2.5293,2.5684,2.5703,2.5703,2.5703,2.5703,2.5703,2.5703,2.5703,2.5703,2.5703,2.5723,2.584,2.5937,2.5996,2.6699,2.7324,2.7598,2.8645,2.9682,2.9779,2.9855,3.0037,3.0494,3.053,3.0487,3.0398,3.0398,3.0398,3.0398,3.0398,3.0398,3.0398,3.0398,3.0215,2.978,2.969,2.9517,2.9108,2.8998,2.8975,2.8975,2.8975,2.8975,2.8943,2.8484,2.8264,2.2922,2.2643,2.2986,2.3147,2.3141,2.3189,2.3761,2.4559,2.3579,2.3512,2.4166,2.399,2.4267,2.4855,2.4849,2.4511,2.3978,2.4838,2.454,2.3353,2.4329,2.4426,2.3813,2.4056,2.419,2.419,2.419,2.419,2.419,2.419,2.419,2.419,2.419,2.419,2.4209,2.441,2.4575,2.476,2.4904,2.4986,2.4991,2.5203,2.5245,2.5111,2.4457,2.4053,2.3898,2.3266,2.2805,2.262,2.2912,2.2998,2.2851,2.3005,2.3103,2.3105,2.3164,2.3164,2.3164,2.3789,2.4549,2.5273,2.5467,2.5088,2.4187,2.4932,2.5527,2.5527,2.5625,2.5703,2.5703,2.5703,2.5703,2.5703,2.5703,2.5703,2.5703,2.5703,2.5703,2.5703,2.6387,2.6777,2.6816,2.7559,2.8379,2.9023,2.944,2.9838,3.031,3.0549,3.0513,3.0513,3.0491,3.0467,3.0417,3.0398,3.0398,3.0398,3.0398,3.0398,3.0398,3.0398,3.0228,2.9763,2.969,2.9513,2.909,2.8975,2.8975,2.8975,2.8975,2.8975,2.8975,2.8851,2.8828,2.3769,2.3661,2.3979,2.3869,2.3518,2.4122,2.4925,2.5758,2.5266,2.5149,2.5327,2.5582,2.5835,2.6033,2.6021,2.5932,2.5701,2.581,2.5342,2.4483,2.4917,2.4741,2.4051,2.4132,2.419,2.419,2.419,2.419,2.419,2.419,2.419,2.419,2.419,2.4266,2.4375,2.4578,2.4741,2.4885,2.4974,2.5046,2.5152,2.5264,2.5313,2.5313,2.4947,2.4793,2.4793,2.4486,2.4098,2.3631,2.4149,2.4254,2.3799,2.4217,2.4512,2.4512,2.4531,2.4531,2.4512,2.4883,2.5254,2.5664,2.5703,2.5543,2.5148,2.546,2.5703,2.5703,2.5703,2.5703,2.5703,2.5703,2.5703,2.5703,2.5703,2.5703,2.5703,2.5703,2.5703,2.5781,2.6465,2.6992,2.7012,2.8164,2.9101,2.959,2.9933,3.0385,3.0626,3.0626,3.0621,3.0506,3.0467,3.0436,3.0398,3.0398,3.0398,3.0398,3.0398,3.0398,3.0398,3.0398,3.0202,2.9801,2.969,2.9513,2.909,2.8975,2.8975,2.8975,2.8975,2.8975,2.8975,2.8975,2.8975,2.4847,2.4825,2.5147,2.4917,2.4436,2.5283,2.6117,2.6851,2.6848,2.6834,2.6812,2.7097,2.7179,2.7146,2.7165,2.716,2.7146,2.6881,2.6368,2.5713,2.5658,2.5237,2.4502,2.43,2.419,2.419,2.419,2.419,2.419,2.419,2.419,2.4209,2.4248,2.4355,2.4495,2.4746,2.4891,2.4998,2.5046,2.5141,2.5284,2.5313,2.5313,2.5313,2.539,2.5409,2.5425,2.5476,2.5208,2.4671,2.5227,2.5318,2.4745,2.5314,2.5703,2.5703,2.5703,2.5703,2.5703,2.5703,2.5703,2.5703,2.5703,2.5703,2.5703,2.5703,2.5703,2.5703,2.5703,2.5703,2.5703,2.5703,2.5703,2.5703,2.5703,2.5703,2.5703,2.5703,2.5703,2.5781,2.6465,2.7012,2.7285,2.8516,2.9609,2.998,3.0467,3.0742,3.0648,3.0602,3.0544,3.0487,3.0417,3.0398,3.0398,3.0398,3.0398,3.0398,3.0398,3.0398,3.0398,3.0398,3.0215,2.982,2.969,2.9494,2.9108,2.8975,2.8975,2.8975,2.8975,2.8975,2.8975,2.8975,2.8975,2.6222,2.5995,2.6304,2.6408,2.6313,2.6426,2.6943,2.764,2.7677,2.8117,2.8503,2.7677,2.7622,2.8209,2.8237,2.7861,2.7362,2.8283,2.7893,2.6576,2.6502,2.6043,2.5181,2.452,2.419,2.419,2.419,2.419,2.419,2.419,2.419,2.421,2.4375,2.4489,2.4559,2.4818,2.4998,2.4991,2.5192,2.5274,2.5303,2.5313,2.5332,2.539,2.539,2.5432,2.5504,2.5487,2.5479,2.5386,2.5503,2.557,2.5514,2.5636,2.5703,2.5703,2.5703,2.5703,2.5703,2.5703,2.5703,2.5703,2.5703,2.5703,2.5703,2.5703,2.5703,2.5703,2.5703,2.5703,2.5703,2.5703,2.5703,2.5723,2.5742,2.5703,2.5762,2.5703,2.5703,2.5703,2.666,2.7031,2.7383,2.8672,2.9883,3.0527,3.0644,3.0715,3.0617,3.0568,3.0506,3.0436,3.0398,3.0398,3.0398,3.0398,3.0398,3.0398,3.0398,3.0398,3.0398,3.0367,3.026,2.982,2.9671,2.949,2.9163,2.8975,2.8975,2.8975,2.8975,2.8975,2.8975,2.8975,2.8975,2.7236,2.71,2.7255,2.7299,2.7328,2.731,2.7769,2.8503,2.8521,2.8705,2.892,2.8474,2.8456,2.8727,2.8773,2.8555,2.832,2.8769,2.8113,2.6704,2.6612,2.5933,2.4722,2.4373,2.419,2.419,2.419,2.419,2.419,2.419,2.4247,2.4374,2.4467,2.4596,2.4785,2.4917,2.5046,2.5163,2.5264,2.5332,2.537,2.537,2.537,2.5409,2.5486,2.5524,2.5565,2.5599,2.5615,2.5633,2.5632,2.5658,2.5664,2.5694,2.5703,2.5703,2.5703,2.5703,2.5703,2.5703,2.5703,2.5703,2.5703,2.5703,2.5703,2.5703,2.5703,2.5703,2.5703,2.5703,2.5703,2.5703,2.5703,2.5762,2.6133,2.6465,2.6484,2.6934,2.7226,2.7305,2.7988,2.85,2.8688,2.9537,3.0326,3.0723,3.0723,3.0684,3.0609,3.0585,3.0518,3.0417,3.0398,3.0398,3.0398,3.0398,3.0398,3.0398,3.0398,3.0398,3.0417,3.0244,3.0056,2.9763,2.9634,2.9435,2.9072,2.9017,2.8975,2.8975,2.8975,2.8975,2.8975,2.8975,2.8975,2.8147,2.8136,2.8118,2.8123,2.8136,2.8136,2.8466,2.898,2.8975,2.8975,2.8975,2.8975,2.8975,2.8975,2.8975,2.8975,2.8975,2.8975,2.8388,2.7273,2.6833,2.5988,2.4887,2.4413,2.4284,2.4321,2.4579,2.4856,2.4986,2.4782,2.4783,2.4893,2.4965,2.4981,2.4979,2.5046,2.5152,2.5274,2.5313,2.5332,2.5399,2.5416,2.5416,2.5457,2.5543,2.5609,2.5633,2.5657,2.5685,2.5693,2.5691,2.5689,2.5703,2.5703,2.5703,2.5703,2.5703,2.5703,2.5703,2.5703,2.5703,2.5703,2.5703,2.5703,2.5703,2.5703,2.5684,2.5684,2.5673,2.5684,2.5703,2.5902,2.6032,2.6094,2.6797,2.7305,2.7363,2.7949,2.8203,2.8359,2.8633,2.9338,2.9573,2.996,3.0288,3.0605,3.0664,3.0642,3.058,3.0575,3.0525,3.0417,3.0398,3.0398,3.0398,3.0398,3.0398,3.0398,3.0398,3.0463,3.0496,3.033,3.0103,3.0019,2.9662,2.9343,2.9072,2.9017,2.8975,2.8975,2.8975,2.8975,2.8975,2.8975,2.8975,2.8938,2.892,2.892,2.8902,2.892,2.8925,2.892,2.8975,2.8975,2.8975,2.8975,2.8975,2.8975,2.8975,2.8975,2.8975,2.8975,2.8975,2.8888,2.8562,2.7331,2.6576,2.6413,2.5153,2.4532,2.4661,2.5386,2.6177,2.6943,2.6282,2.5929,2.5937,2.6051,2.5779,2.521,2.5212,2.5284,2.5284,2.5313,2.5332,2.5418,2.5473,2.5524,2.5592,2.5601,2.5622,2.5684,2.5644,2.5644,2.5703,2.5651,2.5628,2.5703,2.5703,2.5703,2.5703,2.5703,2.5703,2.5684,2.5684,2.5684,2.5703,2.5684,2.5703,2.5684,2.5684,2.5644,2.5605,2.5672,2.5725,2.5837,2.6365,2.6779,2.6901,2.7578,2.8027,2.8144,2.832,2.8242,2.8379,2.8604,2.9004,2.9494,2.9394,2.9879,3.0385,3.0595,3.0589,3.0537,3.0513,3.0475,3.0436,3.0398,3.0398,3.0398,3.0398,3.0398,3.0398,3.0444,3.0522,3.0669,3.0706,3.0473,3.0171,2.9675,2.9301,2.9072,2.8975,2.8975,2.8975,2.8975,2.8975,2.8975,2.8975,2.8975,2.8975,2.8975,2.8975,2.8975,2.8975,2.8975,2.8975,2.8975,2.8975,2.8975,2.8975,2.8975,2.8975,2.8975,2.8975,2.8975,2.8975,2.8975,2.8795,2.8394,2.7822,2.7102,2.6202,2.5665,2.5452,2.5543,2.5831,2.6461,2.7195,2.6973,2.6887,2.6915,2.6527,2.6187,2.5973,2.5533,2.5313,2.5313,2.5332,2.5409,2.5476,2.5539,2.5616,2.5649,2.5651,2.5679,2.5703,2.5684,2.5664,2.5703,2.5664,2.5698,2.5703,2.5703,2.5703,2.5703,2.5703,2.567,2.5634,2.5642,2.5644,2.5644,2.5598,2.5589,2.5621,2.5604,2.5554,2.5609,2.6091,2.6359,2.6444,2.6695,2.7055,2.764,2.8369,2.8876,2.9016,2.9373,2.9745,2.9757,2.9765,2.989,2.9971,3.009,3.0186,3.0448,3.0548,3.0528,3.0505,3.049,3.0487,3.0417,3.0398,3.0398,3.0398,3.0398,3.0398,3.0398,3.0405,3.035,3.0404,3.0203,2.9982,2.9904,2.9492,2.9297,2.9085,2.9053,2.903,2.9255,2.9237,2.92,2.8975,2.9333,2.9237,2.8975,2.8975,2.8975,2.8975,2.8975,2.8975,2.8975,2.8975,2.8975,2.8975,2.8975,2.8975,2.8975,2.8975,2.8975,2.9062,2.9134,2.9115,2.891,2.8518,2.8316,2.7711,2.6918,2.6597,2.6531,2.6546,2.6588,2.7181,2.8146,2.7994,2.7967,2.8032,2.7253,2.6746,2.6505,2.5736,2.5313,2.5313,2.5351,2.5418,2.55,2.5562,2.5646,2.5674,2.5703,2.5703,2.5703,2.5703,2.5703,2.5703,2.5703,2.5703,2.5703,2.5703,2.5699,2.5671,2.5664,2.5643,2.5568,2.5561,2.5566,2.5566,2.5543,2.5524,2.5563,2.5519,2.5486,2.5653,2.6243,2.683,2.715,2.7381,2.7795,2.8445,2.9171,2.9644,2.9713,3.0198,3.049,3.0496,3.0463,3.0501,3.0513,3.0467,3.0467,3.0487,3.0487,3.0467,3.0467,3.0467,3.0609,3.0782,3.0859,3.1071,3.1174,3.1175,3.065,3.0528,3.0247,3.0161,3.0106,2.9847,2.9643,2.9553,2.9418,2.9265,2.9177,2.9104,2.9292,2.9567,2.9677,2.9696,2.9738,2.9913,2.9779,2.8975,2.8975,2.8975,2.8975,2.8975,2.8975,2.8975,2.8975,2.8975,2.9017,2.9044,2.9021,2.9067,2.9044,2.9071,2.9178,2.9353,2.9414,2.9397,2.9288,2.8834,2.8537,2.832,2.7818,2.7599,2.7599,2.7842,2.8752,2.9997,2.9425,2.9071,2.8948,2.8283,2.7544,2.6717,2.5967,2.538,2.5418,2.5447,2.5421,2.5496,2.5642,2.5738,2.5723,2.5762,2.5781,2.5703,2.5684,2.5684,2.5703,2.5684,2.5684,2.5684,2.5684,2.5668,2.5604,2.5591,2.558,2.5498,2.5492,2.5511,2.5502,2.5505,2.5524,2.5669,2.5544,2.5524,2.5851,2.6361,2.7072,2.7871,2.8566,2.9047,2.924,2.9867,3.0263,3.0379,3.0467,3.0506,3.056,3.0532,3.0498,3.0487,3.0448,3.0398,3.0417,3.0417,3.0506,3.0602,3.0641,3.0859,3.1443,3.1693,3.1821,3.1981,3.2043,3.127,3.0637,3.0228,2.9996,3.0042,2.9889,2.964,2.949,2.9259,2.914,2.9622,2.9622,2.9916,3.0136,3.0191,3.0235,3.0369,3.0467,3.041,2.8975,2.8975,2.8975,2.8975,2.8975,2.8975,2.8975,2.8975,2.8975,2.9089,2.9246,2.9267,2.9334,2.9437,2.9476,2.9533,2.9607,2.9729,2.9813,2.9756,2.9608,2.9275,2.8945,2.872,2.8622,2.8737,2.9329,2.9852,3.0256,3.0121,2.9987,2.9852,2.9118,2.8618,2.8179,2.6967,2.6197,2.614,2.5697,2.5487,2.5566,2.6217,2.6289,2.582,2.6269,2.6328,2.5684,2.5648,2.5641,2.5628,2.56,2.5561,2.5561,2.5561,2.555,2.5525,2.553,2.5505,2.5434,2.5427,2.5428,2.5428,2.5409,2.5707,2.613,2.5745,2.5967,2.6832,2.7409,2.7852,2.8659,2.9506,2.9936,3.0002,3.0263,3.0398,3.0417,3.0417,3.0417,3.0448,3.0448,3.0417,3.0417,3.0398,3.0398,3.0456,3.0456,3.0621,3.1133,3.1275,3.1621,3.234,3.2455,3.2589,3.2723,3.2638,3.2041,3.1324,3.0739,3.0313,3.0264,3.0149,2.9837,2.9536,2.9306,2.9365,2.9824,3.0044,3.0228,3.0571,3.0638,3.0757,3.0911,3.0974,3.0943,2.8975,2.8975,2.8975,2.8975,2.8975,2.8975,2.8975,2.9017,2.9112,2.9265,2.9373,2.9474,2.9551,2.9678,2.9696,2.9748,2.9813,2.9954,3.0061,3.0136,3.015,2.9928,2.9621,2.9583,2.9583,2.966,3.014,3.0398,3.0398,3.0398,3.0398,3.0244,2.9529,2.9098,2.8948,2.7486,2.6621,2.6553,2.6207,2.6002,2.621,2.6971,2.707,2.6406,2.6699,2.6484,2.5699,2.5577,2.5543,2.5553,2.5519,2.5518,2.5518,2.5506,2.5479,2.5459,2.5451,2.5428,2.537,2.537,2.537,2.539,2.563,2.6014,2.6514,2.6226,2.6909,2.7659,2.8159,2.8544,2.9102,2.9871,3.034,3.0379,3.0379,3.0398,3.0398,3.0398,3.0398,3.0398,3.0398,3.0398,3.0398,3.0398,3.0552,3.0744,3.0898,3.1191,3.1857,3.2134,3.2622,3.3083,3.334,3.3451,3.3478,3.3213,3.2768,3.2109,3.1429,3.1069,3.0856,3.0714,3.0469,3.013,2.9855,2.9861,3.0228,2.9989,3.0026,3.0473,3.1206,3.1401,3.1618,3.1649,3.1552,2.9017,2.9035,2.9017,2.8975,2.8975,2.8975,2.8975,2.9021,2.9225,2.9351,2.9433,2.9589,2.9713,2.9731,2.9799,2.9912,2.9999,3.0028,3.0163,3.0311,3.0367,3.0302,3.0244,3.0237,3.0237,3.0302,3.0359,3.0398,3.0398,3.0398,3.0398,3.0321,2.9713,2.9233,2.9044,2.7582,2.7014,2.7101,2.6949,2.6901,2.7025,2.7888,2.7871,2.7026,2.7,2.662,2.5725,2.5476,2.5428,2.5486,2.5476,2.5466,2.5486,2.5486,2.5438,2.5399,2.539,2.537,2.5313,2.5486,2.5486,2.5591,2.6235,2.6705,2.6986,2.739,2.7775,2.8255,2.8717,2.9083,2.9352,2.9929,3.0359,3.0398,3.0398,3.0398,3.0398,3.0398,3.0398,3.0398,3.0398,3.0398,3.0398,3.0398,3.0782,3.1352,3.1602,3.1941,3.2716,3.3089,3.3417,3.3788,3.4178,3.4133,3.4143,3.3733,3.3329,3.2926,3.2273,3.1861,3.137,3.1154,3.1043,3.0693,3.0436,3.0479,3.0552,3.043,3.0786,3.1638,3.2094,3.2222,3.2139,3.1991,3.1759,2.9127,2.926,2.909,2.8975,2.8975,2.8975,2.8975,2.9017,2.9067,2.9267,2.9414,2.9607,2.9815,2.9939,3.0128,3.026,3.0267,3.0279,3.0311,3.0379,3.0398,3.0398,3.0398,3.0398,3.0398,3.0398,3.0398,3.0398,3.0398,3.0398,3.0417,3.0487,3.0221,3.0113,3.0006,2.9083,2.8717,2.8576,2.8077,2.7827,2.8006,2.8769,2.8494,2.7205,2.7535,2.7017,2.5726,2.539,2.5332,2.5351,2.5351,2.5351,2.5351,2.537,2.537,2.5351,2.537,2.5351,2.5447,2.5919,2.6207,2.6332,2.7052,2.7813,2.839,2.8082,2.8563,2.9236,2.9467,2.9371,2.991,3.0244,3.0379,3.0398,3.0398,3.0398,3.0398,3.0398,3.0398,3.0398,3.0398,3.0398,3.0475,3.0513,3.084,3.1583,3.1968,3.2333,3.3416,3.384,3.4087,3.4654,3.4975,3.484,3.4643,3.4247,3.3906,3.3654,3.3165,3.2656,3.2023,3.1427,3.1354,3.1224,3.0992,3.0962,3.1239,3.1362,3.2109,3.2397,3.2112,3.1859,3.1894,3.1794,3.162,2.9388,2.9516,2.9259,2.9159,2.9156,2.9062,2.8975,2.9044,2.9228,2.9375,2.957,2.9867,3.0066,3.0196,3.0343,3.0398,3.0398,3.0398,3.0398,3.0398,3.0398,3.0398,3.0398,3.0398,3.0398,3.0398,3.0398,3.0417,3.0436,3.0448,3.0487,3.0524,3.0543,3.0556,3.05,2.9815,2.9448,2.9338,2.8984,2.8741,2.8855,2.9672,2.9379,2.8307,2.8198,2.7307,2.5688,2.5332,2.5313,2.5313,2.5313,2.5313,2.5313,2.5313,2.5313,2.5313,2.562,2.5841,2.6005,2.6641,2.7094,2.7285,2.7918,2.8533,2.8967,2.8929,2.9544,3.0083,2.9871,2.9948,3.0237,3.0398,3.0398,3.0398,3.0398,3.0398,3.0398,3.0398,3.0398,3.0398,3.0398,3.0583,3.0871,3.0929,3.1564,3.241,3.291,3.3596,3.4443,3.4548,3.4661,3.5062,3.5108,3.4794,3.4578,3.4244,3.4017,3.3802,3.3668,3.322,3.2779,3.2063,3.2129,3.2093,3.1715,3.1543,3.1853,3.1955,3.1827,3.1875,3.16,3.1515,3.1601,3.1614,3.1428,2.9712,2.9729,2.9504,2.9437,2.9412,2.9181,2.9138,2.9163,2.9476,2.9661,2.9765,3.0142,3.0254,3.0355,3.0355,3.0398,3.0398,3.0398,3.0398,3.0398,3.0398,3.0398,3.0398,3.0398,3.0398,3.0417,3.0398,3.0448,3.0487,3.0506,3.0544,3.0588,3.0598,3.0623,3.057,2.9961,2.964,2.9745,2.973,2.9677,2.9805,3.0351,3.0181,2.9343,2.843,2.7447,2.6198,2.5707,2.5726,2.562,2.5399,2.5303,2.5313,2.5332,2.5486,2.5678,2.6274,2.6736,2.6851,2.7527,2.8038,2.8161,2.8772,2.9221,2.9429,2.9813,3.0206,3.0359,3.0398,3.0321,3.0359,3.0398,3.0398,3.0398,3.0398,3.0398,3.0398,3.0398,3.0398,3.0398,3.0398,3.0814,3.1391,3.1852,3.2256,3.3256,3.368,3.416,3.4735,3.4917,3.4959,3.5049,3.4894,3.4551,3.4357,3.4157,3.3981,3.3805,3.3797,3.3587,3.3495,3.3109,3.322,3.3109,3.2651,3.2426,3.2502,3.2361,3.1936,3.1653,3.1551,3.1436,3.1334,3.1376,3.1261,2.9782,2.9908,2.9713,2.9649,2.9624,2.9551,2.9533,2.9551,2.9661,2.9731,2.9763,2.9988,3.0109,3.0122,3.0311,3.0398,3.0398,3.0398,3.0398,3.0398,3.0398,3.0398,3.0398,3.0398,3.0448,3.0467,3.0487,3.0525,3.0564,3.0583,3.0614,3.0655,3.0685,3.0723,3.0742,3.0605,3.0566,3.0586,3.0566,3.0536,3.0527,3.0684,3.0467,2.9594,2.8656,2.7962,2.7517,2.7351,2.7351,2.7024,2.6159,2.5524,2.5601,2.6024,2.6294,2.6505,2.7121,2.7621,2.7766,2.8335,2.8827,2.894,2.9525,3.0129,3.011,3.0225,3.0398,3.0398,3.0398,3.0398,3.0398,3.0398,3.0398,3.0398,3.0398,3.0398,3.0398,3.0398,3.0398,3.0398,3.0456,3.0737,3.1583,3.184,3.259,3.3853,3.4397,3.4661,3.4885,3.5127,3.5039,3.4904,3.4596,3.426,3.4213,3.4043,3.3935,3.3842,3.3834,3.3807,3.3733,3.3625,3.3524,3.3551,3.3568,3.3351,3.2974,3.2558,3.2077,3.1795,3.1504,3.1342,3.1252,3.119,3.119,3.0079,3.0155,2.9925,2.9844,2.9826,2.9748,2.9696,2.9712,2.9796,2.9845,2.9893,3.0095,3.0196,3.0196,3.0343,3.0398,3.0398,3.0398,3.0398,3.0398,3.0398,3.0417,3.0448,3.0448,3.0487,3.0518,3.054,3.0578,3.0637,3.0667,3.0714,3.0776,3.0781,3.082,3.0898,3.0918,3.0879,3.0879,3.0918,3.0911,3.0896,3.0812,3.0347,2.9574,2.8869,2.8431,2.7909,2.786,2.7871,2.7678,2.7044,2.6524,2.6563,2.6948,2.7178,2.7351,2.7986,2.8429,2.8651,2.919,2.9709,2.9679,3.0179,3.0302,3.0398,3.0398,3.0398,3.0398,3.0398,3.0398,3.0398,3.0398,3.0398,3.0398,3.0379,3.0398,3.0398,3.0398,3.0398,3.0494,3.0794,3.1429,3.1936,3.2242,3.3101,3.445,3.4478,3.4704,3.4623,3.4786,3.4658,3.4464,3.4222,3.403,3.4005,3.3928,3.3868,3.3834,3.3807,3.3807,3.377,3.3662,3.3532,3.357,3.3579,3.3439,3.3051,3.2631,3.2179,3.1845,3.1534,3.1334,3.119,3.119,3.119,3.0398,3.0379,3.0148,3.0062,3.0042,2.9896,2.9832,2.9829,2.9988,3.0061,3.0089,3.0311,3.0355,3.0398,3.0379,3.0398,3.0398,3.0398,3.0398,3.0417,3.0417,3.0467,3.0506,3.0525,3.0544,3.054,3.0588,3.0655,3.0722,3.0743,3.0794,3.0879,3.0898,3.0898,3.0918,3.0918,3.0918,3.0918,3.0918,3.0872,3.0869,3.0758,3.0254,2.9704,2.9462,2.9143,2.8679,2.8494,2.8387,2.8275,2.8275,2.8275,2.8236,2.8102,2.8082,2.8102,2.8832,2.9214,2.9306,2.9809,3.0225,3.0302,3.0267,3.0273,3.026,3.0228,3.0215,3.0228,3.0228,3.0228,3.0286,3.0247,3.0248,3.0271,3.0283,3.0321,3.0348,3.0412,3.0592,3.0663,3.1059,3.1678,3.2526,3.3118,3.4058,3.4751,3.4699,3.4659,3.4566,3.4472,3.4363,3.4264,3.4057,3.3939,3.3895,3.3895,3.3834,3.3807,3.3807,3.378,3.3753,3.355,3.3419,3.3419,3.339,3.3166,3.284,3.2332,3.1968,3.1752,3.1528,3.1252,3.119,3.119,3.119,3.0398,3.0398,3.0359,3.0348,3.0323,3.0286,3.026,3.0286,3.0299,3.0323,3.0323,3.0367,3.0398,3.0398,3.0398,3.0398,3.0398,3.0398,3.0436,3.0467,3.0479,3.0521,3.0583,3.0621,3.066,3.0671,3.0685,3.0741,3.0837,3.087,3.0859,3.0898,3.0918,3.0918,3.0918,3.0918,3.0879,3.0879,3.0876,3.082,3.076,3.0691,3.0564,3.016,3.0113,3.0006,2.9948,2.9917,2.9994,2.9987,2.9987,2.9917,2.9656,2.9187,2.8937,2.9063,2.956,2.9896,2.9844,2.9928,2.9971,2.9864,2.987,2.9851,2.9853,2.9867,2.9896,2.988,2.9864,2.9848,2.9796,2.988,2.9832,2.9851,2.9965,3.01,3.0241,3.0624,3.1132,3.1267,3.1527,3.1867,3.2775,3.3486,3.4036,3.4469,3.4515,3.4508,3.448,3.4358,3.4221,3.4102,3.4007,3.3889,3.3834,3.3834,3.3807,3.3762,3.3762,3.3707,3.3606,3.339,3.3255,3.3057,3.2872,3.2583,3.2248,3.1933,3.1714,3.1487,3.1312,3.119,3.119,3.119,3.119,3.0398,3.0398,3.0398,3.0398,3.0398,3.0398,3.0398,3.0398,3.0398,3.0398,3.0398,3.0398,3.0398,3.0398,3.0398,3.0398,3.0448,3.0448,3.0487,3.0537,3.054,3.0588,3.0637,3.0691,3.0756,3.0799,3.0828,3.0821,3.0879,3.0898,3.0918,3.0918,3.0918,3.0918,3.0898,3.082,3.0798,3.0782,3.0762,3.0722,3.0646,3.0614,3.0544,3.0487,3.0448,3.0436,3.0398,3.0398,3.0379,3.0359,3.0379,3.0323,3.0107,2.9883,2.9602,2.9747,3.0037,3.015,2.998,2.9913,2.9798,2.9715,2.97,2.9695,2.9698,2.972,2.9661,2.9696,2.9696,2.9696,2.9695,2.966,2.9702,2.9715,2.9832,3.0064,3.0424,3.0845,3.1393,3.1959,3.2411,3.2751,3.3072,3.3652,3.3998,3.4192,3.4311,3.4325,3.4302,3.4203,3.406,3.4002,3.3925,3.3862,3.3807,3.3807,3.3753,3.3707,3.3634,3.3578,3.3277,3.2991,3.266,3.2364,3.2161,3.2056,3.1914,3.1714,3.1466,3.1269,3.123,3.119,3.119,3.119,3.119,3.0398,3.0398,3.0398,3.0398,3.0398,3.0398,3.0398,3.0398,3.0398,3.0398,3.0398,3.0398,3.0398,3.0398,3.0417,3.0467,3.0518,3.0518,3.0559,3.0598,3.0607,3.0653,3.0731,3.0739,3.0772,3.0804,3.0839,3.0871,3.0898,3.0918,3.0918,3.0898,3.0898,3.0859,3.082,3.0749,3.0692,3.0662,3.0645,3.0605,3.0568,3.052,3.0448,3.0398,3.0398,3.0398,3.0398,3.0299,3.0279,3.026,3.0241,3.0155,2.9984,2.9939,3.0032,3.0188,3.0047,2.9954,2.9826,2.9737,2.96,2.9476,2.9527,2.9535,2.9521,2.9465,2.9514,2.9551,2.9533,2.9514,2.9494,2.9514,2.9514,2.9608,2.9777,3.0114,3.0673,3.1264,3.1989,3.2574,3.3203,3.3462,3.3568,3.3631,3.3937,3.3969,3.4062,3.4055,3.403,3.3998,3.3887,3.386,3.3825,3.3825,3.3807,3.3807,3.368,3.3522,3.3408,3.3302,3.288,3.2444,3.216,3.1951,3.1752,3.164,3.1545,3.1507,3.1312,3.123,3.119,3.119,3.119,3.119,3.119,3.0398,3.0398,3.0398,3.0398,3.0398,3.0398,3.0398,3.0398,3.0398,3.0398,3.0398,3.0398,3.0398,3.0417,3.0487,3.0525,3.0559,3.0592,3.0637,3.0694,3.0714,3.0742,3.0846,3.0868,3.0774,3.0758,3.0723,3.0794,3.084,3.0879,3.0898,3.0859,3.0775,3.0733,3.072,3.0671,3.0621,3.0601,3.0609,3.0554,3.0497,3.0452,3.041,3.0398,3.0398,3.0398,3.0362,3.0228,3.0095,3.0047,2.9896,2.9799,2.9729,2.9748,2.9748,2.9765,2.9731,2.9661,2.9551,2.9476,2.9363,2.9212,2.9136,2.909,2.9136,2.9159,2.9163,2.9071,2.9115,2.9097,2.9119,2.9093,2.9089,2.9381,2.9728,3.0198,3.0751,3.17,3.244,3.2932,3.3454,3.363,3.3751,3.3792,3.3823,3.3823,3.3815,3.3788,3.3807,3.3807,3.3807,3.3807,3.3807,3.3807,3.3707,3.3734,3.3569,3.3379,3.3075,3.2921,3.2515,3.2091,3.1917,3.1718,3.1473,3.1334,3.1351,3.1291,3.123,3.119,3.119,3.119,3.119,3.119,3.119,3.0398,3.0398,3.0398,3.0398,3.0398,3.0398,3.0398,3.0398,3.0398,3.0398,3.0398,3.0448,3.0487,3.0506,3.0544,3.0602,3.0636,3.0661,3.0723,3.0801,3.0804,3.0798,3.0769,3.0781,3.0717,3.0671,3.0644,3.0674,3.073,3.0739,3.0742,3.0728,3.0685,3.0656,3.0625,3.0568,3.0528,3.0529,3.0525,3.0467,3.0436,3.0398,3.0398,3.0398,3.0398,3.0398,3.0324,3.0148,3.0018,2.9962,2.9813,2.9625,2.9551,2.9513,2.9494,2.9314,2.9314,2.9332,2.9373,2.926,2.9129,2.9056,2.8975,2.9017,2.8975,2.8975,2.8975,2.8998,2.8998,2.8887,2.8725,2.8658,2.8536,2.879,2.9562,3.0271,3.0932,3.1997,3.279,3.3254,3.3592,3.3606,3.3625,3.3634,3.3662,3.3716,3.3698,3.3698,3.3762,3.3807,3.3807,3.3807,3.3807,3.3807,3.368,3.3606,3.339,3.3105,3.2466,3.2316,3.2109,3.1808,3.1625,3.1493,3.1334,3.1213,3.119,3.119,3.119,3.119,3.119,3.119,3.119,3.119,3.119,3.0398,3.0398,3.0398,3.0398,3.0398,3.0398,3.0398,3.0398,3.0417,3.0417,3.0452,3.0497,3.0565,3.0633,3.0625,3.0664,3.0754,3.0738,3.0801,3.0859,3.0855,3.0769,3.0732,3.0692,3.0636,3.0579,3.0576,3.0571,3.0557,3.0558,3.0579,3.0598,3.0579,3.0578,3.0563,3.051,3.0479,3.0467,3.0436,3.0398,3.0398,3.0398,3.0398,3.0398,3.0398,3.0398,3.0349,3.0076,2.9926,2.9867,2.9606,2.9397,2.933,2.927,2.9225,2.9112,2.9071,2.9134,2.9178,2.9119,2.9021,2.8975,2.8975,2.8975,2.8975,2.8975,2.8975,2.8975,2.8839,2.8682,2.8471,2.8368,2.8368,2.8685,2.9271,3.0069,3.0938,3.1986,3.2654,3.2882,3.311,3.3252,3.3284,3.3372,3.3447,3.3578,3.3588,3.3552,3.3561,3.3579,3.3616,3.357,3.3734,3.3707,3.3494,3.3361,3.3184,3.2809,3.2196,3.1806,3.1677,3.1545,3.1372,3.1252,3.1112,3.119,3.119,3.119,3.119,3.119,3.119,3.119,3.119,3.1173,3.1151,3.0398,3.0398,3.0398,3.0398,3.0398,3.0398,3.0398,3.0417,3.0467,3.0506,3.0502,3.0565,3.0635,3.0693,3.0704,3.0768,3.0874,3.0879,3.0879,3.084,3.0775,3.0714,3.066,3.0614,3.0568,3.0505,3.0506,3.0467,3.0429,3.0455,3.0497,3.0579,3.0528,3.0513,3.0506,3.0467,3.0417,3.0417,3.0398,3.0398,3.0398,3.0398,3.0398,3.0398,3.0398,3.0398,3.0367,2.9984,2.9735,2.9695,2.9357,2.9141,2.9112,2.9089,2.9044,2.9021,2.8975,2.9021,2.9044,2.9044,2.8998,2.8975,2.8975,2.8975,2.8975,2.8975,2.8975,2.8975,2.8815,2.8587,2.8396,2.8237,2.8405,2.8849,2.9458,3.0237,3.1083,3.1915,3.2515,3.2583,3.2713,3.2872,3.2809,3.2854,3.2996,3.3118,3.3069,3.3003,3.302,3.306,3.3174,3.3267,3.3561,3.3514,3.3273,3.3045,3.2695,3.2366,3.1897,3.1582,3.1368,3.123,3.0999,3.0952,3.0871,3.1032,3.1055,3.0781,3.074,3.1055,3.119,3.119,3.1083,3.1033,3.1044,3.0525,3.0525,3.0525,3.0506,3.0467,3.0525,3.0525,3.0525,3.0544,3.0583,3.0625,3.0645,3.0719,3.0801,3.082,3.0843,3.0898,3.0918,3.0859,3.0788,3.0721,3.0652,3.0621,3.0564,3.0487,3.0456,3.0436,3.0436,3.0398,3.0355,3.0398,3.0467,3.0436,3.0448,3.0429,3.0417,3.0398,3.0398,3.0398,3.0398,3.0398,3.0398,3.0398,3.0398,3.0398,3.0299,3.0136,2.9845,2.9661,2.9474,2.9181,2.9044,2.8975,2.8975,2.8975,2.8975,2.8975,2.8975,2.8975,2.8975,2.8975,2.8975,2.8975,2.8975,2.8975,2.8975,2.8975,2.8929,2.8894,2.8782,2.8734,2.8681,2.8776,2.918,2.9737,3.0472,3.1133,3.188,3.2249,3.2283,3.2435,3.2583,3.2451,3.2264,3.2466,3.2648,3.2548,3.2479,3.2499,3.2563,3.2684,3.2816,3.3082,3.3069,3.284,3.2533,3.2213,3.1915,3.1585,3.1359,3.1089,3.0718,3.0555,3.0533,3.0417,3.029,3.0189,3.0097,3.0293,3.0699,3.1015,3.119,3.1067,3.0853,3.079,3.0609,3.0616,3.0617,3.0601,3.0549,3.0578,3.0617,3.0616,3.0617,3.0675,3.0757,3.0762,3.0798,3.0898,3.0918,3.0898,3.0879,3.0859,3.0781,3.0733,3.0664,3.0602,3.0525,3.0487,3.0436,3.0398,3.0299,3.0267,3.0254,3.0215,3.0216,3.0253,3.0292,3.0311,3.0398,3.0398,3.0398,3.0398,3.0398,3.0398,3.0398,3.0398,3.0398,3.0359,3.0321,3.0177,2.9988,2.9753,2.955,2.939,2.9178,2.9021,2.8975,2.8975,2.8975,2.8975,2.8975,2.8975,2.8975,2.8975,2.8975,2.8975,2.8975,2.8975,2.8975,2.8975,2.8975,2.9012,2.9064,2.9137,2.9095,2.9022,2.9214,2.9608,2.9851,3.0468,3.0974,3.1589,3.1797,3.1965,3.2073,3.2021,3.195,3.175,3.1789,3.1933,3.1914,3.1878,3.1933,3.2055,3.2244,3.2389,3.2537,3.2453,3.2316,3.2092,3.1915,3.164,3.1355,3.1121,3.0842,3.0415,3.0096,3.0,2.981,2.9462,2.9489,2.9694,3.0011,3.0393,3.0559,3.0559,3.0677,3.0439,3.0325,3.0617,3.0607,3.0675,3.0675,3.06,3.06,3.0619,3.0639,3.0694,3.0761,3.0879,3.0879,3.0879,3.0918,3.0918,3.0898,3.0859,3.0777,3.0717,3.0664,3.0583,3.0525,3.0487,3.0448,3.0417,3.0323,3.0209,3.0075,3.0047,2.9927,2.9908,3.001,3.0068,3.019,3.0379,3.0398,3.0398,3.0398,3.0398,3.0398,3.0398,3.0398,3.0398,3.0285,3.0175,3.0043,2.9845,2.9623,2.9434,2.9304,2.9112,2.9017,2.8975,2.8975,2.8975,2.8975,2.8975,2.8975,2.8952,2.8975,2.8957,2.8975,2.8975,2.8975,2.8975,2.8975,2.8975,2.9012,2.9338,2.9377,2.9337,2.9411,2.9798,3.0052,3.0338,3.0537,3.1031,3.128,3.1517,3.1651,3.1423,3.1252,3.1269,3.123,3.1196,3.1235,3.1213,3.1252,3.1312,3.1269,3.1392,3.1547,3.1647,3.1787,3.1699,3.1735,3.1585,3.1351,3.1061,3.0767,3.0423,3.0028,2.9734,2.9496,2.9343,2.9128,2.925,2.9412,2.9678,2.9854,2.971,2.9756,2.9903,2.9947,2.9815,3.0804,3.0787,3.0828,3.0821,3.0798,3.0802,3.0801,3.0804,3.0824,3.0859,3.0898,3.0918,3.0918,3.0918,3.0898,3.0869,3.077,3.0761,3.0679,3.0564,3.0506,3.0487,3.0448,3.0417,3.0398,3.0323,3.015,2.9984,3.0013,2.9746,2.971,2.9801,2.9932,3.0138,3.0328,3.0398,3.0398,3.0398,3.0398,3.0398,3.0398,3.0386,3.0299,3.0131,3.0005,2.987,2.9661,2.9428,2.9296,2.9175,2.9017,2.8998,2.8975,2.8975,2.8975,2.8975,2.8975,2.8834,2.8688,2.8591,2.875,2.886,2.8957,2.8957,2.8994,2.8975,2.8975,2.9195,2.9698,2.9782,2.9852,3.0406,3.0766,3.0796,3.093,3.0946,3.119,3.1207,3.1308,3.1308,3.119,3.1151,3.1151,3.0838,3.074,3.0535,3.051,3.0573,3.065,3.0284,3.0168,3.0394,3.0599,3.0886,3.105,3.1016,3.092,3.069,3.0468,3.0303,2.9938,2.9655,2.9294,2.901,2.8915,2.8869,2.9123,2.9286,2.9177,2.9127,2.9294,2.9562,2.9926,2.9691,2.9186,3.0911,3.0918,3.0914,3.0716,3.0536,3.0765,3.0918,3.0918,3.0918,3.0918,3.0918,3.0918,3.0918,3.0898,3.0859,3.0806,3.0691,3.0641,3.0621,3.0506,3.0467,3.0436,3.0398,3.0379,3.0398,3.0311,3.008,2.9893,2.9861,2.9588,2.9514,2.9587,2.978,2.9931,3.0123,3.0228,3.0398,3.0367,3.0343,3.0241,3.0228,3.0188,3.0071,2.9916,2.9794,2.968,2.9455,2.9292,2.9182,2.9053,2.8975,2.8975,2.8975,2.8975,2.8975,2.8975,2.8952,2.8804,2.8551,2.8414,2.8543,2.8539,2.8707,2.8814,2.8845,2.8905,2.9232,2.9544,2.9996,3.0269,3.0508,3.1144,3.1324,3.1334,3.1173,3.1173,3.1173,3.119,3.119,3.119,3.1151,3.1112,3.0878,3.0617,3.0335,3.007,2.9826,2.9858,2.9889,2.9597,2.9358,2.9595,2.9756,3.0035,3.0218,3.0159,3.0074,3.0005,2.9935,2.9865,2.971,2.947,2.9013,2.8667,2.8988,2.9199,2.9184,2.9207,2.9343,2.9379,2.9363,2.9695,3.0005,2.9611,2.896,3.0801,3.082,3.082,3.0273,2.9766,3.041,3.082,3.0898,3.0918,3.0918,3.0918,3.0898,3.0879,3.0859,3.0762,3.07,3.0652,3.0564,3.041,3.041,3.0352,3.0302,3.0283,3.0333,3.0379,3.0241,3.0007,2.9763,2.9678,2.9316,2.9228,2.9365,2.9572,2.97,2.9841,3.0052,3.0247,3.0202,3.0095,3.0018,3.0003,2.988,2.9782,2.9657,2.9568,2.9439,2.9291,2.9171,2.9058,2.8975,2.8975,2.8975,2.8975,2.8975,2.8975,2.8952,2.8929,2.8687,2.8318,2.8208,2.8046,2.7946,2.8147,2.8301,2.8474,2.8626,2.8894,2.9486,3.0034,3.0563,3.1034,3.1305,3.1541,3.1411,3.123,3.119,3.119,3.119,3.119,3.1151,3.1055,3.0878,3.0393,3.0038,2.9717,2.9361,2.912,2.895,2.9007,2.9073,2.8965,2.9131,2.9281,2.93,2.9406,2.9512,2.963,2.9665,2.9635,2.9559,2.9469,2.9437,2.9212,2.9152,2.9372,2.9624,2.9909,2.9909,2.9813,2.9795,2.9773,2.9787,3.0191,2.9535,2.9057,2.9043,2.9043,2.9043,2.8906,2.8828,2.9609,3.0332,3.084,3.0918,3.0918,3.0879,3.0794,3.0766,3.074,3.0684,3.0588,3.0535,3.041,2.9987,2.991,3.0006,2.9871,2.9871,3.0006,3.0263,3.019,2.992,2.9603,2.9588,2.9228,2.8998,2.9144,2.9343,2.9453,2.9587,2.9767,2.9867,2.9915,2.9796,2.9815,2.9763,2.9696,2.9588,2.9456,2.94,2.9297,2.9138,2.9067,2.8975,2.8975,2.8975,2.8975,2.8975,2.8975,2.8929,2.859,2.8496,2.8334,2.7765,2.7613,2.7514,2.7316,2.7465,2.7766,2.7979,2.8192,2.8443,2.9143,2.9855,3.0362,3.0777,3.1097,3.1356,3.1351,3.1134,3.1021,3.0998,3.0912,3.0912,3.0838,3.074,3.0293,2.9805,2.9377,2.9012,2.8685,2.84,2.8271,2.8204,2.833,2.8501,2.8675,2.8679,2.8684,2.8967,2.9137,2.925,2.9342,2.9435,2.9539,2.9623,2.9648,2.95,2.9599,2.9903,3.0417,3.0986,3.0821,3.0507,3.0328,3.0258,3.0253,3.0132,2.9669,2.953,2.8283,2.8264,2.8264,2.8246,2.8247,2.8424,2.9144,3.0201,3.0701,3.0918,3.0879,3.0773,3.0698,3.0609,3.026,2.9979,2.9902,2.9429,2.9044,2.9006,2.9486,2.9179,2.9159,2.9398,2.967,2.9658,2.9494,2.9229,2.9401,2.9249,2.8998,2.9017,2.9182,2.9241,2.9283,2.9355,2.9397,2.9475,2.9514,2.9589,2.9551,2.9494,2.9334,2.9272,2.9256,2.9163,2.9044,2.8998,2.8975,2.8975,2.8975,2.8905,2.8773,2.8633,2.8507,2.821,2.8183,2.7918,2.7495,2.7368,2.7109,2.6888,2.6928,2.7124,2.7465,2.7725,2.8163,2.8727,2.9391,3.0029,3.0439,3.0814,3.1056,3.123,3.1061,3.0851,3.0723,3.0584,3.0468,3.0393,3.0064,2.9613,2.918,2.8732,2.8383,2.8125,2.7993,2.7894,2.781,2.7875,2.7985,2.8117,2.8052,2.8035,2.8409,2.8852,2.9119,2.9337,2.9501,2.9613,2.9783,3.0033,3.0081,3.0238,3.0402,3.0881,3.1285,3.1347,3.1168,3.1001,3.0821,3.0848,3.0719,3.0313,3.0323,2.8028,2.7943,2.7981,2.7881,2.7896,2.724,2.7832,2.9316,3.0147,3.0684,3.0648,3.0505,3.0275,2.9952,2.9436,2.9147,2.8948,2.8544,2.8179,2.7871,2.864,2.8544,2.8236,2.8563,2.8859,2.8717,2.8682,2.8894,2.9204,2.9134,2.8975,2.8975,2.9017,2.9062,2.9067,2.9071,2.9119,2.9181,2.927,2.9353,2.931,2.916,2.8975,2.9021,2.9021,2.8998,2.8998,2.8975,2.8975,2.8975,2.8887,2.8749,2.8412,2.8156,2.801,2.7869,2.7823,2.7572,2.7296,2.7152,2.7002,2.6821,2.6708,2.6808,2.7068,2.7303,2.7714,2.8163,2.8826,2.9488,2.9952,3.068,3.1121,3.0965,3.0712,3.0468,3.0186,3.0012,2.9793,2.9673,2.9451,2.9042,2.8575,2.814,2.8107,2.776,2.766,2.761,2.756,2.756,2.77,2.776,2.7991,2.8066,2.8228,2.8637,2.9139,2.9342,2.9597,3.0063,3.0462,3.0694,3.0805,3.0859,3.0926,3.1061,3.1273,3.1377,3.1452,3.1362,3.1315,3.1435,3.1237,3.0854,3.0915,2.6276,2.6208,2.616,2.6496,2.7052,2.6898,2.737,2.8403,2.8642,2.9136,2.9543,2.9046,2.8739,2.8758,2.8439,2.8228,2.8082,2.7736,2.7467,2.7371,2.7775,2.7678,2.7236,2.7715,2.798,2.8088,2.8228,2.8596,2.8997,2.9044,2.8975,2.8975,2.8975,2.8975,2.8975,2.8975,2.9017,2.9017,2.9067,2.9156,2.9112,2.9067,2.8975,2.8975,2.8975,2.8975,2.8975,2.8975,2.8975,2.8975,2.8682,2.8368,2.802,2.7926,2.7754,2.7517,2.7457,2.7241,2.7034,2.6916,2.6838,2.679,2.6708,2.6708,2.6791,2.6906,2.7226,2.7656,2.8237,2.8918,2.9593,3.0374,3.096,3.0645,3.0302,2.9983,2.9641,2.9375,2.9136,2.8966,2.8748,2.8415,2.7993,2.781,2.7725,2.7675,2.761,2.756,2.756,2.7575,2.7724,2.7874,2.8263,2.8382,2.8442,2.8816,2.946,2.9819,3.0128,3.0597,3.115,3.1162,3.1159,3.1297,3.1362,3.1362,3.1347,3.1407,3.1467,3.1467,3.1467,3.1467,3.1467,3.1222,3.1327,2.5609,2.5515,2.5447,2.5688,2.6083,2.614,2.6631,2.7267,2.7035,2.7334,2.8148,2.8029,2.7969,2.7815,2.7574,2.7302,2.7225,2.6851,2.6447,2.637,2.6736,2.664,2.6687,2.6836,2.6912,2.7091,2.7826,2.8357,2.8893,2.8975,2.8975,2.8975,2.8975,2.8975,2.8975,2.8975,2.8975,2.8975,2.8975,2.8975,2.8975,2.8975,2.8975,2.8975,2.8975,2.8975,2.8975,2.8975,2.8975,2.8815,2.8489,2.802,2.7678,2.7409,2.7272,2.7115,2.7019,2.6939,2.6758,2.6708,2.6708,2.6708,2.6708,2.6708,2.6624,2.6742,2.6738,2.7188,2.7942,2.8641,2.8956,2.9608,3.0011,2.9909,2.9459,2.9066,2.8713,2.8437,2.8271,2.8222,2.8091,2.8027,2.771,2.771,2.7625,2.7625,2.761,2.756,2.756,2.7634,2.7733,2.8032,2.845,2.8861,2.9026,2.949,3.0118,3.0432,3.0582,3.0986,3.136,3.1435,3.1452,3.1467,3.1452,3.1452,3.1452,3.1467,3.1467,3.1467,3.1467,3.1467,3.1467,3.1467,3.1452,2.5515,2.5409,2.5332,2.5313,2.5313,2.5313,2.5745,2.6255,2.5668,2.5754,2.6456,2.7217,2.7563,2.7302,2.6828,2.657,2.6252,2.5904,2.5454,2.5591,2.6101,2.6005,2.5896,2.5865,2.6165,2.6599,2.7249,2.8178,2.898,2.8975,2.8975,2.8975,2.8975,2.8975,2.8975,2.8975,2.8975,2.8975,2.8975,2.8975,2.8975,2.8975,2.8975,2.8975,2.8975,2.8975,2.8975,2.8929,2.8929,2.8725,2.8334,2.7823,2.7378,2.7083,2.6906,2.6791,2.6791,2.6758,2.6708,2.6708,2.6708,2.6708,2.6708,2.6674,2.6607,2.6564,2.6541,2.6962,2.7715,2.8168,2.8458,2.8914,2.9202,2.9205,2.871,2.8326,2.7957,2.769,2.7675,2.7625,2.761,2.761,2.761,2.761,2.756,2.756,2.756,2.756,2.7604,2.7724,2.7808,2.8219,2.8725,2.9122,2.9445,3.0118,3.0746,3.0731,3.0896,3.1255,3.1467,3.1467,3.1467,3.1467,3.1467,3.1467,3.1467,3.1467,3.1467,3.1467,3.1467,3.1467,3.1467,3.1467,3.1467,2.5466,2.539,2.5332,2.5313,2.5313,2.5313,2.5399,2.5514,2.5399,2.5329,2.5425,2.544,2.5573,2.56,2.5329,2.5253,2.5485,2.5122,2.5212,2.5389,2.5571,2.5447,2.5378,2.5416,2.5905,2.6429,2.6999,2.7684,2.8755,2.8975,2.8975,2.8975,2.8975,2.8975,2.8975,2.8975,2.8975,2.8975,2.8975,2.8975,2.8975,2.8975,2.8975,2.8975,2.8975,2.8975,2.8929,2.8682,2.8749,2.8676,2.8352,2.7794,2.7365,2.7004,2.6825,2.6708,2.6708,2.6708,2.6708,2.6708,2.6708,2.6708,2.6691,2.6691,2.6669,2.6713,2.6765,2.7008,2.756,2.779,2.8164,2.8767,2.9147,2.8661,2.8186,2.7959,2.768,2.7625,2.7625,2.7625,2.761,2.761,2.761,2.756,2.756,2.756,2.756,2.756,2.756,2.7739,2.7882,2.8457,2.9053,2.9301,2.9594,3.0612,3.1153,3.1093,3.1135,3.1332,3.1467,3.1467,3.1467,3.1467,3.1467,3.1467,3.1467,3.1467,3.1467,3.1467,3.1467,3.1467,3.1467,3.1467,3.1467]},{"header":{"parameterUnit":"m.s-1","parameterCategory":1,"la1":31.0,"la2":29.5877,"lo1":-88.7671,"lo2":-86.6584,"dy":0.0162,"dx":0.0185,"nx":115,"ny":88,"refTime":"2024-05-28T06:00:00:Z","depth":0,"parameterNumber":3,"parameterNumberName":"V-component_of_WINDS"},"data":[0.0,0.0,0.0,0.0,0.0,0.0,0.0,0.0,0.0,0.0,0.0,0.0,0.0,0.0,0.0,0.0,0.0,0.0,0.0,0.0,0.0,0.0,0.0,0.0,0.0,0.0,0.0,0.0,0.0,0.0,0.0,0.0,0.0,0.0,0.0,0.0,0.0,0.0,0.0,0.0,0.0,0.0,0.0,0.0,0.0,0.0,0.0,0.0,0.0,0.0,0.0,0.0,0.0,0.0,0.0,0.0,0.0,0.0,0.0,0.0,0.0,0.0,0.0,0.0,0.0,0.0,0.0,0.0,0.0,0.0,0.0,0.0,0.0,0.0,0.0,0.0,0.0,0.0,0.0,0.0,0.0,0.0,0.0,0.0,0.0,0.0,0.0,0.0,0.0,0.0,0.0,0.0,0.0,0.0,0.0,0.0,0.0,0.0,0.0,0.0,0.0,0.0,0.0,0.0,0.0,0.0,0.0,0.0,0.0,0.0,0.0,0.0,0.0,0.0,0.0,0.0,0.0,0.0,0.0,0.0,0.0,0.0,0.0,0.0,0.0,0.0,0.0,0.0,0.0,0.0,0.0,0.0,0.0,0.0,0.0,0.0,0.0,0.0,0.0,0.0,0.0,0.0,0.0,0.0,0.0,0.0,0.0,0.0,0.0,0.0,0.0,0.0,0.0,0.0,0.0,0.0,0.0,0.0,0.0,0.0,0.0,0.0,0.0,0.0,0.0,0.0,0.0,0.0,0.0,0.0,0.0,0.0,0.0,0.0,0.0,0.0,0.0,0.0,0.0,0.0,0.0,0.0,0.0,0.0,0.0,0.0,0.0,0.0,0.0,0.0,0.0,0.0,0.0,0.0,0.0,0.0,0.0,0.0,0.0,0.0,0.0,0.0,0.0,0.0,0.0,0.0,0.0,0.0,0.0,0.0,0.0,0.0,0.0,0.0,0.0,0.0,0.0,0.0,0.0,0.0,0.0,0.0,0.0,0.0,0.0,0.0,0.0,0.0,0.0,0.0,0.0,0.0,0.0,0.0,0.0,0.0,0.0,0.0,0.0,0.0,0.0,0.0,0.0,0.0,0.0,0.0,0.0,0.0,0.0,0.0,0.0,0.0,0.0,0.0,0.0,0.0,0.0,0.0,0.0,0.0,0.0,0.0,0.0,0.0,0.0,0.0,0.0,0.0,0.0,0.0,0.0,0.0,0.0,0.0,0.0,0.0,0.0,0.0,0.0,0.0,0.0,0.0,0.0,0.0,0.0,0.0,0.0,0.0,0.0,0.0,0.0,0.0,0.0,0.0,0.0,0.0,0.0,0.0,0.0,0.0,0.0,0.0,0.0,0.0,0.0,0.0,0.0,0.0,0.0,0.0,0.0,0.0,0.0,0.0,0.0,0.0,0.0,0.0,0.0,0.0,0.0,0.0,0.0,0.0,0.0,0.0,0.0,0.0,0.0,0.0,0.0,0.0,0.0,0.0,0.0,0.0,0.0,0.0,0.0,0.0,0.0,0.0,0.0,0.0,0.0,0.0,0.0,0.0,0.0,0.0,0.0,0.0,0.0,0.0,0.0,0.0,0.0,0.0,0.0,0.0,0.0,0.0,0.0,0.0,0.0,0.0,0.0,0.0,0.0,0.0,0.0,0.0,0.0,0.0,0.0,0.0,0.0,0.0,0.0,0.0,0.0,0.0,0.0,0.0,0.0,0.0,0.0,0.0,0.0,0.0,0.0,0.0,0.0,0.0,0.0,0.0,0.0,0.0,0.0,0.0,0.0,0.0,0.0,0.0,0.0,0.0,0.0,0.0,0.0,0.0,0.0,0.0,0.0,0.0,0.0,0.0,0.0,0.0,0.0,0.0,0.0,0.0,0.0,0.0,0.0,0.0,0.0,0.0,0.0,0.0,0.0,0.0,0.0,0.0,0.0,0.0,0.0,0.0,0.0,0.0,0.0,0.0,0.0,0.0,0.0,0.0,0.0,0.0,0.0,0.0,0.0,0.0,0.0,0.0,0.0,0.0,0.0,0.0,0.0,0.0,0.0,0.0,0.0,0.0,0.0,0.0,0.0,0.0,0.0,0.0,0.0,0.0,0.0,0.0,0.0,0.0,0.0,0.0,0.0,0.0,0.0,0.0,0.0,0.0,0.0,0.0,0.0,0.0,0.0,0.0,0.0,0.0,0.0,0.0,0.0,0.0,0.0,0.0,0.0,0.0,0.0,0.0,0.0,0.0,0.0,0.0,0.0,0.0,0.0,0.0,0.0,0.0,0.0,0.0,0.0,0.0,0.0,0.0,0.0,0.0,0.0,0.0,0.0,0.0,0.0,0.0,0.0,0.0,0.0,0.0,0.0,0.0,0.0,0.0,0.0,0.0,0.0,0.0,0.0,0.0,0.0,0.0,0.0,0.0,0.0,0.0,0.0,0.0,0.0,0.0,0.0,0.0,0.0,0.0,0.0,0.0,0.0,0.0,0.0,0.0,0.0,0.0,0.0,0.0,0.0,0.0,0.0,0.0,0.0,0.0,0.0,0.0,0.0,0.0,0.0,0.0,0.0,0.0,0.0,0.0,0.0,0.0,0.0,0.0,0.0,0.0,0.0,0.0,0.0,0.0,0.0,0.0,0.0,0.0,0.0,0.0,0.0,0.0,0.0,0.0,0.0,0.0,0.0,0.0,0.0,0.0,0.0,0.0,0.0,0.0,0.0,0.0,0.0,0.0,0.0,0.0,0.0,0.0,0.0,0.0,0.0,0.0,0.0,0.0,0.0,0.0,0.0,0.0,0.0,0.0,0.0,0.0,0.0,0.0,0.0,0.0,0.0,0.0,0.0,0.0,0.0,0.0,0.0,0.0,0.0,0.0,0.0,0.0,0.0,0.0,0.0,0.0,0.0,0.0,0.0,0.0,0.0,0.0,0.0,0.0,0.0,0.0,0.0,0.0,0.0,0.0,0.0,0.0,0.0,0.0,0.0,0.0,0.0,0.0,0.0,0.0,0.0,0.0,0.0,0.0,0.0,0.0,0.0,0.0,0.0,0.0,0.0,0.0,0.0,0.0,0.0,0.0,0.0,0.0,0.0,0.0,0.0,0.0,0.0,0.0,0.0,0.0,0.0,0.0,0.0,0.0,0.0,0.0,0.0,0.0,0.0,0.0,0.0,0.0,0.0,0.0,0.0,0.0,0.0,0.0,0.0,0.0,0.0,0.0,0.0,0.0,0.0,0.0,0.0,0.0,0.0,0.0,0.0,0.0,0.0,0.0,0.0,0.0,0.0,0.0,0.0,0.0,0.0,0.0,0.0,0.0,0.0,0.0,0.0,0.0,0.0,0.0,0.0,0.0,0.0,0.0,0.0,0.0,0.0,0.0,0.0,0.0,0.0,0.0,0.0,0.0,0.0,0.0,0.0,0.0,0.0,0.0,0.0,0.0,0.0,0.0,0.0,0.0,0.0,0.0,0.0,0.0,0.0,0.0,0.0,0.0,0.0,0.0,0.0,0.0,0.0,0.0,0.0,0.0,0.0,0.0,0.0,0.0,0.0,0.0,0.0,0.0,0.0,0.0,0.0,0.0,0.0,0.0,0.0,0.0,0.0,0.0,0.0,0.0,0.0,0.0,0.0,0.0,0.0,0.0,0.0,0.0,0.0,0.0,0.0,0.0,0.0,0.0,0.0,0.0,0.0,0.0,0.0,0.0,0.0,0.0,0.0,0.0,0.0,0.0,0.0,0.0,0.0,0.0,0.0,0.0,0.0,0.0,0.0,0.0,0.0,0.0,0.0,0.0,0.0,0.0,0.0,0.0,0.0,0.0,0.0,0.0,0.0,0.0,0.0,0.0,0.0,0.0,0.0,0.0,0.0,0.0,0.0,0.0,0.0,0.0,0.0,0.0,0.0,0.0,0.0,0.0,0.0,0.0,0.0,0.0,0.0,0.0,0.0,0.0,0.0,0.0,0.0,0.0,0.0,0.0,0.0,0.0,0.0,0.0,0.0,0.0,0.0,0.0,0.0,0.0,0.0,0.0,0.0,0.0,0.0,0.0,0.0,0.0,0.0,0.0,0.0,0.0,0.0,0.0,0.0,0.0,0.0,0.0,0.0,0.0,0.0,0.0,0.0,0.0,0.0,0.0,0.0,0.0,0.0,0.0,0.0,0.0,0.0,0.0,0.0,0.0,0.0,0.0,0.0,0.0,0.0,0.0,0.0,0.0,0.0,0.0,0.0,0.0,0.0,0.0,0.0,0.0,0.0,0.0,0.0,0.0,0.0,0.0,0.0,0.0,0.5309,0.0,0.0,0.0,0.0,0.0,0.0,0.0,0.0,0.0,0.0,0.0,0.0,0.0,0.0,0.0,0.0,0.0,0.0,0.0,0.0,0.0,0.0,0.0,0.0,0.0,0.0,0.0,0.0,0.0,0.0,0.0,0.0,0.0,0.0,0.0,0.0,0.0,0.0,0.0,0.0,0.0,0.0,0.0,0.0,0.0,0.0,0.0,0.0,0.0,0.0,0.0,0.0,0.0,0.0,0.0,0.0,0.0,0.0,0.0,0.0,0.0,0.0,0.0,0.0,0.0,0.0,0.0,0.0,0.0,0.0,0.0,0.0,0.0,0.0,0.0,0.0,0.0,0.0,0.0,0.0,0.0,0.0,0.0,0.0,0.0,0.0,0.0,0.0,0.0,0.0,0.0,0.0,0.0,0.0,0.0,0.0,0.0,0.0,0.0,0.0,0.0,0.0,0.0,0.0,0.0,0.0,0.0,0.0,0.0,0.0,0.5309,0.5309,0.5309,0.5309,0.5309,0.0,0.0,0.0,0.0,0.0,0.0,0.0,0.0,0.0,0.0,0.0,0.0,0.0,0.0,0.0,0.0,0.0,0.0,0.0,0.0,0.0,0.0,0.0,0.0,0.0,0.0,0.0,0.0,0.0,0.0,0.0,0.0,0.0,0.0,0.0,0.0,0.0,0.0,0.0,0.0,0.0,0.0,0.0,0.0,0.0,0.0,0.0,0.0,0.0,0.0,0.0,0.0,0.0,0.0,0.0,0.0,0.0,0.0,0.0,0.0,0.0,0.0,0.0,0.0,0.0,0.0,0.0,0.0,0.0,0.0,0.0,0.0,0.0,0.0,0.0,0.0,0.0,0.0,0.0,0.0,0.0,0.0,0.0,0.0,0.0,0.0,0.0,0.0,0.0,0.0,0.0,0.0,0.0,0.0,0.0,0.0,0.0,0.0,0.0,0.0,0.0,0.0,0.0,0.0,0.0,0.0,0.0,0.0,0.0,0.0,0.0,0.0,0.541,0.5377,0.541,0.0,0.0,0.0,0.0,0.0,0.0,0.0,0.0,0.0,0.0,0.0,0.0,0.0,0.0,0.0,0.0,0.0,0.0,0.0,0.0,0.0,0.0,0.0,0.0,0.0,0.0,0.0,0.0,0.0,0.0,0.0,0.0,0.0,0.0,0.0,0.0,0.0,0.0,0.0,0.0,0.0,0.0,0.0,0.0,0.0,0.0,0.0,0.0,0.0,0.0,0.0,0.0,0.0,0.0,0.0,0.0,0.0,0.0,0.0,0.0,0.0,0.0,0.0,0.0,0.0,0.0,0.0,0.0,0.0,0.0,0.0,0.0,0.0,0.0,0.0,0.0,0.0,0.0,0.0,0.0,0.0,0.0,0.0,0.0,0.0,0.0,0.0,0.0,0.0,0.0,0.0,0.0,0.0,0.0,0.0,0.0,0.0,0.0,0.0,0.0,0.0,0.0,0.0,0.0,0.0,0.0,0.0,0.0,0.0,0.0,0.5404,0.5665,0.5671,0.0,0.5637,0.0,0.0,0.0,0.0,0.0,0.0,0.0,0.0,0.0,0.0,0.0,0.0,0.0,0.0,0.0,0.0,0.0,0.0,0.0,0.0,0.0,0.0,0.0,0.0,0.0,0.0,0.0,0.0,0.0,0.0,0.0,0.0,0.0,0.0,0.0,0.0,0.0,0.0,0.0,0.0,0.0,0.0,0.0,0.0,0.0,0.0,0.0,0.0,0.0,0.0,0.0,0.0,0.0,0.0,0.0,0.0,0.0,0.0,0.0,0.0,0.0,0.0,0.0,0.0,0.0,0.0,0.0,0.0,0.0,0.0,0.0,0.0,0.0,0.0,0.0,0.0,0.0,0.0,0.0,0.0,0.0,0.0,0.0,0.0,0.0,0.0,0.0,0.0,0.0,0.0,0.0,0.0,0.0,0.0,0.0,0.0,0.0,0.0,0.0,0.0,0.0,0.0,0.0,0.0,0.0,0.0,0.0,0.0,0.0,0.0,0.5591,0.5705,0.5903,0.5903,0.0,0.0,0.0,0.0,0.0,0.0,0.0,0.0,0.0,0.0,0.0,0.0,0.0,0.0,0.0,0.0,0.0,0.0,0.0,0.0,0.0,0.0,0.0,0.0,0.0,0.0,0.0,0.0,0.0,0.0,0.0,0.0,0.0,0.0,0.0,0.0,0.0,0.0,0.0,0.0,0.0,0.0,0.0,0.0,0.0,0.0,0.0,0.0,0.0,0.0,0.0,0.0,0.0,0.0,0.0,0.0,0.0,0.0,0.0,0.0,0.0,0.0,0.0,0.0,0.0,0.0,0.0,0.0,0.0,0.0,0.0,0.0,0.0,0.0,0.0,0.0,0.0,0.0,0.0,0.0,0.0,0.0,0.0,0.0,0.0,0.0,0.0,0.0,0.0,0.0,0.0,0.0,0.0,0.0,0.0,0.0,0.0,0.0,0.0,0.0,0.0,0.0,0.0,0.0,0.0,0.0,0.0,0.0,0.0,0.0,0.5651,0.0,0.5832,0.6069,0.5999,0.5598,0.0,0.0,0.0,0.0,0.0,0.0,0.0,0.0,0.0,0.0,0.0,0.0,0.0,0.0,0.0,0.0,0.0,0.0,0.0,0.0,0.0,0.0,0.0,0.0,0.0,0.0,0.0,0.0,0.0,0.0,0.0,0.0,0.0,0.0,0.0,0.0,0.0,0.0,0.0,0.0,0.0,0.0,0.0,0.0,0.0,0.0,0.0,0.0,0.0,0.0,0.0,0.0,0.0,0.0,0.0,0.0,0.0,0.0,0.0,0.0,0.0,0.0,0.0,0.0,0.0,0.0,0.0,0.0,0.0,0.0,0.0,0.0,0.0,0.0,0.0,0.0,0.0,0.0,0.0,0.0,0.0,0.0,0.0,0.0,0.0,0.0,0.0,0.0,0.0,0.0,0.0,0.0,0.0,0.0,0.0,0.0,0.0,0.0,0.0,0.0,0.0,0.0,0.0,0.0,0.0,0.0,0.0,0.0,0.0,0.5845,0.5852,0.6162,0.6213,0.5949,0.0,0.0,0.0,0.0,0.0,0.0,0.0,0.0,0.0,0.0,0.0,0.0,0.0,0.0,0.0,0.0,0.0,0.0,0.0,0.0,0.0,0.0,0.0,0.0,0.0,0.0,0.0,0.0,0.0,0.0,0.0,0.0,0.0,0.0,0.0,0.0,0.0,0.0,0.0,0.0,0.0,0.0,0.0,0.0,0.0,0.0,0.0,0.0,0.0,0.0,0.0,0.0,0.0,0.0,0.0,0.0,0.0,0.0,0.0,0.0,0.0,0.0,0.0,0.0,0.0,0.0,0.0,0.0,0.0,0.0,0.0,0.0,0.0,0.0,0.0,0.0,0.0,0.0,0.0,0.0,0.0,0.0,0.0,0.0,0.0,0.0,0.0,0.0,0.0,0.0,0.0,0.0,0.0,0.0,0.0,0.0,0.0,0.0,0.0,0.0,0.0,0.0,0.0,0.0,0.0,0.0,0.0,0.0,0.0,0.5605,0.5671,0.5945,0.6431,0.6293,0.6001,0.0,0.0,0.0,0.0,0.0,0.0,0.0,0.0,0.0,0.0,0.0,0.0,0.0,0.0,0.0,0.0,0.0,0.0,0.0,0.0,0.0,0.0,0.0,0.0,0.0,0.0,0.0,0.0,0.0,0.0,0.0,0.0,0.0,0.0,0.0,0.0,0.0,0.0,0.0,0.0,0.0,0.0,0.0,0.0,0.0,0.0,0.0,0.0,0.0,0.0,0.0,0.0,0.0,0.0,0.0,0.0,0.0,0.0,0.0,0.0,0.0,0.0,0.0,0.0,0.0,0.0,0.0,0.0,0.0,0.0,0.0,0.0,0.0,0.0,0.0,0.0,0.0,0.0,0.0,0.0,0.0,0.0,0.0,0.0,0.0,0.0,0.0,0.0,0.0,0.0,0.0,0.0,0.0,0.0,0.0,0.0,0.0,0.0,0.0,0.0,0.0,0.0,0.0,0.0,0.0,0.0,0.0,0.0,0.0,0.5551,0.0,0.6146,0.0,0.6298,0.5938,0.0,0.0,0.0,0.0,0.0,0.0,0.0,0.0,0.0,0.0,0.0,0.0,0.0,0.0,0.0,0.0,0.0,0.0,0.0,0.0,0.0,0.0,0.0,0.0,0.0,0.0,0.0,0.0,0.0,0.0,0.0,0.0,0.0,0.0,0.0,0.0,0.0,0.0,0.0,0.0,0.0,0.0,0.0,0.0,0.0,0.0,0.0,0.0,0.0,0.0,0.0,0.0,0.0,0.0,0.0,0.0,0.0,0.0,0.0,0.0,0.0,0.0,0.0,0.0,0.0,0.0,0.0,0.0,0.0,0.0,0.0,0.0,0.0,0.0,0.0,0.0,0.0,0.0,0.0,0.0,0.0,0.0,0.0,0.0,0.0,0.0,0.0,0.0,0.0,0.0,0.0,0.0,0.0,0.0,0.0,0.0,0.0,0.0,0.0,0.0,0.0,0.0,0.0,0.0,0.0,0.0,0.0,0.0,0.5598,0.6149,0.64,0.642,0.6203,0.6173,0.5631,0.0,0.0,0.0,0.0,0.0,0.0,0.0,0.0,0.0,0.0,0.0,0.0,0.0,0.0,0.0,0.0,0.0,0.0,0.0,0.0,0.0,0.0,0.0,0.0,0.0,0.0,0.0,0.0,0.0,0.0,0.0,0.0,0.0,0.0,0.0,0.0,0.0,0.0,0.0,0.0,0.0,0.0,0.0,0.0,0.0,0.0,0.0,0.0,0.0,0.0,0.0,0.0,0.0,0.0,0.0,0.0,0.0,0.0,0.0,0.0,0.0,0.0,0.0,0.0,0.0,0.0,0.0,0.0,0.0,0.0,0.0,0.0,0.0,0.0,0.0,0.0,0.0,0.0,0.0,0.0,0.0,0.0,0.0,0.0,0.0,0.0,0.0,0.0,0.0,0.0,0.0,0.0,0.0,0.0,0.0,0.0,0.0,0.0,0.0,0.0,0.0,0.0,0.0,0.0,0.0,0.0,0.0,0.0,0.0,0.5598,0.6068,0.6384,0.6465,0.5896,0.5494,0.0,0.0,0.0,0.0,0.0,0.0,0.0,0.0,0.0,0.0,0.0,0.0,0.0,0.0,0.0,0.0,0.0,0.0,0.0,0.0,0.0,0.0,0.0,0.0,0.0,0.0,0.0,0.0,0.0,0.0,0.0,0.0,0.0,0.0,0.0,0.0,0.0,0.0,0.0,0.0,0.0,0.0,0.0,0.0,0.0,0.0,0.0,0.0,0.0,0.0,0.0,0.0,0.0,0.0,0.0,0.0,0.0,0.0,0.0,0.0,0.0,0.0,0.0,0.0,0.0,0.0,0.0,0.0,0.0,0.0,0.0,0.0,0.0,0.0,0.0,0.0,0.0,0.0,0.0,0.0,0.0,0.0,0.0,0.0,0.0,0.0,0.0,0.0,0.0,0.0,0.0,0.0,0.0,0.0,0.0,0.0,0.0,0.0,0.0,0.0,0.0,0.0,0.0,0.0,0.0,0.0,0.0,0.0,0.0,0.563,0.6173,0.6552,0.6587,0.6166,0.5807,0.5564,0.0,0.0,0.0,0.0,0.0,0.0,0.0,0.0,0.0,0.0,0.0,0.0,0.0,0.0,0.0,0.0,0.0,0.0,0.0,0.0,0.0,0.0,0.0,0.0,0.0,0.0,0.0,0.0,0.0,0.0,0.0,0.0,0.0,0.0,0.0,0.0,0.0,0.0,0.0,0.0,0.0,0.0,0.0,0.0,0.0,0.0,0.0,0.0,0.0,0.0,0.0,0.0,0.0,0.0,0.0,0.0,0.0,0.0,0.0,0.0,0.0,0.0,0.0,0.0,0.0,0.0,0.0,0.0,0.0,0.0,0.0,0.0,0.0,0.0,0.0,0.0,0.0,0.0,0.0,0.0,0.0,0.0,0.0,0.0,0.0,0.0,0.0,0.0,0.0,0.0,0.0,0.0,0.0,0.0,0.0,0.0,0.0,0.0,0.0,0.0,0.0,0.0,0.0,0.0,0.0,0.0,0.0,0.0,0.6033,0.6666,0.6844,0.6613,0.6856,0.6462,0.0,0.0,0.0,0.0,0.0,0.0,0.0,0.0,0.0,0.0,0.0,0.0,0.0,0.0,0.0,0.0,0.0,0.0,0.0,0.0,0.0,0.0,0.0,0.0,0.0,0.0,0.0,0.0,0.0,0.0,0.0,0.0,0.0,0.0,0.0,0.0,0.0,0.0,0.0,0.0,0.0,0.0,0.0,0.0,0.0,0.0,0.0,0.0,0.0,0.0,0.0,0.0,0.0,0.0,0.0,0.0,0.0,0.0,0.0,0.0,0.0,0.0,0.0,0.0,0.0,0.0,0.0,0.0,0.0,0.0,0.0,0.0,0.0,0.0,0.0,0.0,0.0,0.0,0.0,0.0,0.0,0.0,0.0,0.0,0.0,0.0,0.0,0.0,0.0,0.0,0.0,0.0,0.0,0.0,0.0,0.0,0.0,0.0,0.0,0.0,0.0,0.0,0.0,0.0,0.0,0.0,0.0,0.0,0.0,0.6039,0.6576,0.6744,0.6487,0.6811,0.6667,0.0,0.0,0.0,0.0,0.0,0.0,0.0,0.0,0.0,0.0,0.0,0.0,0.0,0.0,0.0,0.0,0.0,0.0,0.0,0.0,0.0,0.0,0.0,0.0,0.0,0.0,0.0,0.0,0.0,0.0,0.0,0.0,0.0,0.0,0.0,0.0,0.0,0.0,0.0,0.0,0.0,0.0,0.0,0.0,0.0,0.0,0.0,0.0,0.0,0.0,0.0,0.0,0.0,0.0,0.0,0.0,0.0,0.0,0.0,0.0,0.0,0.0,0.0,0.0,0.0,0.0,0.0,0.0,0.0,0.0,0.0,0.0,0.0,0.0,0.0,0.0,0.0,0.0,0.0,0.0,0.0,0.0,0.0,0.0,0.0,0.0,0.0,0.0,0.0,0.0,0.0,0.0,0.0,0.0,0.0,0.0,0.0,0.0,0.0,0.0,0.0,0.0,0.0,0.0,0.0,0.0,0.0,0.0,0.6618,0.5943,0.6753,0.6789,0.5861,0.6594,0.6623,0.0,0.0,0.0,0.0,0.0,0.0,0.0,0.0,0.0,0.0,0.0,0.0,0.0,0.0,0.0,0.0,0.0,0.0,0.0,0.0,0.0,0.0,0.0,0.0,0.0,0.0,0.0,0.0,0.0,0.0,0.0,0.0,0.0,0.0,0.0,0.0,0.0,0.0,0.0,0.0,0.0,0.0,0.0,0.0,0.0,0.0,0.0,0.0,0.0,0.0,0.0,0.0,0.0,0.0,0.0,0.0,0.0,0.0,0.0,0.0,0.0,0.0,0.0,0.0,0.0,0.0,0.0,0.0,0.0,0.0,0.0,0.0,0.0,0.0,0.0,0.0,0.0,0.0,0.0,0.0,0.0,0.0,0.0,0.0,0.0,0.0,0.0,0.0,0.0,0.0,0.0,0.0,0.0,0.0,0.0,0.0,0.0,0.0,0.0,0.0,0.0,0.0,0.0,0.0,0.0,0.0,0.0,0.0,0.6967,0.5898,0.6993,0.6738,0.5116,0.6245,0.6419,0.0,0.0,0.0,0.0,0.0,0.0,0.0,0.0,0.0,0.0,0.0,0.0,0.0,0.0,0.0,0.0,0.0,0.0,0.0,0.0,0.0,0.0,0.0,0.0,0.0,0.0,0.0,0.0,0.0,0.0,0.0,0.0,0.0,0.0,0.0,0.0,0.0,0.0,0.0,0.0,0.0,0.0,0.0,0.0,0.0,0.0,0.0,0.0,0.0,0.0,0.0,0.0,0.0,0.0,0.0,0.0,0.0,0.0,0.0,0.0,0.0,0.0,0.0,0.0,0.0,0.0,0.0,0.0,0.0,0.0,0.0,0.0,0.0,0.0,0.0,0.0,0.0,0.0,0.0,0.0,0.0,0.0,0.0,0.0,0.0,0.0,0.0,0.0,0.0,0.0,0.0,0.0,0.0,0.0,0.0,0.0,0.0,0.0,0.0,0.0,0.0,0.0,0.0,0.0,0.0,0.0,0.0,0.0,0.7052,0.6162,0.6601,0.6056,0.4456,0.567,0.6206,0.0,0.0,0.0,0.0,0.0,0.0,0.0,0.0,0.0,0.0,0.0,0.0,0.0,0.0,0.0,0.0,0.0,0.0,0.0,0.0,0.0,0.0,0.0,0.0,0.0,0.0,0.0,0.0,0.0,0.0,0.0,0.0,0.0,0.0,0.0,0.0,0.0,0.0,0.0,0.0,0.0,0.0,0.0,0.0,0.0,0.0,0.0,0.0,0.0,0.0,0.0,0.0,0.0,0.0,0.0,0.0,0.0,0.0,0.0,0.0,0.0,0.0,0.0,0.0,0.0,0.0,0.0,0.0,0.0,0.0,0.0,0.0,0.0,0.0,0.0,0.0,0.0,0.0,0.0,0.0,0.0,0.0,0.0,0.0,0.0,0.0,0.0,0.0,0.0,0.0,0.0,0.0,0.0,0.0,0.0,0.0,0.0,0.0,0.0,0.0,0.0,0.0,0.0,0.0,0.0,0.0,0.0,0.0,0.7217,0.6232,0.6468,0.5882,0.4456,0.5031,0.5351,0.0,0.0,0.0,0.0,0.0,0.0,0.0,0.0,0.0,0.0,0.0,0.0,0.0,0.0,0.0,0.0,0.0,0.0,0.0,0.0,0.0,0.0,0.0,0.0,0.0,0.0,0.0,0.0,0.0,0.0,0.0,0.0,0.0,0.0,0.0,0.0,0.0,0.0,0.0,0.0,0.0,0.0,0.0,0.0,0.0,0.0,0.0,0.0,0.0,0.0,0.0,0.0,0.0,0.0,0.0,0.0,0.0,0.0,0.0,0.0,0.0,0.0,0.0,0.0,0.0,0.0,0.0,0.0,0.0,0.0,0.0,0.0,0.0,0.0,0.0,0.0,0.0,0.0,0.0,0.0,0.0,0.0,0.0,0.0,0.0,0.0,0.0,0.0,0.0,0.0,0.0,0.0,0.0,0.0,0.0,0.0,0.0,0.0,0.0,0.0,0.0,0.0,0.0,0.0,0.0,0.0,0.0,0.7475,0.7352,0.6339,0.6483,0.5932,0.457,0.4488,0.4503,0.4426,0.0,0.0,0.0,0.0,0.0,0.0,0.0,0.0,0.0,0.0,0.0,0.0,0.0,0.0,0.0,0.0,0.0,0.0,0.0,0.0,0.0,0.0,0.0,0.0,0.0,0.0,0.0,0.0,0.0,0.0,0.0,0.0,0.0,0.0,0.0,0.0,0.0,0.0,0.0,0.0,0.0,0.0,0.0,0.0,0.0,0.0,0.0,0.0,0.0,0.0,0.0,0.0,0.0,0.0,0.0,0.0,0.0,0.0,0.0,0.0,0.0,0.0,0.0,0.0,0.0,0.0,0.0,0.0,0.0,0.0,0.0,0.0,0.0,0.0,0.0,0.0,0.0,0.0,0.0,0.0,0.0,0.0,0.0,0.0,0.0,0.0,0.0,0.0,0.0,0.0,0.0,0.0,0.0,0.0,0.0,0.0,0.0,0.0,0.0,0.0,0.0,0.0,0.0,0.0,0.0,0.7301,0.7513,0.7242,0.6567,0.6568,0.5932,0.457,0.4488,0.4496,0.451,0.0,0.0,0.0,0.0,0.0,0.0,0.0,0.0,0.0,0.0,0.0,0.0,0.0,0.0,0.0,0.0,0.0,0.0,0.0,0.0,0.0,0.0,0.0,0.0,0.0,0.0,0.0,0.0,0.0,0.0,0.0,0.0,0.0,0.0,0.0,0.0,0.0,0.0,0.0,0.0,0.0,0.0,0.0,0.0,0.0,0.0,0.0,0.0,0.0,0.0,0.0,0.0,0.0,0.0,0.0,0.0,0.0,0.0,0.0,0.0,0.0,0.0,0.0,0.0,0.0,0.0,0.0,0.0,0.0,0.0,0.0,0.0,0.0,0.0,0.0,0.0,0.0,0.0,0.0,0.0,0.0,0.0,0.0,0.0,0.0,0.0,0.0,0.0,0.0,0.0,0.0,0.0,0.0,0.0,0.0,0.0,0.0,0.0,0.0,0.0,0.0,0.0,0.0,0.0,0.0,0.7174,0.7548,0.7364,0.6622,0.6588,0.5937,0.4567,0.4381,0.4415,0.0,0.0,0.0,0.0,0.0,0.0,0.0,0.0,0.0,0.0,0.0,0.0,0.0,0.0,0.0,0.0,0.0,0.0,0.0,0.0,0.0,0.0,0.0,0.0,0.0,0.0,0.0,0.0,0.0,0.0,0.0,0.0,0.0,0.0,0.0,0.0,0.0,0.0,0.0,0.0,0.0,0.0,0.0,0.0,0.0,0.0,0.0,0.0,0.0,0.0,0.0,0.0,0.0,0.0,0.0,0.0,0.0,0.0,0.0,0.0,0.0,0.0,0.0,0.0,0.0,0.0,0.0,0.0,0.0,0.0,0.0,0.0,0.0,0.0,0.0,0.0,0.0,0.0,0.0,0.0,0.0,0.0,0.0,0.0,0.0,0.0,0.0,0.0,0.0,0.0,0.0,0.0,0.0,0.0,0.0,0.0,0.0,0.0,0.0,0.0,0.0,0.0,0.0,0.0,0.0,0.0,0.6959,0.7562,0.7401,0.6617,0.6588,0.5937,0.457,0.4324,0.4244,0.0,0.0,0.0,0.0,0.0,0.0,0.0,0.0,0.0,0.0,0.0,0.0,0.0,0.0,0.0,0.0,0.0,0.0,0.0,0.0,0.0,0.0,0.0,0.0,0.0,0.0,0.0,0.0,0.0,0.0,0.0,0.0,0.0,0.0,0.0,0.0,0.0,0.0,0.0,0.0,0.0,0.0,0.0,0.0,0.0,0.0,0.0,0.0,0.0,0.0,0.0,0.0,0.0,0.0,0.0,0.0,0.0,0.0,0.0,0.0,0.0,0.0,0.0,0.0,0.0,0.0,0.0,0.0,0.0,0.0,0.0,0.0,0.0,0.0,0.0,0.0,0.0,0.0,0.0,0.0,0.0,0.0,0.0,0.0,0.0,0.0,0.0,0.0,0.0,0.0,0.0,0.0,0.0,0.0,0.0,0.0,0.0,0.0,0.0,0.0,0.0,0.0,0.0,0.0,0.0,0.0,0.6981,0.7348,0.7248,0.6607,0.6588,0.5937,0.457,0.4324,0.4141,0.0,0.0,0.0,0.0,0.0,0.0,0.0,0.0,0.0,0.0,0.0,0.0,0.0,0.0,0.0,0.0,0.0,0.0,0.0,0.0,0.0,0.0,0.0,0.0,0.0,0.0,0.0,0.0,0.0,0.0,0.0,0.0,0.0,0.0,0.0,0.0,0.0,0.0,0.0,0.0,0.0,0.0,0.0,0.0,0.0,0.0,0.0,0.0,0.0,0.0,0.0,0.0,0.0,0.0,0.0,0.0,0.0,0.0,0.0,0.0,0.0,0.0,0.0,0.0,0.0,0.0,0.0,0.0,0.0,0.0,0.0,0.0,0.0,0.0,0.0,0.0,0.0,0.0,0.0,0.0,0.0,0.0,0.0,0.0,0.0,0.0,0.0,0.0,0.0,0.0,0.0,0.0,0.0,0.0,0.0,0.0,0.0,0.0,0.0,0.0,0.0,0.0,0.0,0.0,0.0,0.6019,0.6952,0.7488,0.7383,0.6622,0.6588,0.5932,0.4519,0.4239,0.4052,0.0,0.0,0.0,0.0,0.0,0.0,0.0,0.0,0.0,0.0,0.0,0.0,0.0,0.0,0.0,0.0,0.0,0.0,0.0,0.0,0.0,0.0,0.0,0.0,0.0,0.0,0.0,0.0,0.0,0.0,0.0,0.0,0.0,0.0,0.0,0.0,0.0,0.0,0.0,0.0,0.0,0.0,0.0,0.0,0.0,0.0,0.0,0.0,0.0,0.0,0.0,0.0,0.0,0.0,0.0,0.0,0.0,0.0,0.0,0.0,0.0,0.0,0.0,0.0,0.0,0.0,0.0,0.0,0.0,0.0,0.0,0.0,0.0,0.0,0.0,0.0,0.0,0.0,0.0,0.0,0.0,0.0,0.0,0.0,0.0,0.0,0.0,0.0,0.0,0.0,0.0,0.0,0.0,0.0,0.0,0.0,0.0,0.0,0.0,0.0,0.0,0.0,0.0,0.0,0.0,0.0,0.6972,0.7576,0.7561,0.6891,0.6696,0.6018,0.4729,0.4254,0.0,0.0,0.0,0.0,0.0,0.0,0.0,0.0,0.0,0.0,0.0,0.0,0.0,0.0,0.0,0.0,0.0,0.0,0.0,0.0,0.0,0.0,0.0,0.0,0.0,0.0,0.0,0.1803,0.0,0.0,0.0,0.0,0.0,0.0,0.0,0.0,0.0,0.0,0.0,0.0,0.0,0.0,0.0,0.0,0.0,0.0,0.0,0.0,0.0,0.0,0.0,0.0,0.0,0.0,0.0,0.0,0.0,0.0,0.0,0.0,0.0,0.0,0.0,0.0,0.0,0.0,0.0,0.0,0.0,0.0,0.0,0.0,0.0,0.0,0.0,0.0,0.0,0.0,0.0,0.0,0.0,0.0,0.0,0.0,0.0,0.0,0.0,0.0,0.0,0.0,0.0,0.0,0.0,0.0,0.0,0.0,0.0,0.0,0.0,0.0,0.0,0.0,0.0,0.0,0.0,0.0,0.0,0.6965,0.7576,0.7815,0.7593,0.6966,0.6168,0.5249,0.4455,0.4004,0.0,0.0,0.0,0.0,0.0,0.0,0.0,0.0,0.0,0.0,0.0,0.0,0.0,0.0,0.0,0.0,0.0,0.0,0.0,0.0,0.0,0.0,0.0,0.0,0.0,0.0,0.0,0.0,0.0,0.0,0.0,0.0,0.0,0.0,0.0,0.0,0.0,0.0,0.0,0.0,0.0,0.0,0.0,0.0,0.0,0.0,0.0,0.0,0.0,0.0,0.0,0.0,0.0,0.0,0.0,0.0,0.0,0.0,0.0,0.0,0.0,0.0,0.0,0.0,0.0,0.0,0.0,0.0,0.0,0.0,0.0,0.0,0.0,0.0,0.0,0.0,0.0,0.0,0.0,0.0,0.0,0.0,0.0,0.0,0.0,0.0,0.0,0.0,0.0,0.0,0.0,0.0,0.0,0.0,0.0,0.0,0.0,0.0,0.0,0.0,0.0,0.0,0.0,0.0,0.0,0.6109,0.7014,0.7802,0.8037,0.7706,0.6966,0.622,0.5441,0.4499,0.3996,0.0,0.0,0.0,0.0,0.0,0.0,0.0,0.0,0.0,0.0,0.0,0.0,0.0,0.0,0.0,0.0,0.0,0.0,0.0,0.0,0.0,0.0,0.0,0.0,0.0,0.0,0.0,0.0,0.1875,0.1824,0.1936,0.0,0.0,0.0,0.0,0.0,0.0,0.0,0.0,0.0,0.0,0.0,0.0,0.0,0.0,0.0,0.0,0.0,0.0,0.0,-0.0522,-0.1982,-0.2533,0.0,0.0,0.0,0.0,0.0,0.0,0.0,0.0,0.0,0.0,0.0,0.0,0.0,0.0,0.0,0.0,0.0,0.0,0.0,0.0,0.0,0.0,0.0,0.0,0.0,0.0,0.0,0.0,0.0,0.0,0.0,0.0,0.0,0.0,0.0,0.0,0.0,0.0,0.0,0.0,0.0,0.0,0.0,0.0,0.0,0.0,0.0,0.0,0.0,0.0,0.0,0.0,0.6233,0.6972,0.7916,0.8306,0.8043,0.7074,0.6333,0.5775,0.4605,0.3979,0.0,0.0,0.0,0.0,0.0,0.0,0.0,0.0,0.0,0.0,0.0,0.0,0.0,0.0,0.0,0.0,0.0,0.0,0.0,0.0,0.0,0.0,0.0,0.0,0.0,0.0,0.0,0.0,0.1774,0.1457,0.1277,0.0,0.0,0.0,0.0,0.0,0.0,0.0,0.0,0.0,0.0,0.0,0.0,0.0,0.0,0.0,-0.0785,-0.1345,-0.1345,-0.0592,-0.0571,-0.2263,0.0,0.0,0.0,0.0,0.0,0.0,0.0,0.0,0.0,0.0,0.0,0.0,0.0,0.0,0.0,0.0,0.0,0.0,0.0,0.0,0.0,0.0,0.0,0.0,0.0,0.0,0.0,0.5108,0.0,0.0,0.5117,0.0,0.0,0.0,0.0,0.0,0.0,0.0,0.0,0.0,0.0,0.0,0.0,0.0,0.0,0.0,0.0,0.0,0.0,0.0,0.0,0.0,0.0,0.6478,0.7027,0.7923,0.8517,0.8738,0.7343,0.6536,0.6329,0.4847,0.3883,0.3622,0.0,0.0,0.0,0.0,0.0,0.0,0.0,0.0,0.0,0.0,0.0,0.0,0.0,0.0,0.0,0.0,0.0,0.0,0.0,0.0,0.0,0.0,0.0,0.0,0.0,0.0,0.2217,0.1446,0.0719,0.0,0.0,0.0,0.0,0.0,0.0,0.0,0.0,0.0,0.0,0.1873,0.0,0.0,0.0,0.0,0.0,-0.2469,-0.4343,-0.4284,-0.1955,-0.0,0.0,0.0,0.0,0.0,0.0,0.0,0.0,0.0,0.0,0.0,0.0,0.0,0.0,0.0,0.0,0.0,0.0,0.0,0.0,0.0,0.0,0.0,0.0,0.0,0.0,0.0,0.0,0.6671,0.6436,0.0,0.0,0.0,0.0,0.0,0.0,0.0,0.0,0.0,0.0,0.0,0.6982,0.7405,0.0,0.0,0.0,0.0,0.0,0.0,0.0,0.0,0.0,0.0,0.0,0.0,0.6734,0.7328,0.821,0.8704,0.8752,0.7343,0.6553,0.6526,0.4856,0.3879,0.3615,0.0,0.0,0.0,0.0,0.0,0.0,0.0,0.0,0.0,0.0,0.0,0.0,0.0,0.0,0.0,0.0,0.0,0.0,0.0,0.0,0.0,0.0,0.0,0.0,0.0,0.2443,0.0,0.0,0.0,0.0,0.0,0.0,0.0,0.0,0.0,0.0,0.0,0.3375,0.4374,0.3621,0.2266,0.0279,0.0,0.0,0.0,0.0,0.0,0.0,0.0,0.0,0.0,0.0,0.0,0.0,0.0,0.0,0.0,0.0,-0.4386,-0.3956,-0.3774,-0.3527,-0.3211,0.0,0.0,0.0,0.0,0.0,0.0,0.0,0.0,0.0,0.0,0.0,0.0,0.0,0.0,0.7653,0.0,0.7549,0.0,0.0,0.0,0.0,0.0,0.0,0.0,0.0,0.8062,0.7978,0.7355,0.7642,0.7629,0.0,0.7494,0.7626,0.0,0.0,0.0,0.0,0.0,0.0,0.0,0.0,0.73,0.7533,0.835,0.8804,0.8752,0.761,0.6858,0.6578,0.4943,0.3929,0.3622,0.3227,0.3029,0.0,0.0,0.0,0.0,0.0,0.0,0.0,0.0,0.0,0.0,0.0,0.0,0.0,0.0,0.0,0.0,0.0,0.0,0.0,0.0,0.0,0.0,0.0,0.2607,0.0,0.0,0.0,0.0,0.0,0.0,0.0,0.0,0.0,0.4335,0.356,0.3394,0.4364,0.4488,0.3588,0.1116,0.0,0.0,0.0,0.0,0.0,0.0,0.0,-0.4452,-0.4341,-0.4494,-0.458,-0.4402,-0.4416,-0.4409,-0.4381,0.0,0.0,-0.3985,-0.3948,-0.4066,-0.4204,-0.4521,-0.4829,-0.5026,-0.574,-0.6071,0.0,0.0,0.0,0.0,0.0,0.0,0.0,0.0,0.8984,0.8806,0.0,0.8518,0.0,0.0,0.0,0.0,0.0,0.8462,0.0,0.0,0.9032,0.9077,0.7996,0.825,0.8237,0.7983,0.8223,0.8604,0.9007,0.801,0.0,0.0,0.0,0.0,0.0,0.0,0.8062,0.7574,0.837,0.8804,0.8752,0.799,0.7283,0.6509,0.5003,0.4038,0.3643,0.3606,0.3314,0.2761,0.2716,0.0,0.0,0.0,0.0,0.0,0.0,0.0,0.0,0.0,0.0,0.0,0.0,0.0,0.0,0.0,0.0,0.0,0.0,0.0,0.0,0.2492,0.0,0.0,0.0,0.0,0.0,0.0,0.0,0.0,0.0,0.0,0.404,0.4282,0.4474,0.4512,0.0,0.0,0.0,0.0,-0.1062,-0.3999,-0.3254,-0.2852,-0.4262,-0.4494,-0.4494,-0.4497,0.0,0.0,-0.4697,-0.4819,-0.4863,-0.4724,-0.4809,-0.4826,-0.4594,-0.4469,-0.457,-0.5275,-0.5398,-0.5676,-0.6308,-0.6289,-0.6138,1.2782,0.0,0.0,0.0,0.0,1.1561,1.1322,1.1269,1.0603,1.0243,1.0186,1.0186,0.0,0.0,0.0,0.0,0.0,0.0,0.8996,0.8724,0.8763,0.8714,0.8557,0.8644,0.8637,0.855,0.8481,0.8665,0.9124,0.8245,0.8157,0.8939,0.0,0.0,0.0,0.0,0.854,0.8178,0.8571,0.854,0.8049,0.7289,0.6245,0.4945,0.4599,0.42,0.3787,0.364,0.3447,0.3129,0.2852,0.0,0.0,0.0,0.0,0.0,0.0,0.0,0.0,0.0,0.0,0.0,0.0,0.0,0.0,0.0,0.0,0.0,0.0,0.0,0.2516,0.2623,0.2686,0.0,0.0,0.0,0.0,0.0,0.0,0.0,0.0,0.0,0.4168,0.4251,0.4361,0.0,0.0,0.4324,0.3878,0.1624,-0.1064,-0.4054,-0.4305,0.0,-0.4646,-0.4728,-0.4792,-0.4792,-0.483,-0.4857,-0.4853,-0.4827,-0.4844,-0.486,-0.4951,-0.5189,-0.5632,-0.5677,-0.567,-0.577,-0.6151,-0.6524,-0.6613,-0.6853,-0.7058,1.4275,1.4841,1.4813,1.4175,1.3064,1.2313,1.2001,1.1999,1.1397,1.126,1.1426,1.1436,1.1191,1.0771,0.9908,0.0,0.0,0.0,0.9116,0.904,0.869,0.8637,0.8798,0.8804,0.8804,0.8798,0.8624,0.8836,0.9422,0.865,0.8778,0.9757,0.0,0.0,0.8563,0.886,0.8803,0.8427,0.8391,0.8156,0.7723,0.6691,0.5712,0.4759,0.4601,0.4319,0.3978,0.3725,0.3547,0.3403,0.3124,0.2825,0.0,0.0,0.0,0.0,0.0,0.0,0.0,0.0,0.0,0.0,0.0,0.2383,0.0,0.0,0.0,0.0,0.2107,0.2285,0.2672,0.2679,0.0,0.0,0.0,0.0,0.0,0.0,0.0,0.433,0.4441,0.4453,0.4321,0.4338,0.4375,0.4467,0.4484,0.4497,0.4511,0.0,0.0742,-0.2286,-0.3946,-0.4935,-0.4925,-0.4927,-0.4935,-0.4934,-0.5003,-0.503,-0.5087,-0.5094,-0.5031,-0.5157,-0.5535,-0.5966,-0.6324,-0.6945,-0.7335,-0.6988,-0.7333,-0.7687,-0.7773,-0.8117,-0.8136,1.4971,1.5516,1.4935,1.4176,1.3259,1.2659,1.2164,1.1704,1.1714,1.1904,1.2229,1.2239,1.2005,1.1553,1.0588,0.0,0.9521,0.9365,0.9127,0.891,0.8811,0.8804,0.8804,0.8804,0.8804,0.8804,0.8804,0.9106,0.9658,0.9106,0.927,1.0035,0.9162,0.8721,0.8761,0.9063,0.8991,0.8461,0.7979,0.761,0.7503,0.614,0.5433,0.5429,0.4805,0.4404,0.417,0.3843,0.3632,0.3585,0.339,0.3118,0.274,0.0,0.0,0.0,0.0,0.0,0.0,0.0,0.0,0.0,0.0,0.0,0.0,0.0,0.0,0.0,0.2169,0.0,0.2667,0.2557,0.0,0.0,0.0,0.0,0.0,0.1189,0.2564,0.4052,0.0,0.0,0.4463,0.4473,0.448,0.4484,0.4484,0.4438,0.4182,0.4004,0.3128,-0.0118,-0.2788,-0.4778,-0.502,-0.503,-0.502,-0.5128,-0.5148,-0.5196,-0.5315,-0.5411,-0.5422,-0.5408,-0.6342,-0.712,-0.6846,-0.8125,-0.9184,-0.8765,-0.8723,-0.8928,-0.9401,-0.9299,-0.9033,1.422,1.5543,1.4959,1.4564,1.4261,1.3718,1.3103,1.2616,1.2568,1.2627,1.2725,1.2734,1.2349,1.1776,1.2044,1.1574,1.0439,1.0089,0.9847,0.9562,0.9061,0.8804,0.8804,0.8804,0.8804,0.8804,0.8804,0.885,0.9008,0.8857,0.8928,0.9099,0.8882,0.8875,0.9099,0.9437,0.9357,0.8704,0.8072,0.7176,0.6032,0.5167,0.4736,0.4732,0.4595,0.4355,0.4077,0.399,0.3773,0.3629,0.3432,0.3206,0.3025,0.2692,0.0,0.0,0.0,0.0,0.0,0.0,0.0,0.0,0.0,0.2144,0.2765,0.0,0.2049,0.0,0.1367,0.2105,0.2639,0.1465,0.0,0.0,0.0,0.0,0.0,0.0318,0.154,0.4142,0.447,0.4484,0.4477,0.4487,0.4497,0.4504,0.4504,0.3685,0.1508,0.1054,0.0356,-0.158,-0.2684,-0.3687,-0.4848,-0.5189,-0.526,-0.5301,-0.5304,-0.5321,-0.5422,-0.5428,-0.5428,-0.5495,-0.6758,-0.7611,-0.7707,-0.8549,-0.9494,-0.9987,-0.9923,-0.9701,-0.9733,-0.9452,-0.9121,1.3637,1.4801,1.473,1.4544,1.4236,1.3647,1.32,1.2881,1.2891,1.2891,1.2891,1.2891,1.2666,1.2295,1.2276,1.1913,1.1208,1.0543,1.0041,0.9762,0.9113,0.8804,0.8804,0.8804,0.8804,0.8804,0.8804,0.8804,0.8804,0.8804,0.8804,0.8804,0.8804,0.8881,0.9024,0.9224,0.9159,0.8804,0.7777,0.6632,0.5542,0.4842,0.4429,0.4368,0.4457,0.4337,0.4026,0.3877,0.3804,0.3676,0.3534,0.3343,0.3192,0.2894,0.2556,0.0,0.0,0.0,0.0,0.0,0.0,0.0,0.0,0.0,0.0,0.0,0.1935,0.0179,0.0605,0.1139,0.1459,0.057,0.0,0.0,0.0,0.0,0.0,0.0,0.0656,0.2287,0.3699,0.4265,0.3577,0.4098,0.4507,0.4458,0.4459,0.3417,0.0,0.0,-0.0669,-0.2386,-0.2704,-0.3268,-0.4977,-0.5308,-0.5428,-0.5428,-0.5428,-0.5428,-0.5428,-0.5428,-0.5491,-0.5947,-0.7068,-0.8127,-0.8554,-0.9262,-1.0047,-1.0415,-1.0434,-1.0267,-1.01,-0.9733,-0.9396,1.3238,1.3847,1.4291,1.4227,1.3779,1.3152,1.2891,1.2891,1.2891,1.2891,1.2891,1.2891,1.2891,1.2822,1.2052,1.1778,1.1873,1.0981,1.0368,1.002,0.9263,0.891,0.8903,0.8857,0.8804,0.8804,0.8804,0.8804,0.8804,0.8804,0.8804,0.8804,0.8804,0.8804,0.8804,0.8804,0.8752,0.8646,0.7295,0.6258,0.5538,0.4838,0.4402,0.4231,0.4348,0.4316,0.4022,0.3757,0.3665,0.3761,0.3646,0.352,0.3353,0.3026,0.2654,0.0,0.1848,0.0,0.0,0.0,0.0,0.0,0.0,0.0,0.0,0.2352,0.171,0.0,0.0,0.0,0.0,0.0,0.0,0.0,0.0,0.0,0.0,0.0,0.0,0.0,0.2293,0.3474,0.2796,0.3423,0.3943,0.4326,0.3955,0.2726,0.0,0.0,-0.0628,-0.2399,-0.2911,-0.3808,-0.5014,-0.5422,-0.5428,-0.5428,-0.5428,-0.5428,-0.5428,-0.5428,-0.5686,-0.6527,-0.7652,-0.8576,-0.9215,-0.9983,-1.0555,-1.0555,-1.0604,-1.0598,-1.0537,-1.0107,-0.9774,1.3238,1.3779,1.3415,1.3443,1.3732,1.3152,1.2891,1.2891,1.2891,1.2891,1.2891,1.2891,1.2891,1.2881,1.2715,1.2657,1.2666,1.2466,1.204,1.1366,1.0167,0.9614,0.9569,0.9061,0.8804,0.8804,0.8804,0.8804,0.8804,0.8804,0.8804,0.8804,0.8804,0.8804,0.8804,0.0,0.0,0.0,0.7025,0.6253,0.5542,0.4842,0.4505,0.4416,0.4189,0.0,0.4012,0.3761,0.3619,0.3619,0.3595,0.0,0.0,0.0,0.0,0.0,0.0,0.0,0.0,0.0,0.0,0.0,0.2977,0.2487,0.0708,0.0496,0.0376,0.0,0.0,0.0,0.0,0.0,0.0,0.0,0.0,0.0,0.0,0.0,0.0,0.0,0.0,0.1737,0.3482,0.2298,0.1871,0.3796,0.2411,0.0783,0.0,0.0,0.0,-0.2398,-0.3825,-0.4909,-0.5362,-0.5428,-0.5428,-0.5428,-0.5428,-0.5428,-0.5428,-0.5428,-0.5686,-0.6593,-0.856,-0.9845,-0.9426,-0.9983,-1.0618,-1.0618,-1.0618,-1.0618,-1.0548,-1.0281,-0.998,1.3065,1.3266,1.226,1.2211,0.0,1.2129,1.185,1.19,1.2197,1.2344,1.2363,1.2579,1.2884,1.3184,1.2995,1.2845,1.2673,1.2104,1.1486,1.0762,0.9762,0.9309,0.9309,0.8956,0.8804,0.8804,0.8804,0.8804,0.8804,0.8804,0.8804,0.8804,0.8804,0.8804,0.8804,0.8427,0.8049,0.767,0.6966,0.6253,0.5487,0.4838,0.4429,0.4358,0.4268,0.0,0.0,0.0,0.0,0.0,0.0,0.0,0.0,0.0,0.0,0.0985,0.0602,0.0465,0.0476,0.1551,0.2011,0.1424,0.2771,0.2592,0.018,0.0,0.0,0.0,0.0,0.0,0.0,0.0,0.0,0.0,0.0,0.0,0.0,0.0,0.0,0.0,0.0,0.0616,0.2076,0.1082,0.0578,0.1946,0.0,0.0,0.0,-0.1552,-0.2812,-0.2813,-0.4239,-0.5382,-0.5432,-0.5428,-0.5428,-0.5428,-0.5428,-0.5428,-0.5428,-0.5428,-0.5815,-0.712,-0.9167,-1.0406,-1.0085,-1.0301,-1.0618,-1.0618,-1.0618,-1.0618,-1.0604,-1.0321,-1.0099,1.2822,1.2598,1.1361,1.1113,1.1566,1.1007,1.0753,1.0759,0.0,0.0,0.0,1.2292,1.2794,1.3275,1.3143,1.2846,1.2235,1.1121,1.0391,0.9961,0.9372,0.9063,0.8956,0.8857,0.8804,0.8804,0.8804,0.8804,0.8804,0.8804,0.8804,0.8804,0.8804,0.8804,0.8758,0.8049,0.7616,0.7509,0.6804,0.6095,0.5542,0.4842,0.4406,0.4237,0.4425,0.4351,0.4066,0.4086,0.4014,0.3843,0.3867,0.323,0.1925,0.2533,0.2074,0.0,0.0,0.0,0.0,0.1376,0.1591,0.0103,0.1855,0.231,0.0686,0.0259,0.0,0.0,0.0,0.0,0.0,0.0,0.0,0.0,0.0,0.0,0.0,0.0,0.0,0.0,0.0,0.0,0.0,0.0,0.0,0.0,-0.0625,-0.0583,-0.0585,-0.2941,-0.4623,-0.3744,-0.4631,-0.5376,-0.5428,-0.5428,-0.5428,-0.5428,-0.5428,-0.5428,-0.5428,-0.5428,-0.6079,-0.7632,-0.9432,-1.038,-1.0595,-1.0555,-1.0618,-1.0618,-1.0618,-1.0618,-1.0534,-1.0367,-1.0287,1.251,1.1913,1.1149,1.0855,1.0914,1.0813,1.0641,1.0425,1.0808,1.1089,1.1397,1.2158,1.2431,1.2392,1.3422,1.3101,1.1565,1.0415,1.0165,1.0643,1.0265,0.9931,0.9621,0.9054,0.8804,0.8804,0.8804,0.8804,0.8804,0.8804,0.8804,0.8804,0.8804,0.8804,0.8752,0.8049,0.7396,0.675,0.6036,0.5597,0.5483,0.4842,0.4508,0.4484,0.4478,0.4404,0.416,0.4365,0.4278,0.3988,0.3783,0.3079,0.1899,0.1004,0.0353,0.0,0.0,0.0,0.0,0.0,0.0268,0.0055,0.0333,0.1205,0.2863,0.1198,0.0,0.0,0.0,0.0,0.0,0.0,0.0,0.0,0.0,0.0,0.0,0.0,0.0,0.0,0.0,0.0,0.0,0.0,0.0,0.0,-0.2317,-0.3466,-0.1588,-0.3076,-0.5106,-0.5106,-0.5239,-0.5372,-0.5432,-0.5428,-0.5428,-0.5428,-0.5428,-0.5428,-0.5428,-0.5428,-0.6013,-0.7697,-0.9432,-1.0451,-1.0588,-1.0618,-1.0618,-1.0618,-1.0618,-1.0618,-1.0618,-1.0501,-1.0564,1.2373,1.1413,1.024,0.9948,1.0226,1.0053,0.9944,1.0017,1.0144,1.0481,1.1012,1.1591,1.2116,1.2697,1.4128,1.3716,1.1848,1.0362,0.9791,0.9892,0.9752,0.9559,0.9232,0.8962,0.8804,0.8804,0.8804,0.8804,0.8804,0.8804,0.8804,0.8804,0.8804,0.8593,0.8156,0.7456,0.6745,0.6032,0.5651,0.5324,0.5003,0.4625,0.4463,0.4463,0.4511,0.4483,0.4372,0.4428,0.4033,0.3059,0.3717,0.3679,0.2817,0.1004,0.0,0.0,0.0,0.0,0.0,0.0,0.0,0.0,0.0,0.0446,0.1538,0.0667,0.0,0.0,0.0,0.0,0.0,0.0,0.0,0.0,0.0,0.0,0.0,0.0,0.0,0.0,0.0,0.0,0.0,0.0,0.0,0.0,-0.3146,-0.4541,-0.3084,-0.4236,-0.5399,-0.5379,-0.5372,-0.5435,-0.5428,-0.5428,-0.5428,-0.5428,-0.5428,-0.5428,-0.5428,-0.5428,-0.6145,-0.7707,-0.9432,-1.0451,-1.0588,-1.0618,-1.0618,-1.0618,-1.0618,-1.0618,-1.0618,-1.0618,-1.0618,1.1785,1.0988,0.959,0.9316,0.9749,0.9453,0.9506,0.9773,0.9838,1.01,1.0697,1.1086,1.1747,1.2586,1.4141,1.3764,1.1874,1.0521,0.9728,0.9359,0.9339,0.9123,0.8918,0.8844,0.8804,0.8804,0.8804,0.8804,0.8804,0.8804,0.8804,0.8752,0.8468,0.809,0.7723,0.6804,0.6091,0.5542,0.5324,0.5058,0.4515,0.4463,0.4463,0.4463,0.4477,0.4366,0.4027,0.432,0.3767,0.2376,0.3042,0.3558,0.3698,0.1382,0.0,0.0,0.0,0.0,0.0,0.0,0.0,0.0,0.0,0.0,0.0,0.0,0.0,0.0,0.0,0.0,0.0,0.0,0.0,0.0,0.0,0.0,0.0,0.0,0.0,0.0,0.0,0.0,0.0,0.0,0.0,0.0,-0.2465,-0.4252,-0.5129,-0.5396,-0.5386,-0.5376,-0.5432,-0.5428,-0.5428,-0.5428,-0.5428,-0.5428,-0.5428,-0.5428,-0.5428,-0.5428,-0.6079,-0.7712,-0.9432,-1.0444,-1.0595,-1.0618,-1.0618,-1.0618,-1.0618,-1.0618,-1.0618,-1.0618,-1.0618,1.0329,1.0635,0.99,0.9677,0.9707,0.9684,0.9806,1.006,1.0074,1.0234,1.0657,1.1112,1.109,1.1041,1.2498,1.2332,1.0847,1.0575,1.0221,0.9673,0.9646,0.9479,0.9165,0.8925,0.8804,0.8804,0.8804,0.8804,0.8804,0.8804,0.8804,0.8633,0.7452,0.7138,0.745,0.6303,0.5542,0.5483,0.4897,0.457,0.4519,0.4463,0.4467,0.4477,0.4477,0.3858,0.2681,0.3752,0.3808,0.2277,0.1113,0.1676,0.3699,0.1568,0.0,0.0,0.0,0.0,0.0,0.0,0.0,0.0,0.0,0.0,0.0,0.0,0.0,0.0,0.0,0.0,0.0,0.0,0.0,0.0,0.0,0.0,0.0,0.0,0.0,0.0,0.0,0.0,0.0,0.0,0.0,0.0,0.0,-0.2013,-0.4303,-0.5252,-0.5379,-0.5435,-0.5428,-0.5428,-0.5428,-0.5428,-0.5428,-0.5428,-0.5428,-0.5428,-0.5428,-0.5491,-0.5951,-0.7712,-0.9427,-1.0515,-1.0615,-1.0618,-1.0618,-1.0618,-1.0618,-1.0618,-1.0618,-1.0618,-1.0618,0.9913,1.0335,1.0258,1.0139,0.9947,0.994,1.0107,1.0374,1.0381,1.0448,1.0598,1.0788,1.0781,1.0669,1.1262,1.1176,1.0588,1.0613,1.0302,0.9719,0.9686,0.9439,0.8998,0.8871,0.8804,0.8804,0.8804,0.8804,0.8804,0.8804,0.8586,0.8096,0.7074,0.6533,0.6352,0.581,0.5324,0.4948,0.4625,0.4467,0.4473,0.4473,0.4473,0.448,0.4494,0.4271,0.3479,0.2521,0.2354,0.3261,0.1287,0.056,0.1738,0.0673,0.0,0.0,0.0,0.0,0.0,0.0,0.0,0.0,0.0,0.0,0.0,0.0,0.0,0.0,0.0,0.0,0.0,0.0,0.0,0.0,0.0,0.0,0.0,0.0,0.0,0.0,0.0,-0.0933,-0.2636,-0.317,-0.2254,0.0,0.0,0.0,-0.214,-0.3959,-0.5312,-0.5432,-0.5428,-0.5428,-0.5428,-0.5428,-0.5428,-0.5428,-0.5428,-0.5428,-0.5432,-0.5401,-0.5978,-0.7697,-0.9415,-1.0496,-1.0581,-1.0561,-1.0618,-1.0618,-1.0618,-1.0618,-1.0618,-1.0618,-1.0618,1.0036,1.0241,1.0513,1.0445,1.0241,1.0241,1.0361,1.0548,1.0618,1.0618,1.0618,1.0618,1.0618,1.0618,1.0618,1.0618,1.0618,1.0618,1.0403,0.9927,0.9766,0.9459,0.9058,0.8645,0.848,0.8493,0.8344,0.8256,0.836,0.8715,0.8352,0.7492,0.6514,0.5882,0.5538,0.5324,0.5003,0.457,0.4463,0.4467,0.4421,0.4082,0.4082,0.4432,0.4504,0.4113,0.3261,0.1176,0.0953,0.3098,0.1909,0.0841,0.0,0.0,0.0,0.0,0.0,0.0,0.0,0.0,0.0,0.0,0.0,0.0,0.0,0.0,0.0,0.0,-0.1233,0.0,-0.0056,-0.0905,-0.108,0.0,0.0,0.0,0.0,0.0,0.0,0.0,0.0,-0.2373,-0.4684,-0.5215,-0.4257,0.0,0.0,-0.0401,-0.0601,-0.3011,-0.5382,-0.5432,-0.5428,-0.5428,-0.5428,-0.5428,-0.5428,-0.5428,-0.5428,-0.5509,-0.5652,-0.569,-0.633,-0.8254,-0.9709,-1.0463,-1.0581,-1.0561,-1.0618,-1.0618,-1.0618,-1.0618,-1.0618,-1.0618,-1.0618,1.0604,1.0598,1.0598,1.0591,1.0598,1.0528,1.0598,1.0618,1.0618,1.0618,1.0618,1.0618,1.0618,1.0618,1.0618,1.0618,1.0618,1.0618,1.0514,1.0325,0.988,0.9673,0.9548,0.8355,0.7735,0.7716,0.7339,0.7198,0.7282,0.8224,0.8175,0.6889,0.5478,0.4952,0.5301,0.4901,0.4515,0.4515,0.4463,0.4467,0.4311,0.3128,0.319,0.434,0.4399,0.3033,0.0,0.0,0.0,0.0,0.2583,0.2807,0.0,0.0,0.0,0.0,0.0,0.0,0.0,0.0,0.0,0.0,0.0,0.0,0.0,0.0,0.0,-0.3884,-0.3837,-0.2988,-0.1072,-0.2713,-0.3229,-0.0822,0.0,0.0,0.0,0.0,0.0,0.0,-0.2691,-0.4399,-0.5267,-0.5382,-0.5336,-0.4541,-0.3553,-0.2139,-0.1333,-0.3409,-0.51,-0.5435,-0.5428,-0.5428,-0.5428,-0.5428,-0.5428,-0.5428,-0.5505,-0.5726,-0.61,-0.6597,-0.7598,-0.8651,-0.9857,-1.052,-1.0581,-1.0618,-1.0618,-1.0618,-1.0618,-1.0618,-1.0618,-1.0618,-1.0618,1.0618,1.0618,1.0618,1.0618,1.0618,1.0618,1.0618,1.0618,1.0618,1.0618,1.0618,1.0618,1.0618,1.0618,1.0618,1.0618,1.0618,1.0618,1.0197,0.9501,0.9242,0.8676,0.7886,0.7359,0.7178,0.7144,0.6982,0.6967,0.7096,0.7544,0.7267,0.6276,0.5096,0.4676,0.4872,0.4675,0.4463,0.4463,0.4467,0.448,0.4435,0.3931,0.3943,0.435,0.2583,0.1121,0.0,0.0,0.0,0.0,0.0,0.1122,0.0,0.0,0.0,0.0,0.0,-0.084,-0.2355,-0.1064,0.0,0.0,-0.1846,-0.2802,-0.2693,-0.2015,-0.1899,-0.2974,-0.4191,-0.3998,-0.354,-0.3574,-0.3682,-0.3578,-0.342,-0.329,-0.3434,-0.3412,-0.3061,-0.2277,-0.3063,-0.4001,-0.515,-0.5373,-0.5391,-0.5369,-0.477,-0.4087,-0.3813,-0.4761,-0.5376,-0.5432,-0.5428,-0.5428,-0.5428,-0.5428,-0.5428,-0.5428,-0.5498,-0.5899,-0.6324,-0.7391,-0.8385,-0.9071,-1.0155,-1.0591,-1.0658,-1.0575,-1.0638,-1.0648,-1.0641,-1.0628,-1.0618,-1.0604,-1.0641,1.0618,1.0618,1.0618,1.0618,1.0618,1.0618,1.0618,1.0618,1.0618,1.0618,1.0618,1.0618,1.0618,1.0618,1.0618,1.0434,1.0174,1.0168,0.9743,0.8992,0.8589,0.7946,0.715,0.6755,0.6615,0.6557,0.6383,0.6338,0.6498,0.6463,0.6136,0.564,0.4928,0.4656,0.4674,0.4538,0.4463,0.4463,0.447,0.4311,0.3925,0.4278,0.4005,0.2925,0.101,0.0,0.0,0.0,0.0,0.0,0.0,0.0,0.0,0.0,-0.0449,-0.1289,0.0,-0.2018,-0.3309,-0.2293,0.0,0.0,-0.3193,-0.4501,-0.4392,-0.353,-0.3016,-0.3263,-0.3981,-0.4852,-0.4726,-0.4031,-0.403,-0.5144,-0.5407,-0.5427,-0.5373,-0.5325,-0.4761,-0.388,-0.3673,-0.4287,-0.5106,-0.5372,-0.5372,-0.5376,-0.5376,-0.5372,-0.5372,-0.5372,-0.5466,-0.5497,-0.5511,-0.5549,-0.5637,-0.5848,-0.5681,-0.5589,-0.6017,-0.6342,-0.6951,-0.8067,-0.8922,-0.9602,-1.0129,-1.0507,-1.0692,-1.0665,-1.0661,-1.0762,-1.0802,-1.0808,-1.075,-1.0666,-1.0692,1.0618,1.0618,1.0618,1.0618,1.0618,1.0618,1.0618,1.0618,1.0618,1.0561,1.0428,1.0491,1.0364,1.0428,1.0295,1.0047,0.9396,0.9204,0.9128,0.8884,0.7996,0.7447,0.7192,0.6358,0.5992,0.5992,0.5286,0.5199,0.556,0.5321,0.5191,0.5104,0.5051,0.4857,0.4711,0.4579,0.4532,0.4539,0.4487,0.3799,0.2567,0.349,0.2876,0.0,0.0,0.0,0.0,0.0,0.0,0.0,0.0,0.0,0.0,0.0,-0.1345,-0.3485,-0.4225,-0.3652,-0.2736,-0.3583,-0.3984,-0.4039,-0.4383,-0.4501,-0.4468,-0.4389,-0.4271,-0.4326,-0.4589,-0.4834,-0.4914,-0.4908,-0.4991,-0.5353,-0.5401,-0.5404,-0.5425,-0.5372,-0.5379,-0.5183,-0.5109,-0.5309,-0.5376,-0.5369,-0.5428,-0.5432,-0.5432,-0.5379,-0.5396,-0.5403,-0.5511,-0.5686,-0.5731,-0.5682,-0.6,-0.6301,-0.6078,-0.5955,-0.6494,-0.6994,-0.763,-0.8571,-0.9133,-0.9796,-1.0289,-1.0678,-1.0782,-1.0782,-1.0889,-1.0969,-1.0989,-1.1154,-1.1354,-1.1315,-1.0843,1.0618,1.0618,1.0618,1.0618,1.0618,1.0618,1.0618,1.0618,1.0618,1.0301,0.9786,0.9722,0.939,0.893,0.8801,0.8678,0.835,0.7827,0.7502,0.7488,0.7108,0.6557,0.5955,0.5583,0.5369,0.5391,0.5304,0.5264,0.5335,0.5311,0.5287,0.5264,0.5265,0.5175,0.4969,0.4755,0.4619,0.4609,0.4531,0.3752,0.2237,0.1661,0.0,0.0,0.0,0.0,0.0,-0.1962,-0.3035,-0.2977,-0.2071,-0.1507,-0.1507,-0.1507,-0.1955,-0.2852,-0.3987,-0.4383,-0.3971,-0.4141,-0.4484,-0.4484,-0.448,-0.4591,-0.4666,-0.4597,-0.4579,-0.4731,-0.4833,-0.4911,-0.5053,-0.5203,-0.5346,-0.5425,-0.5404,-0.5428,-0.5432,-0.5432,-0.5432,-0.5369,-0.5369,-0.5432,-0.5432,-0.5428,-0.5428,-0.5439,-0.5439,-0.5399,-0.542,-0.5515,-0.5576,-0.5775,-0.5796,-0.604,-0.6583,-0.7086,-0.725,-0.7232,-0.7664,-0.791,-0.8464,-0.9002,-0.9551,-1.0026,-1.045,-1.0688,-1.0855,-1.0935,-1.1002,-1.1202,-1.1303,-1.1653,-1.2176,-1.2123,-1.1878,1.0618,1.0618,1.0618,1.0618,1.0618,1.0618,1.0618,1.0561,1.0238,0.9792,0.9332,0.8941,0.8544,0.8091,0.8027,0.7832,0.7502,0.6915,0.6527,0.6268,0.6203,0.5817,0.5223,0.5216,0.5216,0.523,0.5315,0.5428,0.5428,0.5428,0.5428,0.5401,0.5406,0.5262,0.5104,0.4847,0.4694,0.4742,0.4562,0.4002,0.2871,0.106,0.0,0.0,0.0,0.0,-0.1797,-0.3538,-0.4504,-0.4333,-0.353,-0.3077,-0.3077,-0.3019,-0.3072,-0.3239,-0.386,-0.4484,-0.4473,-0.4473,-0.4473,-0.4477,-0.4577,-0.4646,-0.4735,-0.4683,-0.4745,-0.4877,-0.4965,-0.5033,-0.5131,-0.5267,-0.5418,-0.5425,-0.5425,-0.5428,-0.5428,-0.5428,-0.5428,-0.5428,-0.5428,-0.5428,-0.5428,-0.5428,-0.5456,-0.549,-0.5518,-0.543,-0.5474,-0.5594,-0.5752,-0.5833,-0.5954,-0.6426,-0.7269,-0.7821,-0.8322,-0.8679,-0.9012,-0.9129,-0.9434,-0.9758,-1.0195,-1.0522,-1.094,-1.0868,-1.1002,-1.0915,-1.0929,-1.1242,-1.1901,-1.2687,-1.334,-1.3516,-1.3393,1.0561,1.0568,1.0561,1.0618,1.0618,1.0618,1.0618,1.0491,0.9849,0.9466,0.921,0.8484,0.7962,0.7897,0.7637,0.7181,0.6719,0.6588,0.6137,0.5686,0.5491,0.5411,0.5401,0.5332,0.5332,0.5411,0.5422,0.5428,0.5428,0.5428,0.5428,0.5415,0.5373,0.5286,0.5121,0.4863,0.4824,0.4779,0.4631,0.4441,0.416,0.1523,0.0,-0.0531,-0.2838,-0.4097,-0.4132,-0.432,-0.4484,-0.4494,-0.432,-0.4262,-0.4379,-0.4494,-0.4314,-0.4307,-0.4477,-0.4473,-0.4463,-0.4494,-0.4494,-0.457,-0.4744,-0.4889,-0.4758,-0.483,-0.4897,-0.4982,-0.5064,-0.5128,-0.5176,-0.5277,-0.5422,-0.5428,-0.5428,-0.5428,-0.5428,-0.5428,-0.5428,-0.5428,-0.5428,-0.5428,-0.5428,-0.5428,-0.5497,-0.5528,-0.5572,-0.556,-0.5548,-0.5686,-0.5967,-0.611,-0.6257,-0.71,-0.7961,-0.8881,-0.94,-1.0145,-1.0331,-1.0275,-1.0268,-1.0424,-1.0689,-1.1095,-1.1228,-1.1169,-1.1196,-1.1302,-1.1741,-1.2462,-1.3212,-1.4011,-1.4393,-1.4579,-1.4894,1.0601,1.0578,1.0588,1.0618,1.0618,1.0618,1.0618,1.0561,1.0364,0.9722,0.9204,0.842,0.7572,0.6981,0.6404,0.5951,0.5815,0.5749,0.5686,0.5425,0.5428,0.5428,0.5428,0.5428,0.5428,0.5428,0.5428,0.5428,0.5428,0.5428,0.5432,0.5376,0.5193,0.5242,0.5291,0.5128,0.5064,0.4846,0.4636,0.447,0.3936,0.1508,-0.112,-0.328,-0.4054,-0.4461,-0.4478,-0.4477,-0.4467,-0.447,-0.447,-0.447,-0.447,-0.4473,-0.4473,-0.447,-0.4473,-0.447,-0.4487,-0.4512,-0.4562,-0.4643,-0.4831,-0.4904,-0.5006,-0.4952,-0.5036,-0.5155,-0.5196,-0.5179,-0.5274,-0.5401,-0.5425,-0.5428,-0.5428,-0.5428,-0.5428,-0.5428,-0.5428,-0.5428,-0.5428,-0.5428,-0.5442,-0.5449,-0.5507,-0.5569,-0.5637,-0.5701,-0.5742,-0.6043,-0.6318,-0.6579,-0.6878,-0.7804,-0.8718,-0.9739,-1.0609,-1.1506,-1.1663,-1.1404,-1.1261,-1.1129,-1.1334,-1.1519,-1.1357,-1.1269,-1.1758,-1.2039,-1.281,-1.3502,-1.4213,-1.4772,-1.5384,-1.5765,-1.6111,0.9478,0.959,1.0289,1.0397,1.011,1.0434,1.0618,1.0428,0.9779,0.9262,0.8549,0.7447,0.6597,0.6075,0.5624,0.5428,0.5428,0.5428,0.5428,0.5428,0.5428,0.5428,0.5428,0.5428,0.5428,0.5428,0.5428,0.5432,0.5435,0.5369,0.5376,0.504,0.3818,0.3549,0.4151,0.4257,0.4598,0.491,0.4655,0.4039,0.2524,0.0971,-0.0962,-0.31,-0.3525,-0.3716,-0.4356,-0.4467,-0.4463,-0.4463,-0.4463,-0.4463,-0.4463,-0.4463,-0.4463,-0.4463,-0.4518,-0.4615,-0.4585,-0.4578,-0.4595,-0.475,-0.4985,-0.5095,-0.5108,-0.5101,-0.5209,-0.5304,-0.5267,-0.5281,-0.5332,-0.5428,-0.5428,-0.5428,-0.5428,-0.5428,-0.5428,-0.5428,-0.5428,-0.5428,-0.5428,-0.5393,-0.5443,-0.5454,-0.5566,-0.5715,-0.5803,-0.5848,-0.5996,-0.6403,-0.7052,-0.7613,-0.7944,-0.8756,-0.9427,-1.0306,-1.0971,-1.197,-1.2171,-1.2091,-1.1931,-1.167,-1.1774,-1.176,-1.1543,-1.1559,-1.2068,-1.2668,-1.3346,-1.4025,-1.4819,-1.5713,-1.6363,-1.6633,-1.7064,0.7892,0.7827,0.9373,0.9707,0.9274,0.9977,1.0104,0.997,0.8801,0.8156,0.7767,0.6338,0.5881,0.5557,0.5557,0.5428,0.5428,0.5428,0.5428,0.5428,0.5428,0.5428,0.5428,0.5428,0.5428,0.5432,0.5428,0.5369,0.5376,0.5379,0.5386,0.464,0.2006,0.1136,0.2138,0.2424,0.3312,0.4048,0.3716,0.2531,0.0,0.0,-0.0922,-0.2309,-0.3051,-0.3553,-0.4267,-0.4591,-0.4594,-0.4518,-0.4536,-0.4519,-0.4463,-0.4467,-0.4494,-0.4528,-0.4633,-0.4714,-0.4735,-0.4606,-0.4629,-0.4839,-0.5203,-0.535,-0.5189,-0.5257,-0.5394,-0.5422,-0.5428,-0.5415,-0.5422,-0.5428,-0.5428,-0.5428,-0.5428,-0.5428,-0.5428,-0.5428,-0.5428,-0.5428,-0.5428,-0.5433,-0.5535,-0.5616,-0.5688,-0.5864,-0.5939,-0.6023,-0.6359,-0.6866,-0.8071,-0.9555,-0.9677,-0.9744,-1.034,-1.0852,-1.1452,-1.2137,-1.2218,-1.2225,-1.2191,-1.2051,-1.2091,-1.2051,-1.1884,-1.2043,-1.2395,-1.3075,-1.3886,-1.4844,-1.5903,-1.6803,-1.7638,-1.7482,-1.7687,0.7219,0.6017,0.6383,0.7187,0.8215,0.8474,0.8608,0.8544,0.8156,0.7897,0.7697,0.6854,0.64,0.6334,0.5686,0.5428,0.5428,0.5428,0.5428,0.5428,0.5428,0.5428,0.5428,0.5428,0.5369,0.5372,0.5376,0.5382,0.5389,0.5393,0.5329,0.4718,0.1877,0.0,0.0,0.0,0.0,0.0,0.0,0.08,0.0,0.0,-0.113,-0.2589,-0.3645,-0.4366,-0.4667,-0.4823,-0.4823,-0.4765,-0.4613,-0.4501,-0.4514,-0.4589,-0.4636,-0.4674,-0.4782,-0.487,-0.4833,-0.4869,-0.4889,-0.5038,-0.5206,-0.538,-0.5377,-0.5397,-0.5428,-0.5428,-0.5428,-0.5428,-0.5428,-0.5428,-0.5428,-0.5428,-0.5428,-0.5428,-0.5428,-0.5428,-0.5428,-0.5428,-0.5439,-0.542,-0.5569,-0.5686,-0.582,-0.5969,-0.6143,-0.6112,-0.6623,-0.7306,-0.898,-1.0755,-1.0825,-1.072,-1.087,-1.1391,-1.1768,-1.215,-1.2231,-1.2305,-1.2278,-1.2405,-1.2451,-1.2378,-1.2218,-1.2469,-1.2906,-1.4072,-1.5043,-1.6026,-1.684,-1.7463,-1.7862,-1.8008,-1.8008,0.6256,0.5453,0.5411,0.614,0.7367,0.7832,0.8027,0.7892,0.7567,0.7372,0.7177,0.6465,0.6075,0.6075,0.5624,0.5428,0.5428,0.5428,0.5428,0.5428,0.5428,0.5432,0.5369,0.5369,0.5376,0.5312,0.4428,0.457,0.5196,0.5132,0.4453,0.2963,0.0,0.0,0.0,0.0,0.0,0.0,0.0,-0.0674,-0.2228,-0.256,-0.2722,-0.3697,-0.4508,-0.4885,-0.4921,-0.4975,-0.4914,-0.488,-0.4769,-0.4677,-0.4684,-0.4752,-0.4792,-0.4823,-0.4935,-0.5013,-0.4988,-0.5081,-0.5172,-0.5233,-0.5321,-0.5411,-0.5428,-0.5428,-0.5428,-0.5428,-0.5428,-0.5428,-0.5428,-0.5428,-0.5428,-0.5428,-0.5425,-0.5428,-0.5428,-0.5428,-0.5428,-0.5446,-0.543,-0.5542,-0.5703,-0.6194,-0.6584,-0.7009,-0.7722,-0.7694,-0.7044,-0.7951,-0.9938,-1.1364,-1.1534,-1.1552,-1.1626,-1.1848,-1.2077,-1.2231,-1.2305,-1.2305,-1.2291,-1.2586,-1.2872,-1.2718,-1.2638,-1.3004,-1.3606,-1.4871,-1.5869,-1.6401,-1.7033,-1.7638,-1.8008,-1.8008,-1.8008,0.5428,0.5425,0.5384,0.5844,0.6523,0.7246,0.7507,0.7437,0.6854,0.6527,0.6396,0.5686,0.5557,0.5428,0.5425,0.5428,0.5428,0.5428,0.5428,0.5432,0.5432,0.5372,0.5379,0.5382,0.5386,0.5179,0.4231,0.4172,0.4113,0.4389,0.2762,0.0,0.0,0.0,0.0,0.0,0.0,0.0,0.0,-0.2294,-0.4476,-0.494,-0.4995,-0.4971,-0.4996,-0.5008,-0.5057,-0.5088,-0.5133,-0.4986,-0.4986,-0.4986,-0.4979,-0.4955,-0.4952,-0.4955,-0.5084,-0.5283,-0.5431,-0.539,-0.5397,-0.5411,-0.5815,-0.5885,-0.5951,-0.6013,-0.6079,-0.6013,-0.6013,-0.6013,-0.5818,-0.6017,-0.5811,-0.5474,-0.5408,-0.5415,-0.5488,-0.5568,-0.6085,-0.5822,-0.6037,-0.6229,-0.6766,-0.7266,-0.7629,-0.8103,-0.8812,-0.9125,-0.8458,-0.8595,-1.0588,-1.1714,-1.1893,-1.1935,-1.2003,-1.2003,-1.2231,-1.2305,-1.2305,-1.2378,-1.2452,-1.2879,-1.3164,-1.3164,-1.3237,-1.3738,-1.445,-1.5508,-1.6289,-1.6706,-1.7207,-1.7862,-1.8008,-1.8008,-1.8008,0.5428,0.5428,0.5422,0.5488,0.562,0.5818,0.5951,0.5818,0.5752,0.562,0.562,0.5491,0.5428,0.5428,0.5428,0.5428,0.5428,0.5428,0.5435,0.5372,0.5306,0.5176,0.5393,0.5399,0.5406,0.5339,0.4517,0.3299,0.1616,0.0741,0.0,0.0,0.0,0.0,0.0,0.0,0.0,0.0,-0.2498,-0.4263,-0.4803,-0.5343,-0.5389,-0.5318,-0.5242,-0.5291,-0.5281,-0.5343,-0.5356,-0.5287,-0.5287,-0.5343,-0.5363,-0.5212,-0.5167,-0.5125,-0.5345,-0.5676,-0.614,-0.5817,-0.5487,-0.5737,-0.6759,-0.7512,-0.7582,-0.7447,-0.7246,-0.7312,-0.7377,-0.7442,-0.7567,-0.7312,-0.675,-0.6005,-0.5621,-0.5647,-0.5947,-0.6789,-0.7618,-0.7219,-0.7134,-0.7138,-0.7718,-0.8349,-0.8802,-0.9155,-0.9653,-0.9895,-0.9562,-0.9852,-1.1037,-1.1825,-1.221,-1.2251,-1.2231,-1.2231,-1.2305,-1.2372,-1.2372,-1.2519,-1.2732,-1.3237,-1.352,-1.3947,-1.4378,-1.5021,-1.5728,-1.6358,-1.6862,-1.7364,-1.7716,-1.8008,-1.8008,-1.8008,-1.8008,0.5428,0.5428,0.5428,0.5428,0.5428,0.5428,0.5428,0.5428,0.5428,0.5428,0.5428,0.5428,0.5428,0.5428,0.5428,0.5428,0.5369,0.5369,0.5376,0.5316,0.4564,0.464,0.5196,0.5343,0.5423,0.4809,0.3581,0.1885,0.0,0.0,0.0,0.0,0.0,0.0,0.0,0.0,-0.2491,-0.31,-0.3641,-0.4113,-0.4239,-0.4849,-0.5386,-0.5376,-0.5369,-0.5435,-0.5428,-0.5428,-0.5425,-0.5422,-0.5425,-0.562,-0.592,-0.5944,-0.5754,-0.5513,-0.5771,-0.6203,-0.6715,-0.6563,-0.6811,-0.6997,-0.8306,-0.9221,-0.9079,-0.8592,-0.8156,-0.8027,-0.8027,-0.8027,-0.7957,-0.8086,-0.7543,-0.6997,-0.675,-0.6872,-0.7304,-0.8265,-0.8559,-0.8638,-0.8533,-0.8546,-0.8707,-0.9332,-0.9829,-1.0209,-1.049,-1.0576,-1.0651,-1.1031,-1.1645,-1.1874,-1.2264,-1.2325,-1.2305,-1.2305,-1.2452,-1.2519,-1.2659,-1.2806,-1.3361,-1.4004,-1.4712,-1.535,-1.586,-1.6158,-1.6437,-1.6862,-1.7442,-1.7872,-1.794,-1.8008,-1.8008,-1.8008,-1.8008,0.5428,0.5428,0.5428,0.5428,0.5428,0.5428,0.5428,0.5428,0.5428,0.5428,0.5428,0.5428,0.5428,0.5428,0.5432,0.5372,0.5312,0.4834,0.4431,0.5189,0.4233,0.4036,0.4046,0.4937,0.4462,0.148,0.0269,-0.0674,0.0,0.0,0.0,0.0,0.0,0.0,0.0,-0.3232,-0.4861,-0.4925,-0.4102,-0.3284,-0.3618,-0.4561,-0.5369,-0.5428,-0.5428,-0.5428,-0.5428,-0.5958,-0.5954,-0.5951,-0.5947,-0.6272,-0.6785,-0.6981,-0.6658,-0.621,-0.6593,-0.6915,-0.7367,-0.7483,-0.7931,-0.8522,-0.9808,-1.0387,-1.0309,-0.9432,-0.8672,-0.8544,-0.8608,-0.8672,-0.8807,-0.8603,-0.8603,-0.856,-0.8538,-0.8706,-0.9159,-0.9633,-0.9933,-0.9959,-0.9835,-0.9991,-1.0183,-1.0443,-1.1027,-1.1119,-1.1397,-1.1477,-1.1552,-1.1706,-1.2083,-1.2157,-1.2311,-1.2311,-1.2305,-1.2305,-1.2592,-1.2952,-1.3244,-1.3455,-1.4212,-1.5043,-1.5685,-1.6192,-1.6706,-1.7001,-1.7217,-1.7285,-1.7716,-1.794,-1.8008,-1.8008,-1.8008,-1.8008,-1.8008,0.5428,0.5428,0.5428,0.5428,0.5428,0.5428,0.5428,0.5428,0.5428,0.5428,0.5428,0.5428,0.5428,0.5432,0.5376,0.5382,0.4567,0.2609,0.2546,0.4314,0.4317,0.269,0.1414,0.4201,0.1276,-0.1612,-0.3636,-0.2762,0.0,0.0,0.0,0.0,-0.276,-0.4593,-0.3976,-0.3902,-0.3828,-0.5052,-0.5122,-0.4976,-0.4967,-0.5233,-0.5362,-0.5428,-0.5428,-0.5428,-0.5627,-0.6494,-0.7086,-0.6593,-0.7246,-0.7637,-0.7827,-0.7832,-0.7832,-0.7767,-0.7897,-0.8156,-0.8613,-0.8522,-0.8768,-0.9703,-1.0461,-1.0588,-1.0461,-1.0397,-0.997,-1.0295,-1.0168,-1.0161,-1.0098,-1.0231,-1.0301,-1.0117,-0.9947,-1.0324,-1.0814,-1.0761,-1.1012,-1.1019,-1.087,-1.1334,-1.1704,-1.1883,-1.2144,-1.2144,-1.2224,-1.2298,-1.2305,-1.2305,-1.2305,-1.2305,-1.2305,-1.2305,-1.2519,-1.2445,-1.2886,-1.3317,-1.3954,-1.4314,-1.5076,-1.5826,-1.6175,-1.6688,-1.7267,-1.7638,-1.7647,-1.7794,-1.794,-1.8008,-1.8008,-1.8008,-1.8008,-1.8008,-1.8008,0.5428,0.5428,0.5428,0.5428,0.5428,0.5428,0.5428,0.5428,0.5428,0.5428,0.5428,0.5369,0.5376,0.5379,0.5386,0.5396,0.4579,0.1607,0.0,0.0,0.2154,0.0403,-0.2084,-0.1546,-0.2958,-0.3224,-0.4785,-0.4721,-0.3027,-0.1947,-0.1544,-0.1812,-0.309,-0.4308,-0.5262,-0.4637,-0.4767,-0.5246,-0.5382,-0.5372,-0.5435,-0.5428,-0.5428,-0.5428,-0.5428,-0.5428,-0.5826,-0.703,-0.7484,-0.7055,-0.7502,-0.8285,-0.8613,-0.8812,-0.8877,-0.9454,-0.9454,-0.946,-0.9332,-0.9366,-0.9888,-1.0218,-1.0618,-1.0561,-1.0618,-1.0618,-1.0618,-1.0555,-1.0555,-1.08,-1.117,-1.1288,-1.0954,-1.0836,-1.0833,-1.1393,-1.1796,-1.1963,-1.2016,-1.1939,-1.1978,-1.2398,-1.2739,-1.2659,-1.2586,-1.2439,-1.2432,-1.2432,-1.2372,-1.2305,-1.2305,-1.2305,-1.2305,-1.2305,-1.2592,-1.2732,-1.3237,-1.3882,-1.5226,-1.5587,-1.6009,-1.6558,-1.6904,-1.7189,-1.7638,-1.793,-1.8008,-1.8008,-1.8008,-1.8008,-1.8008,-1.8008,-1.8008,-1.8008,-1.8008,0.5428,0.5428,0.5428,0.5428,0.5428,0.5428,0.5428,0.5428,0.5432,0.5432,0.5233,0.4967,0.4909,0.5333,0.5262,0.4788,0.3708,0.1208,0.0,0.0,-0.1212,-0.2827,-0.4182,-0.4861,-0.4306,-0.3349,-0.4843,-0.5116,-0.484,-0.4159,-0.3349,-0.3351,-0.3687,-0.4298,-0.5046,-0.5243,-0.5306,-0.5372,-0.5435,-0.5428,-0.5428,-0.5428,-0.5428,-0.5428,-0.5428,-0.5428,-0.5693,-0.7082,-0.7531,-0.7447,-0.828,-0.9128,-0.953,-0.9652,-0.9849,-1.0238,-1.0295,-1.0174,-1.0047,-1.0098,-1.0491,-1.0618,-1.0618,-1.0618,-1.0618,-1.0618,-1.0618,-1.0618,-1.0926,-1.1226,-1.1648,-1.1896,-1.1896,-1.1589,-1.1383,-1.2073,-1.2736,-1.3167,-1.3442,-1.3452,-1.3461,-1.3266,-1.3448,-1.323,-1.3091,-1.2806,-1.2725,-1.2712,-1.2631,-1.2638,-1.2485,-1.2551,-1.2445,-1.2519,-1.3025,-1.331,-1.3745,-1.4522,-1.579,-1.6645,-1.6932,-1.7217,-1.7569,-1.7862,-1.8144,-1.8008,-1.8008,-1.8008,-1.8008,-1.8008,-1.8008,-1.8008,-1.8008,-1.7998,-1.8076,0.5428,0.5428,0.5428,0.5428,0.5428,0.5428,0.5428,0.5432,0.5372,0.5379,0.5173,0.3956,0.4169,0.4724,0.452,0.3234,0.0539,0.0135,0.0,0.0,-0.3167,-0.459,-0.5406,-0.5329,-0.5252,-0.5036,-0.5379,-0.5372,-0.5365,-0.5096,-0.4967,-0.5186,-0.4767,-0.5106,-0.5379,-0.5372,-0.5432,-0.5432,-0.5428,-0.5428,-0.5428,-0.5428,-0.5428,-0.5428,-0.5428,-0.5428,-0.5491,-0.7129,-0.8107,-0.7957,-0.9256,-1.0034,-1.0238,-1.0301,-1.0428,-1.0491,-1.0618,-1.0491,-1.0428,-1.0428,-1.0555,-1.0618,-1.0618,-1.0618,-1.0618,-1.0618,-1.0618,-1.0618,-1.0989,-1.1622,-1.1981,-1.2351,-1.2647,-1.2995,-1.3116,-1.3859,-1.4494,-1.4882,-1.5076,-1.5021,-1.4736,-1.4378,-1.4522,-1.4371,-1.4091,-1.3803,-1.3867,-1.3924,-1.3425,-1.3273,-1.2984,-1.2853,-1.2631,-1.2865,-1.3528,-1.4027,-1.4728,-1.5438,-1.6428,-1.7148,-1.7657,-1.794,-1.7988,-1.8414,-1.8549,-1.8279,-1.8202,-1.8586,-1.8654,-1.8202,-1.8008,-1.8008,-1.8037,-1.8007,-1.8104,0.5382,0.5382,0.5382,0.5379,0.5372,0.5382,0.5382,0.5382,0.5386,0.5393,0.5262,0.4648,0.35,0.0,0.0,0.1482,0.0,0.0,0.0,-0.3032,-0.4797,-0.5336,-0.5399,-0.5389,-0.5376,-0.5439,-0.5435,-0.5435,-0.5428,-0.5557,-0.5428,-0.5372,-0.5435,-0.5369,-0.5365,-0.5432,-0.5428,-0.5428,-0.5428,-0.5428,-0.5428,-0.5428,-0.5428,-0.5428,-0.5428,-0.5752,-0.6268,-0.7372,-0.8156,-0.8941,-0.9977,-1.0428,-1.0618,-1.0618,-1.0618,-1.0618,-1.0618,-1.0618,-1.0618,-1.0618,-1.0618,-1.0618,-1.0618,-1.0618,-1.0618,-1.0618,-1.0618,-1.0744,-1.0947,-1.1556,-1.2869,-1.3222,-1.3572,-1.4311,-1.4989,-1.561,-1.612,-1.6419,-1.6167,-1.5833,-1.5384,-1.5021,-1.5305,-1.5649,-1.5226,-1.4879,-1.5005,-1.5059,-1.464,-1.4498,-1.4466,-1.4014,-1.3787,-1.3867,-1.445,-1.5084,-1.5711,-1.6349,-1.706,-1.7472,-1.7949,-1.8004,-1.8088,-1.8619,-1.9285,-1.9483,-1.9605,-1.9639,-1.9299,-1.8721,-1.8269,-1.8008,-1.8027,-1.8083,-1.8228,0.5122,0.4712,0.5192,0.5052,0.4634,0.457,0.4576,0.4712,0.5192,0.4584,0.3845,0.3641,0.2491,0.0,0.0,0.0,0.0,0.0,0.0,-0.4456,-0.5269,-0.5396,-0.5382,-0.5376,-0.5435,-0.5428,-0.5752,-0.5815,-0.5881,-0.6079,-0.5873,-0.5675,-0.5683,-0.5686,-0.5428,-0.5428,-0.5428,-0.5428,-0.5428,-0.5428,-0.5428,-0.5428,-0.5428,-0.5422,-0.5415,-0.5866,-0.6854,-0.8042,-0.8894,-0.9408,-1.0047,-1.0491,-1.0618,-1.0618,-1.0618,-1.0618,-1.0618,-1.0618,-1.0618,-1.0618,-1.0618,-1.0618,-1.0618,-1.0618,-1.0618,-1.0618,-1.0618,-1.0631,-1.0939,-1.1772,-1.349,-1.392,-1.4725,-1.5495,-1.5872,-1.6457,-1.7081,-1.742,-1.6996,-1.6551,-1.6254,-1.6228,-1.6367,-1.6793,-1.6636,-1.6358,-1.6437,-1.6507,-1.6358,-1.6333,-1.6607,-1.5972,-1.5259,-1.5392,-1.5587,-1.6,-1.6349,-1.7001,-1.756,-1.7697,-1.7986,-1.8095,-1.8806,-1.9857,-2.0488,-2.0918,-2.0744,-2.0313,-1.977,-1.9177,-1.8911,-1.8911,-1.8342,-1.8471,-1.8583,0.4303,0.3082,0.4584,0.4311,0.3149,0.2744,0.2746,0.295,0.4177,0.3301,0.0,0.0,0.0,0.0,0.0,0.0,0.0,-0.3507,-0.5071,-0.5269,-0.5393,-0.5382,-0.5376,-0.5369,-0.5432,-0.562,-0.6009,-0.6461,-0.6593,-0.7116,-0.6767,-0.6106,-0.6117,-0.6005,-0.5425,-0.5428,-0.5428,-0.5428,-0.5428,-0.5428,-0.5428,-0.5428,-0.5428,-0.5613,-0.5456,-0.584,-0.7372,-0.9057,-0.9777,-0.9734,-1.0238,-1.0561,-1.0618,-1.0618,-1.0618,-1.0618,-1.0618,-1.0618,-1.0681,-1.0618,-1.0611,-1.0618,-1.0618,-1.0618,-1.0618,-1.0618,-1.0618,-1.0631,-1.1262,-1.2319,-1.3525,-1.4504,-1.5512,-1.6487,-1.6817,-1.7102,-1.7736,-1.7969,-1.747,-1.7185,-1.7598,-1.7862,-1.7872,-1.794,-1.792,-1.7852,-1.793,-1.7862,-1.7716,-1.8144,-1.8399,-1.7577,-1.6738,-1.6724,-1.6766,-1.6697,-1.706,-1.7647,-1.8114,-1.8305,-1.8461,-1.8582,-1.9587,-2.1039,-2.1911,-2.2452,-2.1644,-2.0786,-2.0781,-2.0904,-2.0324,-1.9976,-1.9327,-1.8895,-1.8994,0.2154,0.2626,0.2088,0.29,0.3986,0.1884,0.0,0.1008,0.1481,0.0,0.0,0.0,0.0,0.0,0.0,-0.1348,-0.3574,-0.4118,-0.541,-0.5389,-0.5379,-0.5376,-0.5369,-0.5432,-0.5428,-0.562,-0.6203,-0.6785,-0.6654,-0.7762,-0.7822,-0.7223,-0.6567,-0.5654,-0.5484,-0.5428,-0.5428,-0.5428,-0.5428,-0.5428,-0.5428,-0.5495,-0.5752,-0.6199,-0.5832,-0.6485,-0.8156,-0.9918,-1.0302,-1.0117,-1.0561,-1.0555,-1.0618,-1.0618,-1.0618,-1.0618,-1.0618,-1.0996,-1.1156,-1.119,-1.0607,-1.0647,-1.0611,-1.0611,-1.0624,-1.0618,-1.0618,-1.0698,-1.1251,-1.2412,-1.3762,-1.4421,-1.5507,-1.7159,-1.7678,-1.7687,-1.8008,-1.8018,-1.7803,-1.7803,-1.8008,-1.8076,-1.8076,-1.8529,-1.8654,-1.8988,-1.9065,-1.8552,-1.8235,-1.9386,-2.0063,-1.8992,-1.8205,-1.8103,-1.8017,-1.7997,-1.8123,-1.8623,-1.8946,-1.9027,-1.9165,-1.935,-2.0512,-2.206,-2.3103,-2.3903,-2.3062,-2.2472,-2.2898,-2.2962,-2.2074,-2.1282,-2.0664,-1.9933,-1.9318,0.0674,0.1553,0.0472,0.1274,0.3008,0.1007,0.0,0.0,0.0,0.0,0.0,0.0,0.0,0.0,-0.155,-0.2627,-0.5343,-0.5403,-0.5399,-0.5379,-0.5372,-0.5435,-0.5428,-0.5425,-0.5428,-0.5686,-0.6531,-0.7177,-0.7307,-0.8415,-0.8672,-0.8275,-0.7632,-0.7186,-0.6609,-0.6013,-0.5428,-0.5491,-0.5624,-0.5947,-0.6013,-0.621,-0.6666,-0.6907,-0.7084,-0.7469,-0.9005,-1.0015,-1.0621,-1.0575,-1.0618,-1.0618,-1.0618,-1.0618,-1.0618,-1.0618,-1.0681,-1.1129,-1.1608,-1.1988,-1.1677,-1.1894,-1.1163,-1.0773,-1.0856,-1.0807,-1.0712,-1.0826,-1.129,-1.2615,-1.4064,-1.4688,-1.5961,-1.7638,-1.7998,-1.7998,-1.7998,-1.8008,-1.8008,-1.8008,-1.8076,-1.8144,-1.8462,-1.8854,-1.9233,-1.9715,-2.0118,-1.9576,-1.9133,-2.0246,-2.133,-2.0627,-1.9695,-1.9412,-1.9344,-1.9399,-1.953,-1.9672,-1.9814,-1.9955,-2.0324,-2.0635,-2.1863,-2.3008,-2.379,-2.4392,-2.438,-2.4291,-2.4188,-2.3897,-2.3356,-2.258,-2.2001,-2.1415,-2.0848,0.0,0.0,0.0,0.0,0.0,0.0,0.0,0.0,0.0,0.0,0.0,0.0,0.0,0.0,-0.3641,-0.4931,-0.5336,-0.5389,-0.5362,-0.5362,-0.5352,-0.5411,-0.5408,-0.5348,-0.5425,-0.5947,-0.6859,-0.7697,-0.8091,-0.9384,-0.9779,-0.9612,-0.9608,-0.8868,-0.7787,-0.6662,-0.6017,-0.6145,-0.6465,-0.6724,-0.6789,-0.7312,-0.7702,-0.7947,-0.82,-0.865,-0.9588,-1.0187,-1.0504,-1.0618,-1.0618,-1.0618,-1.0618,-1.0618,-1.0618,-1.0681,-1.0744,-1.1373,-1.2313,-1.2707,-1.3152,-1.318,-1.2166,-1.165,-1.1432,-1.1421,-1.1382,-1.1689,-1.2211,-1.3369,-1.4554,-1.5608,-1.6771,-1.7501,-1.794,-1.8008,-1.8008,-1.8008,-1.8008,-1.8076,-1.8202,-1.8462,-1.9177,-1.9694,-2.0139,-2.0655,-2.106,-2.1227,-2.0882,-2.1026,-2.1926,-2.2353,-2.147,-2.0707,-2.059,-2.0473,-2.0747,-2.0868,-2.0944,-2.1084,-2.141,-2.1981,-2.2823,-2.3712,-2.4429,-2.4858,-2.5096,-2.5096,-2.4906,-2.4561,-2.4218,-2.4014,-2.3377,-2.3704,-2.3426,0.0,0.0,0.0,0.0,0.0,0.0,0.0,0.0,0.0,0.0,0.0,-0.2762,-0.3437,-0.3979,-0.3632,-0.4367,-0.4973,-0.5362,-0.5287,-0.5274,-0.5291,-0.5267,-0.5267,-0.5291,-0.5404,-0.6005,-0.6976,-0.8071,-0.8415,-0.9779,-1.0555,-1.0321,-1.0463,-0.9783,-0.8905,-0.7837,-0.7447,-0.7251,-0.7567,-0.7572,-0.7697,-0.8027,-0.8415,-0.8865,-0.8918,-0.9378,-1.0104,-1.0364,-1.0618,-1.0618,-1.0618,-1.0618,-1.0618,-1.0618,-1.0744,-1.1406,-1.1586,-1.2027,-1.3243,-1.3245,-1.3494,-1.4524,-1.407,-1.3467,-1.2972,-1.2405,-1.222,-1.2521,-1.3136,-1.4239,-1.5178,-1.6188,-1.7114,-1.7647,-1.8066,-1.8182,-1.8259,-1.8482,-1.8482,-1.8529,-1.8654,-1.9299,-2.0009,-2.0666,-2.1175,-2.1616,-2.199,-2.2187,-2.2334,-2.2333,-2.2368,-2.2809,-2.271,-2.1812,-2.1336,-2.1169,-2.1644,-2.201,-2.2081,-2.2462,-2.3248,-2.3689,-2.3996,-2.44,-2.4981,-2.5523,-2.6,-2.5862,-2.5598,-2.5448,-2.5165,-2.5049,-2.495,-2.4895,-2.4999,-0.1792,-0.1791,-0.1791,-0.1419,-0.0925,-0.0868,-0.0954,-0.0923,-0.0335,0.0,0.0,-0.371,-0.5413,-0.5122,-0.432,-0.4347,-0.5205,-0.5189,-0.5121,-0.5114,-0.5199,-0.5145,-0.5142,-0.525,-0.5499,-0.6169,-0.7081,-0.8106,-0.8709,-0.9716,-1.0555,-1.0561,-1.0621,-1.0283,-0.9798,-0.9326,-0.9128,-0.8871,-0.8742,-0.8554,-0.8613,-0.8807,-0.939,-0.9582,-0.9506,-0.997,-1.0428,-1.0555,-1.0618,-1.0618,-1.0618,-1.0807,-1.1045,-1.1351,-1.1663,-1.2266,-1.2328,-1.287,-1.3708,-1.3348,-1.4037,-1.4904,-1.539,-1.4881,-1.407,-1.3373,-1.3133,-1.3168,-1.4098,-1.4972,-1.5761,-1.6557,-1.7214,-1.794,-1.8114,-1.8355,-1.8643,-1.9019,-1.9131,-1.9177,-1.9617,-2.0257,-2.091,-2.1553,-2.2075,-2.2372,-2.2567,-2.2689,-2.2823,-2.2775,-2.2763,-2.2973,-2.3021,-2.2702,-2.2296,-2.2139,-2.2751,-2.3232,-2.3466,-2.398,-2.4881,-2.4978,-2.4797,-2.5037,-2.5511,-2.5912,-2.6251,-2.642,-2.6269,-2.6013,-2.5862,-2.577,-2.5436,-2.5099,-2.5331,-0.4189,-0.4363,-0.4494,-0.3547,-0.2502,-0.2383,-0.2557,-0.2629,-0.1316,0.0,-0.1003,-0.3813,-0.5338,-0.5147,-0.4794,-0.4747,-0.5104,-0.5033,-0.4969,-0.4914,-0.505,-0.5033,-0.4979,-0.5036,-0.5479,-0.6366,-0.7351,-0.8285,-0.9348,-1.0174,-1.0618,-1.0618,-1.0561,-1.0434,-1.0364,-1.0295,-1.0098,-0.9977,-0.9652,-0.9396,-0.9594,-1.004,-1.0618,-1.0491,-1.0491,-1.0555,-1.0555,-1.0618,-1.0618,-1.0618,-1.08,-1.1108,-1.1841,-1.2389,-1.2765,-1.307,-1.3122,-1.3597,-1.4058,-1.3909,-1.4282,-1.4944,-1.542,-1.5245,-1.4697,-1.4213,-1.3969,-1.4118,-1.4926,-1.5514,-1.6263,-1.7006,-1.7697,-1.7968,-1.8091,-1.9131,-2.0457,-2.0435,-2.0096,-2.0204,-2.0526,-2.1101,-2.1729,-2.2384,-2.2457,-2.2884,-2.3005,-2.3065,-2.3125,-2.3125,-2.314,-2.319,-2.328,-2.3342,-2.3269,-2.3293,-2.3914,-2.4404,-2.4616,-2.5003,-2.5561,-2.5528,-2.5393,-2.5665,-2.595,-2.6063,-2.6357,-2.6445,-2.6508,-2.6433,-2.6276,-2.6377,-2.6095,-2.5548,-2.5598,-0.2414,-0.4444,-0.4495,-0.4256,-0.3983,-0.396,-0.3968,-0.4055,-0.3898,-0.287,-0.226,-0.3824,-0.4938,-0.4942,-0.4951,-0.4914,-0.4952,-0.4891,-0.4843,-0.4826,-0.4897,-0.488,-0.4802,-0.5012,-0.5502,-0.6227,-0.7235,-0.8675,-0.9914,-1.0428,-1.0618,-1.0618,-1.0618,-1.0618,-1.0618,-1.0618,-1.0561,-1.0561,-1.0364,-1.011,-1.0238,-1.0364,-1.0618,-1.0618,-1.0618,-1.0618,-1.0618,-1.0618,-1.0618,-1.0618,-1.1226,-1.1896,-1.2696,-1.2948,-1.3312,-1.3795,-1.3914,-1.4332,-1.4678,-1.469,-1.4953,-1.508,-1.542,-1.542,-1.5235,-1.4991,-1.4937,-1.5251,-1.5652,-1.6195,-1.6828,-1.7625,-1.8055,-1.8051,-1.8207,-2.0129,-2.2034,-2.1638,-2.1071,-2.1239,-2.1565,-2.2002,-2.2567,-2.2823,-2.2957,-2.3017,-2.3065,-2.3125,-2.3125,-2.3138,-2.3263,-2.3389,-2.3715,-2.3816,-2.3866,-2.418,-2.472,-2.5021,-2.5169,-2.5674,-2.6138,-2.6033,-2.5915,-2.6145,-2.6433,-2.6433,-2.642,-2.6471,-2.6521,-2.6521,-2.6521,-2.6521,-2.6521,-2.6083,-2.617,-0.2974,-0.4442,-0.4487,-0.4472,-0.4482,-0.4492,-0.4516,-0.4624,-0.4706,-0.4207,-0.3456,-0.4314,-0.4806,-0.4779,-0.48,-0.4876,-0.4862,-0.4735,-0.4663,-0.465,-0.4714,-0.4697,-0.4766,-0.5034,-0.5843,-0.6629,-0.8111,-0.9488,-1.0445,-1.0618,-1.0618,-1.0618,-1.0618,-1.0618,-1.0618,-1.0618,-1.0618,-1.0618,-1.0618,-1.0618,-1.0618,-1.0618,-1.0618,-1.0618,-1.0618,-1.0618,-1.0618,-1.0618,-1.0618,-1.0989,-1.1655,-1.2696,-1.3425,-1.3965,-1.4273,-1.4569,-1.4746,-1.4932,-1.5294,-1.542,-1.542,-1.542,-1.542,-1.542,-1.5526,-1.5362,-1.5986,-1.6336,-1.6789,-1.7294,-1.827,-1.9136,-1.8572,-1.8328,-1.9222,-2.0733,-2.2032,-2.2418,-2.2187,-2.2249,-2.2445,-2.2494,-2.2944,-2.2944,-2.3078,-2.3078,-2.3065,-2.3125,-2.3125,-2.3188,-2.3374,-2.3626,-2.3978,-2.4217,-2.4356,-2.4745,-2.5272,-2.5536,-2.5661,-2.6,-2.6314,-2.6377,-2.6508,-2.6521,-2.6508,-2.6508,-2.6508,-2.6521,-2.6521,-2.6521,-2.6521,-2.6521,-2.6521,-2.6521,-2.6508,-0.4442,-0.448,-0.4467,-0.4463,-0.4463,-0.4463,-0.4597,-0.4629,-0.4584,-0.4657,-0.4725,-0.4799,-0.486,-0.4876,-0.4972,-0.4865,-0.4866,-0.4918,-0.4775,-0.457,-0.4602,-0.4585,-0.4858,-0.5321,-0.6221,-0.7502,-0.892,-0.9771,-1.0548,-1.0618,-1.0618,-1.0618,-1.0618,-1.0618,-1.0618,-1.0618,-1.0618,-1.0618,-1.0618,-1.0618,-1.0618,-1.0618,-1.0618,-1.0618,-1.0618,-1.0618,-1.0618,-1.0744,-1.0744,-1.117,-1.2027,-1.3122,-1.4025,-1.4628,-1.4991,-1.5235,-1.5235,-1.5294,-1.542,-1.542,-1.542,-1.542,-1.542,-1.5478,-1.5594,-1.6199,-1.6827,-1.7509,-1.7999,-1.8556,-1.9559,-1.9965,-1.9329,-1.9147,-2.029,-2.1249,-2.2238,-2.303,-2.3017,-2.3078,-2.3065,-2.3065,-2.3065,-2.3065,-2.3125,-2.3125,-2.3125,-2.3125,-2.3163,-2.3263,-2.3437,-2.3889,-2.4318,-2.4545,-2.4707,-2.5272,-2.5799,-2.5787,-2.5925,-2.6226,-2.6521,-2.6521,-2.6521,-2.6521,-2.6521,-2.6521,-2.6521,-2.6521,-2.6521,-2.6521,-2.6521,-2.6521,-2.6521,-2.6521,-2.6521,-0.449,-0.4477,-0.4467,-0.4463,-0.4463,-0.4463,-0.4536,-0.4556,-0.4536,-0.4809,-0.523,-0.5349,-0.5378,-0.5441,-0.6023,-0.6004,-0.5417,-0.534,-0.4901,-0.4591,-0.4682,-0.4601,-0.4761,-0.546,-0.67,-0.808,-0.9296,-0.9939,-1.0537,-1.0618,-1.0618,-1.0618,-1.0618,-1.0618,-1.0618,-1.0618,-1.0618,-1.0618,-1.0618,-1.0618,-1.0618,-1.0618,-1.0618,-1.0618,-1.0618,-1.0618,-1.0744,-1.1226,-1.1108,-1.1296,-1.2035,-1.3183,-1.4094,-1.4815,-1.5177,-1.542,-1.542,-1.542,-1.542,-1.542,-1.542,-1.542,-1.5488,-1.5644,-1.6024,-1.6774,-1.7632,-1.8736,-1.9208,-1.9459,-2.0182,-2.0614,-2.0314,-2.0728,-2.1531,-2.214,-2.2919,-2.3078,-2.3078,-2.3078,-2.3065,-2.3065,-2.3065,-2.3125,-2.3125,-2.3125,-2.3125,-2.3125,-2.3125,-2.3276,-2.35,-2.4091,-2.4596,-2.4696,-2.4833,-2.5686,-2.6257,-2.6206,-2.6126,-2.6408,-2.6521,-2.6521,-2.6521,-2.6521,-2.6521,-2.6521,-2.6521,-2.6521,-2.6521,-2.6521,-2.6521,-2.6521,-2.6521,-2.6521,-2.6521]}]]